Time,TemperatureF,DewpointF,PressureIn,WindDirection,WindDirectionDegrees,WindSpeedMPH,WindSpeedGustMPH,Humidity,HourlyPrecipIn,Conditions,Clouds,dailyrainin,SoftwareType,DateUTC
2013-01-10 00:00:00,50.1,41.4,30.26,SE,134,6.0,11.0,72,0.00,,---,0.00,VWS V14.00,2013-01-10 06:00:00,
2013-01-10 00:01:00,50.1,41.4,30.25,SE,132,14.0,18.0,72,0.00,,---,0.00,VWS V14.00,2013-01-10 06:01:00,
2013-01-10 00:02:00,49.9,41.2,30.25,SE,128,8.0,9.0,72,0.00,,---,0.00,VWS V14.00,2013-01-10 06:02:00,
2013-01-10 00:03:00,49.9,41.2,30.25,SE,130,4.0,9.0,72,0.00,,---,0.00,VWS V14.00,2013-01-10 06:03:00,
2013-01-10 00:04:00,49.9,41.2,30.25,SE,130,9.0,9.0,72,0.00,,---,0.00,VWS V14.00,2013-01-10 06:04:00,
2013-01-10 00:05:00,49.8,41.5,30.25,SE,132,1.0,22.0,73,0.00,,---,0.00,VWS V14.00,2013-01-10 06:05:00,
2013-01-10 00:06:00,49.8,41.5,30.25,ESE,123,19.0,19.0,73,0.00,,---,0.00,VWS V14.00,2013-01-10 06:06:00,
2013-01-10 00:07:00,49.8,41.5,30.25,SE,141,13.0,17.0,73,0.00,,---,0.00,VWS V14.00,2013-01-10 06:07:00,
2013-01-10 00:08:00,49.8,41.5,30.25,SSE,161,14.0,15.0,73,0.00,,---,0.00,VWS V14.00,2013-01-10 06:08:00,
2013-01-10 00:09:00,49.8,41.5,30.25,SE,141,13.0,17.0,73,0.00,,---,0.00,VWS V14.00,2013-01-10 06:09:00,
2013-01-10 00:10:00,49.6,41.7,30.25,SE,139,11.0,18.0,74,0.00,,---,0.00,VWS V14.00,2013-01-10 06:10:00,
2013-01-10 00:11:00,49.6,41.7,30.25,East,84,3.0,13.0,74,0.00,,---,0.00,VWS V14.00,2013-01-10 06:11:00,
2013-01-10 00:12:00,49.5,41.9,30.25,SE,132,6.0,13.0,75,0.00,,---,0.00,VWS V14.00,2013-01-10 06:12:00,
2013-01-10 00:13:00,49.6,41.7,30.25,SE,134,13.0,14.0,74,0.00,,---,0.00,VWS V14.00,2013-01-10 06:13:00,
2013-01-10 00:14:00,49.5,41.9,30.25,SE,132,6.0,13.0,75,0.00,,---,0.00,VWS V14.00,2013-01-10 06:14:00,
2013-01-10 00:15:00,49.5,41.9,30.25,SE,137,13.0,13.0,75,0.00,,---,0.00,VWS V14.00,2013-01-10 06:15:00,
2013-01-10 00:16:00,49.4,41.8,30.25,East,99,9.0,14.0,75,0.00,,---,0.00,VWS V14.00,2013-01-10 06:16:00,
2013-01-10 00:17:00,49.2,42.0,30.25,SE,143,7.0,14.0,76,0.00,,---,0.00,VWS V14.00,2013-01-10 06:17:00,
2013-01-10 00:18:00,49.4,41.8,30.25,SE,136,5.0,12.0,75,0.00,,---,0.00,VWS V14.00,2013-01-10 06:18:00,
2013-01-10 00:19:00,49.2,42.0,30.25,SE,143,7.0,14.0,76,0.00,,---,0.00,VWS V14.00,2013-01-10 06:19:00,
2013-01-10 00:20:00,49.2,42.0,30.24,ENE,76,9.0,13.0,76,0.00,,---,0.00,VWS V14.00,2013-01-10 06:20:00,
2013-01-10 00:21:00,49.2,42.0,30.24,NE,51,0.0,9.0,76,0.00,,---,0.00,VWS V14.00,2013-01-10 06:21:00,
2013-01-10 00:22:00,48.9,42.0,30.24,SE,138,4.0,11.0,77,0.00,,---,0.00,VWS V14.00,2013-01-10 06:22:00,
2013-01-10 00:23:00,49.1,41.9,30.24,SE,146,10.0,10.0,76,0.00,,---,0.00,VWS V14.00,2013-01-10 06:23:00,
2013-01-10 00:24:00,48.9,42.0,30.24,SE,138,4.0,11.0,77,0.00,,---,0.00,VWS V14.00,2013-01-10 06:24:00,
2013-01-10 00:25:00,48.9,42.0,30.24,SE,140,2.0,4.0,77,0.00,,---,0.00,VWS V14.00,2013-01-10 06:25:00,
2013-01-10 00:26:00,48.9,42.0,30.24,SSE,162,6.0,15.0,77,0.01,,---,0.01,VWS V14.00,2013-01-10 06:26:00,
2013-01-10 00:27:00,48.8,42.3,30.24,SSE,147,9.0,11.0,78,0.01,,---,0.01,VWS V14.00,2013-01-10 06:27:00,
2013-01-10 00:28:00,48.8,41.9,30.24,ESE,123,6.0,16.0,77,0.01,,---,0.01,VWS V14.00,2013-01-10 06:28:00,
2013-01-10 00:29:00,48.8,42.3,30.24,SSE,147,9.0,11.0,78,0.01,,---,0.01,VWS V14.00,2013-01-10 06:29:00,
2013-01-10 00:30:00,48.6,42.1,30.23,SSE,153,11.0,14.0,78,0.01,,---,0.01,VWS V14.00,2013-01-10 06:30:00,
2013-01-10 00:31:00,48.6,42.1,30.24,SE,144,11.0,11.0,78,0.01,,---,0.01,VWS V14.00,2013-01-10 06:31:00,
2013-01-10 00:32:00,48.5,42.3,30.24,SE,139,8.0,11.0,79,0.01,,---,0.01,VWS V14.00,2013-01-10 06:32:00,
2013-01-10 00:33:00,48.5,42.3,30.23,SE,135,7.0,12.0,79,0.01,,---,0.01,VWS V14.00,2013-01-10 06:33:00,
2013-01-10 00:34:00,48.5,42.3,30.24,SE,139,8.0,11.0,79,0.01,,---,0.01,VWS V14.00,2013-01-10 06:34:00,
2013-01-10 00:35:00,48.5,42.3,30.23,SE,138,0.0,11.0,79,0.01,,---,0.01,VWS V14.00,2013-01-10 06:35:00,
2013-01-10 00:36:00,48.3,42.1,30.23,SE,132,10.0,19.0,79,0.01,,---,0.01,VWS V14.00,2013-01-10 06:36:00,
2013-01-10 00:37:00,48.2,42.3,30.23,SE,145,12.0,15.0,80,0.01,,---,0.01,VWS V14.00,2013-01-10 06:37:00,
2013-01-10 00:38:00,48.2,42.0,30.23,SE,140,5.0,11.0,79,0.01,,---,0.01,VWS V14.00,2013-01-10 06:38:00,
2013-01-10 00:39:00,48.2,42.3,30.23,SE,139,11.0,15.0,80,0.01,,---,0.01,VWS V14.00,2013-01-10 06:39:00,
2013-01-10 00:40:00,48.2,42.3,30.23,SE,146,7.0,11.0,80,0.01,,---,0.01,VWS V14.00,2013-01-10 06:40:00,
2013-01-10 00:41:00,48.0,42.1,30.23,SSE,147,7.0,7.0,80,0.01,,---,0.01,VWS V14.00,2013-01-10 06:41:00,
2013-01-10 00:42:00,47.9,42.4,30.23,SE,142,5.0,11.0,81,0.01,,---,0.01,VWS V14.00,2013-01-10 06:42:00,
2013-01-10 00:43:00,48.0,42.5,30.23,SE,142,9.0,10.0,81,0.01,,---,0.01,VWS V14.00,2013-01-10 06:43:00,
2013-01-10 00:44:00,47.9,42.4,30.23,SE,144,10.0,11.0,81,0.01,,---,0.01,VWS V14.00,2013-01-10 06:44:00,
2013-01-10 00:45:00,47.9,42.7,30.23,SE,140,3.0,15.0,82,0.01,,---,0.01,VWS V14.00,2013-01-10 06:45:00,
2013-01-10 00:46:00,47.7,42.5,30.23,SE,136,8.0,10.0,82,0.01,,---,0.01,VWS V14.00,2013-01-10 06:46:00,
2013-01-10 00:47:00,47.9,42.7,30.23,SE,134,10.0,13.0,82,0.01,,---,0.01,VWS V14.00,2013-01-10 06:47:00,
2013-01-10 00:48:00,47.7,42.5,30.23,SE,134,0.0,10.0,82,0.01,,---,0.01,VWS V14.00,2013-01-10 06:48:00,
2013-01-10 00:49:00,47.7,42.5,30.23,SE,137,6.0,10.0,82,0.01,,---,0.01,VWS V14.00,2013-01-10 06:49:00,
2013-01-10 00:50:00,47.7,42.5,30.23,SE,137,1.0,7.0,82,0.01,,---,0.01,VWS V14.00,2013-01-10 06:50:00,
2013-01-10 00:51:00,47.7,42.5,30.23,SE,137,2.0,11.0,82,0.01,,---,0.01,VWS V14.00,2013-01-10 06:51:00,
2013-01-10 00:52:00,47.7,42.5,30.23,SE,141,3.0,14.0,82,0.01,,---,0.01,VWS V14.00,2013-01-10 06:52:00,
2013-01-10 00:53:00,47.7,42.5,30.23,SE,140,7.0,7.0,82,0.01,,---,0.01,VWS V14.00,2013-01-10 06:53:00,
2013-01-10 00:54:00,47.7,42.5,30.23,SE,137,3.0,11.0,82,0.01,,---,0.01,VWS V14.00,2013-01-10 06:54:00,
2013-01-10 00:55:00,47.7,42.5,30.23,SE,145,11.0,11.0,82,0.01,,---,0.01,VWS V14.00,2013-01-10 06:55:00,
2013-01-10 00:56:00,47.7,42.5,30.23,SSE,149,0.0,4.0,82,0.02,,---,0.02,VWS V14.00,2013-01-10 06:56:00,
2013-01-10 00:57:00,47.7,42.5,30.23,SSE,153,7.0,7.0,82,0.02,,---,0.02,VWS V14.00,2013-01-10 06:57:00,
2013-01-10 00:58:00,47.7,42.5,30.23,SSE,149,3.0,10.0,82,0.02,,---,0.02,VWS V14.00,2013-01-10 06:58:00,
2013-01-10 00:59:00,47.7,42.5,30.23,SSE,149,0.0,4.0,82,0.02,,---,0.02,VWS V14.00,2013-01-10 06:59:00,
2013-01-10 01:00:00,47.7,42.5,30.23,SSE,149,0.0,10.0,82,0.02,,---,0.02,VWS V14.00,2013-01-10 07:00:00,
2013-01-10 01:01:00,47.7,42.5,30.22,SE,142,0.0,3.0,82,0.02,,---,0.02,VWS V14.00,2013-01-10 07:01:00,
2013-01-10 01:02:00,47.7,42.5,30.22,SE,142,3.0,16.0,82,0.02,,---,0.02,VWS V14.00,2013-01-10 07:02:00,
2013-01-10 01:03:00,47.7,42.5,30.22,SE,142,2.0,11.0,82,0.02,,---,0.02,VWS V14.00,2013-01-10 07:03:00,
2013-01-10 01:04:00,47.7,42.5,30.22,SE,142,0.0,3.0,82,0.02,,---,0.02,VWS V14.00,2013-01-10 07:04:00,
2013-01-10 01:05:00,47.7,42.5,30.22,SE,142,5.0,7.0,82,0.02,,---,0.02,VWS V14.00,2013-01-10 07:05:00,
2013-01-10 01:06:00,47.9,42.7,30.21,SSE,150,6.0,12.0,82,0.02,,---,0.02,VWS V14.00,2013-01-10 07:06:00,
2013-01-10 01:07:00,47.9,42.7,30.21,East,97,6.0,12.0,82,0.02,,---,0.02,VWS V14.00,2013-01-10 07:07:00,
2013-01-10 01:08:00,47.9,42.7,30.21,East,96,11.0,12.0,82,0.02,,---,0.02,VWS V14.00,2013-01-10 07:08:00,
2013-01-10 01:09:00,47.9,42.7,30.21,SSE,151,5.0,12.0,82,0.02,,---,0.02,VWS V14.00,2013-01-10 07:09:00,
2013-01-10 01:10:00,48.0,42.8,30.21,SSE,147,12.0,12.0,82,0.02,,---,0.02,VWS V14.00,2013-01-10 07:10:00,
2013-01-10 01:11:00,48.0,42.8,30.21,SSE,161,12.0,13.0,82,0.02,,---,0.02,VWS V14.00,2013-01-10 07:11:00,
2013-01-10 01:12:00,48.0,42.8,30.21,SSE,153,5.0,11.0,82,0.02,,---,0.02,VWS V14.00,2013-01-10 07:12:00,
2013-01-10 01:13:00,48.0,42.8,30.21,SSE,153,9.0,10.0,82,0.02,,---,0.02,VWS V14.00,2013-01-10 07:13:00,
2013-01-10 01:14:00,48.0,42.8,30.21,SSE,159,9.0,13.0,82,0.02,,---,0.02,VWS V14.00,2013-01-10 07:14:00,
2013-01-10 01:15:00,48.0,42.8,30.21,SE,146,12.0,13.0,82,0.02,,---,0.02,VWS V14.00,2013-01-10 07:15:00,
2013-01-10 01:16:00,48.2,42.7,30.21,SE,142,6.0,14.0,81,0.02,,---,0.02,VWS V14.00,2013-01-10 07:16:00,
2013-01-10 01:17:00,48.2,42.7,30.21,SE,126,0.0,11.0,81,0.02,,---,0.02,VWS V14.00,2013-01-10 07:17:00,
2013-01-10 01:18:00,48.2,42.7,30.21,SE,126,0.0,0.0,81,0.02,,---,0.02,VWS V14.00,2013-01-10 07:18:00,
2013-01-10 01:19:00,48.2,42.7,30.21,SE,142,5.0,14.0,81,0.02,,---,0.02,VWS V14.00,2013-01-10 07:19:00,
2013-01-10 01:20:00,48.2,42.7,30.21,SE,142,10.0,11.0,81,0.02,,---,0.02,VWS V14.00,2013-01-10 07:20:00,
2013-01-10 01:21:00,48.3,42.8,30.21,SE,133,15.0,15.0,81,0.02,,---,0.02,VWS V14.00,2013-01-10 07:21:00,
2013-01-10 01:22:00,48.2,42.7,30.21,SE,134,7.0,16.0,81,0.02,,---,0.02,VWS V14.00,2013-01-10 07:22:00,
2013-01-10 01:23:00,48.3,42.8,30.21,NE,50,6.0,15.0,81,0.02,,---,0.02,VWS V14.00,2013-01-10 07:23:00,
2013-01-10 01:24:00,48.3,42.8,30.22,SE,139,7.0,15.0,81,0.02,,---,0.02,VWS V14.00,2013-01-10 07:24:00,
2013-01-10 01:25:00,48.3,42.8,30.22,SSE,148,12.0,13.0,81,0.02,,---,0.02,VWS V14.00,2013-01-10 07:25:00,
2013-01-10 01:26:00,48.3,42.8,30.21,SE,141,4.0,7.0,81,0.01,,---,0.02,VWS V14.00,2013-01-10 07:26:00,
2013-01-10 01:27:00,48.3,42.8,30.21,SSE,147,6.0,13.0,81,0.01,,---,0.02,VWS V14.00,2013-01-10 07:27:00,
2013-01-10 01:28:00,48.3,42.8,30.21,SE,142,4.0,12.0,81,0.01,,---,0.02,VWS V14.00,2013-01-10 07:28:00,
2013-01-10 01:29:00,48.3,42.8,30.21,SE,141,0.0,7.0,81,0.01,,---,0.02,VWS V14.00,2013-01-10 07:29:00,
2013-01-10 01:30:00,48.3,42.8,30.21,SE,144,1.0,14.0,81,0.01,,---,0.02,VWS V14.00,2013-01-10 07:30:00,
2013-01-10 01:31:00,48.3,42.8,30.21,SE,140,14.0,16.0,81,0.01,,---,0.02,VWS V14.00,2013-01-10 07:31:00,
2013-01-10 01:32:00,48.3,42.8,30.21,SSE,157,6.0,11.0,81,0.01,,---,0.02,VWS V14.00,2013-01-10 07:32:00,
2013-01-10 01:33:00,48.3,42.8,30.21,SSE,147,14.0,14.0,81,0.01,,---,0.02,VWS V14.00,2013-01-10 07:33:00,
2013-01-10 01:34:00,48.3,42.8,30.21,SE,140,10.0,16.0,81,0.01,,---,0.02,VWS V14.00,2013-01-10 07:34:00,
2013-01-10 01:35:00,48.3,42.8,30.21,SSE,149,13.0,13.0,81,0.01,,---,0.02,VWS V14.00,2013-01-10 07:35:00,
2013-01-10 01:36:00,48.5,43.0,30.21,SE,146,9.0,10.0,81,0.01,,---,0.02,VWS V14.00,2013-01-10 07:36:00,
2013-01-10 01:37:00,48.5,43.0,30.21,ESE,117,3.0,9.0,81,0.01,,---,0.02,VWS V14.00,2013-01-10 07:37:00,
2013-01-10 01:38:00,48.5,43.0,30.21,ESE,116,2.0,6.0,81,0.01,,---,0.02,VWS V14.00,2013-01-10 07:38:00,
2013-01-10 01:39:00,48.5,43.0,30.21,SE,146,6.0,10.0,81,0.01,,---,0.02,VWS V14.00,2013-01-10 07:39:00,
2013-01-10 01:40:00,48.3,42.8,30.21,SE,146,2.0,7.0,81,0.01,,---,0.02,VWS V14.00,2013-01-10 07:40:00,
2013-01-10 01:41:00,48.3,42.8,30.21,SE,140,5.0,12.0,81,0.01,,---,0.02,VWS V14.00,2013-01-10 07:41:00,
2013-01-10 01:42:00,48.3,42.8,30.21,SE,140,5.0,16.0,81,0.01,,---,0.02,VWS V14.00,2013-01-10 07:42:00,
2013-01-10 01:43:00,48.3,42.8,30.21,SE,140,5.0,9.0,81,0.01,,---,0.02,VWS V14.00,2013-01-10 07:43:00,
2013-01-10 01:44:00,48.3,42.8,30.21,SE,140,6.0,12.0,81,0.01,,---,0.02,VWS V14.00,2013-01-10 07:44:00,
2013-01-10 01:45:00,48.3,42.8,30.21,SSE,150,16.0,16.0,81,0.01,,---,0.02,VWS V14.00,2013-01-10 07:45:00,
2013-01-10 01:46:00,48.5,43.0,30.21,SE,126,0.0,12.0,81,0.01,,---,0.02,VWS V14.00,2013-01-10 07:46:00,
2013-01-10 01:47:00,48.5,43.0,30.21,SE,130,13.0,13.0,81,0.01,,---,0.02,VWS V14.00,2013-01-10 07:47:00,
2013-01-10 01:48:00,48.5,43.0,30.21,SE,134,9.0,13.0,81,0.01,,---,0.02,VWS V14.00,2013-01-10 07:48:00,
2013-01-10 01:49:00,48.5,43.0,30.21,SE,132,10.0,12.0,81,0.01,,---,0.02,VWS V14.00,2013-01-10 07:49:00,
2013-01-10 01:50:00,48.5,43.0,30.21,SE,134,8.0,13.0,81,0.01,,---,0.02,VWS V14.00,2013-01-10 07:50:00,
2013-01-10 01:51:00,48.5,43.0,30.21,SE,135,9.0,17.0,81,0.01,,---,0.02,VWS V14.00,2013-01-10 07:51:00,
2013-01-10 01:52:00,48.5,43.0,30.21,SE,132,5.0,16.0,81,0.01,,---,0.02,VWS V14.00,2013-01-10 07:52:00,
2013-01-10 01:53:00,48.5,43.0,30.21,SSE,149,14.0,14.0,81,0.01,,---,0.02,VWS V14.00,2013-01-10 07:53:00,
2013-01-10 01:54:00,48.5,43.0,30.21,SE,134,10.0,17.0,81,0.01,,---,0.02,VWS V14.00,2013-01-10 07:54:00,
2013-01-10 01:55:00,48.5,43.0,30.21,SE,127,10.0,15.0,81,0.01,,---,0.02,VWS V14.00,2013-01-10 07:55:00,
2013-01-10 01:56:00,48.5,43.0,30.21,SE,131,9.0,12.0,81,0.00,,---,0.02,VWS V14.00,2013-01-10 07:56:00,
2013-01-10 01:57:00,48.5,43.0,30.21,SE,144,14.0,15.0,81,0.00,,---,0.02,VWS V14.00,2013-01-10 07:57:00,
2013-01-10 01:58:00,48.5,43.0,30.21,SE,140,2.0,14.0,81,0.00,,---,0.02,VWS V14.00,2013-01-10 07:58:00,
2013-01-10 01:59:00,48.5,43.0,30.21,SE,131,7.0,12.0,81,0.00,,---,0.02,VWS V14.00,2013-01-10 07:59:00,
2013-01-10 02:00:00,48.5,43.0,30.21,SE,136,9.0,14.0,81,0.00,,---,0.02,VWS V14.00,2013-01-10 08:00:00,
2013-01-10 02:01:00,48.5,43.0,30.21,SE,140,11.0,15.0,81,0.00,,---,0.02,VWS V14.00,2013-01-10 08:01:00,
2013-01-10 02:02:00,48.5,43.0,30.21,SE,133,10.0,15.0,81,0.00,,---,0.02,VWS V14.00,2013-01-10 08:02:00,
2013-01-10 02:03:00,48.5,43.0,30.21,SE,134,2.0,11.0,81,0.00,,---,0.02,VWS V14.00,2013-01-10 08:03:00,
2013-01-10 02:04:00,48.5,43.0,30.21,SE,142,11.0,15.0,81,0.00,,---,0.02,VWS V14.00,2013-01-10 08:04:00,
2013-01-10 02:05:00,48.5,43.0,30.21,SE,138,12.0,14.0,81,0.00,,---,0.02,VWS V14.00,2013-01-10 08:05:00,
2013-01-10 02:06:00,48.5,43.0,30.21,SE,138,12.0,16.0,81,0.00,,---,0.02,VWS V14.00,2013-01-10 08:06:00,
2013-01-10 02:07:00,48.5,43.0,30.21,SE,130,11.0,11.0,81,0.00,,---,0.02,VWS V14.00,2013-01-10 08:07:00,
2013-01-10 02:08:00,48.5,43.0,30.21,ESE,110,0.0,15.0,81,0.00,,---,0.02,VWS V14.00,2013-01-10 08:08:00,
2013-01-10 02:09:00,48.5,43.0,30.21,SE,138,9.0,16.0,81,0.00,,---,0.02,VWS V14.00,2013-01-10 08:09:00,
2013-01-10 02:10:00,48.5,43.0,30.21,ESE,113,6.0,17.0,81,0.00,,---,0.02,VWS V14.00,2013-01-10 08:10:00,
2013-01-10 02:11:00,48.5,43.0,30.21,SE,128,3.0,14.0,81,0.00,,---,0.02,VWS V14.00,2013-01-10 08:11:00,
2013-01-10 02:12:00,48.5,43.0,30.21,SE,128,9.0,13.0,81,0.00,,---,0.02,VWS V14.00,2013-01-10 08:12:00,
2013-01-10 02:13:00,48.5,43.0,30.21,SE,134,7.0,16.0,81,0.00,,---,0.02,VWS V14.00,2013-01-10 08:13:00,
2013-01-10 02:14:00,48.5,43.0,30.21,SE,128,1.0,14.0,81,0.00,,---,0.02,VWS V14.00,2013-01-10 08:14:00,
2013-01-10 02:15:00,48.5,43.0,30.21,SE,140,13.0,18.0,81,0.00,,---,0.02,VWS V14.00,2013-01-10 08:15:00,
2013-01-10 02:16:00,48.5,43.0,30.21,ESE,105,3.0,9.0,81,0.00,,---,0.02,VWS V14.00,2013-01-10 08:16:00,
2013-01-10 02:17:00,48.5,43.0,30.21,SSE,153,0.0,12.0,81,0.00,,---,0.02,VWS V14.00,2013-01-10 08:17:00,
2013-01-10 02:18:00,48.5,43.0,30.21,East,97,9.0,14.0,81,0.00,,---,0.02,VWS V14.00,2013-01-10 08:18:00,
2013-01-10 02:19:00,48.5,43.0,30.21,SE,129,10.0,10.0,81,0.00,,---,0.02,VWS V14.00,2013-01-10 08:19:00,
2013-01-10 02:20:00,48.5,43.0,30.21,SE,136,5.0,16.0,81,0.00,,---,0.02,VWS V14.00,2013-01-10 08:20:00,
2013-01-10 02:21:00,48.5,43.0,30.21,SE,130,6.0,11.0,81,0.00,,---,0.02,VWS V14.00,2013-01-10 08:21:00,
2013-01-10 02:22:00,48.5,43.0,30.21,SE,145,13.0,16.0,81,0.00,,---,0.02,VWS V14.00,2013-01-10 08:22:00,
2013-01-10 02:23:00,48.5,43.0,30.21,SE,135,10.0,16.0,81,0.00,,---,0.02,VWS V14.00,2013-01-10 08:23:00,
2013-01-10 02:24:00,48.5,43.0,30.21,SE,130,6.0,11.0,81,0.00,,---,0.02,VWS V14.00,2013-01-10 08:24:00,
2013-01-10 02:25:00,48.5,43.0,30.21,SE,144,12.0,13.0,81,0.00,,---,0.02,VWS V14.00,2013-01-10 08:25:00,
2013-01-10 02:26:00,48.5,43.0,30.21,SE,138,4.0,10.0,81,0.00,,---,0.02,VWS V14.00,2013-01-10 08:26:00,
2013-01-10 02:27:00,48.5,43.3,30.21,SE,144,6.0,16.0,82,0.00,,---,0.02,VWS V14.00,2013-01-10 08:27:00,
2013-01-10 02:28:00,48.5,43.0,30.21,SE,139,7.0,12.0,81,0.00,,---,0.02,VWS V14.00,2013-01-10 08:28:00,
2013-01-10 02:29:00,48.5,43.0,30.21,SE,138,5.0,10.0,81,0.00,,---,0.02,VWS V14.00,2013-01-10 08:29:00,
2013-01-10 02:30:00,48.5,43.0,30.21,SE,138,11.0,11.0,81,0.00,,---,0.02,VWS V14.00,2013-01-10 08:30:00,
2013-01-10 02:31:00,48.5,43.3,30.21,SE,134,6.0,14.0,82,0.00,,---,0.02,VWS V14.00,2013-01-10 08:31:00,
2013-01-10 02:32:00,48.5,43.3,30.20,SE,126,0.0,9.0,82,0.00,,---,0.02,VWS V14.00,2013-01-10 08:32:00,
2013-01-10 02:33:00,48.5,43.3,30.21,SE,145,12.0,12.0,82,0.00,,---,0.02,VWS V14.00,2013-01-10 08:33:00,
2013-01-10 02:34:00,48.5,43.3,30.21,SE,134,9.0,14.0,82,0.00,,---,0.02,VWS V14.00,2013-01-10 08:34:00,
2013-01-10 02:35:00,48.5,43.3,30.21,SE,134,3.0,10.0,82,0.00,,---,0.02,VWS V14.00,2013-01-10 08:35:00,
2013-01-10 02:36:00,48.5,43.3,30.21,SE,132,11.0,11.0,82,0.00,,---,0.02,VWS V14.00,2013-01-10 08:36:00,
2013-01-10 02:37:00,48.5,43.3,30.21,ESE,123,0.0,9.0,82,0.00,,---,0.02,VWS V14.00,2013-01-10 08:37:00,
2013-01-10 02:38:00,48.5,43.3,30.21,SE,126,6.0,13.0,82,0.00,,---,0.02,VWS V14.00,2013-01-10 08:38:00,
2013-01-10 02:39:00,48.5,43.3,30.20,SE,137,5.0,11.0,82,0.00,,---,0.02,VWS V14.00,2013-01-10 08:39:00,
2013-01-10 02:40:00,48.5,43.3,30.20,SE,132,4.0,10.0,82,0.00,,---,0.02,VWS V14.00,2013-01-10 08:40:00,
2013-01-10 02:41:00,48.5,43.3,30.21,SE,136,4.0,9.0,82,0.00,,---,0.02,VWS V14.00,2013-01-10 08:41:00,
2013-01-10 02:42:00,48.5,43.3,30.21,SE,133,5.0,5.0,82,0.00,,---,0.02,VWS V14.00,2013-01-10 08:42:00,
2013-01-10 02:43:00,48.5,43.3,30.21,SE,136,9.0,10.0,82,0.00,,---,0.02,VWS V14.00,2013-01-10 08:43:00,
2013-01-10 02:44:00,48.5,43.3,30.20,SE,136,2.0,9.0,82,0.00,,---,0.02,VWS V14.00,2013-01-10 08:44:00,
2013-01-10 02:45:00,48.5,43.3,30.20,SE,129,6.0,12.0,82,0.00,,---,0.02,VWS V14.00,2013-01-10 08:45:00,
2013-01-10 02:46:00,48.5,43.3,30.20,SE,144,9.0,11.0,82,0.00,,---,0.02,VWS V14.00,2013-01-10 08:46:00,
2013-01-10 02:47:00,48.5,43.3,30.20,SE,135,16.0,16.0,82,0.00,,---,0.02,VWS V14.00,2013-01-10 08:47:00,
2013-01-10 02:48:00,48.5,43.3,30.20,SE,131,10.0,16.0,82,0.00,,---,0.02,VWS V14.00,2013-01-10 08:48:00,
2013-01-10 02:49:00,48.5,43.3,30.20,SE,144,10.0,11.0,82,0.00,,---,0.02,VWS V14.00,2013-01-10 08:49:00,
2013-01-10 02:50:00,48.5,43.3,30.20,SE,141,0.0,10.0,82,0.00,,---,0.02,VWS V14.00,2013-01-10 08:50:00,
2013-01-10 02:51:00,48.5,43.3,30.19,SSE,147,7.0,12.0,82,0.00,,---,0.02,VWS V14.00,2013-01-10 08:51:00,
2013-01-10 02:52:00,48.5,43.3,30.20,SSE,150,4.0,7.0,82,0.00,,---,0.02,VWS V14.00,2013-01-10 08:52:00,
2013-01-10 02:53:00,48.5,43.3,30.19,SSE,150,7.0,11.0,82,0.00,,---,0.02,VWS V14.00,2013-01-10 08:53:00,
2013-01-10 02:54:00,48.5,43.3,30.19,SSE,147,8.0,12.0,82,0.00,,---,0.02,VWS V14.00,2013-01-10 08:54:00,
2013-01-10 02:55:00,48.5,43.3,30.19,SE,146,1.0,11.0,82,0.00,,---,0.02,VWS V14.00,2013-01-10 08:55:00,
2013-01-10 02:56:00,48.5,43.3,30.19,SE,145,0.0,4.0,82,0.00,,---,0.02,VWS V14.00,2013-01-10 08:56:00,
2013-01-10 02:57:00,48.5,43.3,30.19,SE,146,2.0,7.0,82,0.00,,---,0.02,VWS V14.00,2013-01-10 08:57:00,
2013-01-10 02:58:00,48.5,43.3,30.19,SE,145,4.0,10.0,82,0.00,,---,0.02,VWS V14.00,2013-01-10 08:58:00,
2013-01-10 02:59:00,48.5,43.3,30.19,SE,145,0.0,4.0,82,0.00,,---,0.02,VWS V14.00,2013-01-10 08:59:00,
2013-01-10 03:00:00,48.5,43.3,30.19,SE,145,0.0,6.0,82,0.00,,---,0.02,VWS V14.00,2013-01-10 09:00:00,
2013-01-10 03:01:00,48.5,43.3,30.18,SE,144,0.0,5.0,82,0.00,,---,0.02,VWS V14.00,2013-01-10 09:01:00,
2013-01-10 03:02:00,48.5,43.3,30.18,SE,145,0.0,6.0,82,0.00,,---,0.02,VWS V14.00,2013-01-10 09:02:00,
2013-01-10 03:03:00,48.5,43.3,30.18,SE,144,5.0,9.0,82,0.00,,---,0.02,VWS V14.00,2013-01-10 09:03:00,
2013-01-10 03:04:00,48.5,43.3,30.18,SE,144,2.0,5.0,82,0.00,,---,0.02,VWS V14.00,2013-01-10 09:04:00,
2013-01-10 03:05:00,48.5,43.3,30.18,SE,144,0.0,2.0,82,0.00,,---,0.02,VWS V14.00,2013-01-10 09:05:00,
2013-01-10 03:06:00,48.5,43.3,30.18,SE,144,3.0,7.0,82,0.00,,---,0.02,VWS V14.00,2013-01-10 09:06:00,
2013-01-10 03:07:00,48.5,43.3,30.18,SE,144,5.0,10.0,82,0.00,,---,0.02,VWS V14.00,2013-01-10 09:07:00,
2013-01-10 03:08:00,48.5,43.3,30.18,SE,144,7.0,7.0,82,0.00,,---,0.02,VWS V14.00,2013-01-10 09:08:00,
2013-01-10 03:09:00,48.5,43.3,30.18,SE,144,2.0,7.0,82,0.00,,---,0.02,VWS V14.00,2013-01-10 09:09:00,
2013-01-10 03:10:00,48.5,43.3,30.17,SE,144,0.0,2.0,82,0.00,,---,0.02,VWS V14.00,2013-01-10 09:10:00,
2013-01-10 03:11:00,48.5,43.3,30.17,SE,140,2.0,2.0,82,0.00,,---,0.02,VWS V14.00,2013-01-10 09:11:00,
2013-01-10 03:12:00,48.5,43.3,30.18,SE,144,2.0,10.0,82,0.00,,---,0.02,VWS V14.00,2013-01-10 09:12:00,
2013-01-10 03:13:00,48.5,43.3,30.17,SE,140,2.0,7.0,82,0.00,,---,0.02,VWS V14.00,2013-01-10 09:13:00,
2013-01-10 03:14:00,48.5,43.3,30.17,SE,142,4.0,9.0,82,0.00,,---,0.02,VWS V14.00,2013-01-10 09:14:00,
2013-01-10 03:15:00,48.3,43.1,30.17,SE,142,5.0,11.0,82,0.00,,---,0.02,VWS V14.00,2013-01-10 09:15:00,
2013-01-10 03:16:00,48.3,43.1,30.18,SE,142,5.0,6.0,82,0.00,,---,0.02,VWS V14.00,2013-01-10 09:16:00,
2013-01-10 03:17:00,48.3,43.1,30.17,SE,142,5.0,5.0,82,0.00,,---,0.02,VWS V14.00,2013-01-10 09:17:00,
2013-01-10 03:18:00,48.3,43.1,30.18,SE,142,0.0,5.0,82,0.00,,---,0.02,VWS V14.00,2013-01-10 09:18:00,
2013-01-10 03:19:00,48.3,43.1,30.18,SE,142,3.0,6.0,82,0.00,,---,0.02,VWS V14.00,2013-01-10 09:19:00,
2013-01-10 03:20:00,48.3,43.1,30.18,SE,131,2.0,7.0,82,0.00,,---,0.02,VWS V14.00,2013-01-10 09:20:00,
2013-01-10 03:21:00,48.3,43.1,30.18,SE,137,0.0,13.0,82,0.00,,---,0.02,VWS V14.00,2013-01-10 09:21:00,
2013-01-10 03:22:00,48.3,43.1,30.18,SE,131,9.0,9.0,82,0.00,,---,0.02,VWS V14.00,2013-01-10 09:22:00,
2013-01-10 03:23:00,48.3,43.4,30.18,SE,130,3.0,10.0,83,0.00,,---,0.02,VWS V14.00,2013-01-10 09:23:00,
2013-01-10 03:24:00,48.3,43.1,30.18,SE,137,4.0,13.0,82,0.00,,---,0.02,VWS V14.00,2013-01-10 09:24:00,
2013-01-10 03:25:00,48.3,43.4,30.18,SE,136,10.0,12.0,83,0.00,,---,0.02,VWS V14.00,2013-01-10 09:25:00,
2013-01-10 03:26:00,48.3,43.4,30.18,SE,139,3.0,9.0,83,0.00,,---,0.02,VWS V14.00,2013-01-10 09:26:00,
2013-01-10 03:27:00,48.3,43.4,30.18,SE,140,0.0,6.0,83,0.00,,---,0.02,VWS V14.00,2013-01-10 09:27:00,
2013-01-10 03:28:00,48.3,43.4,30.18,SE,140,9.0,9.0,83,0.00,,---,0.02,VWS V14.00,2013-01-10 09:28:00,
2013-01-10 03:29:00,48.3,43.4,30.18,SE,136,6.0,9.0,83,0.00,,---,0.02,VWS V14.00,2013-01-10 09:29:00,
2013-01-10 03:30:00,48.3,43.4,30.18,SE,136,11.0,11.0,83,0.00,,---,0.02,VWS V14.00,2013-01-10 09:30:00,
2013-01-10 03:31:00,48.2,43.3,30.17,SE,136,0.0,6.0,83,0.00,,---,0.02,VWS V14.00,2013-01-10 09:31:00,
2013-01-10 03:32:00,48.3,43.4,30.17,SE,138,5.0,7.0,83,0.00,,---,0.02,VWS V14.00,2013-01-10 09:32:00,
2013-01-10 03:33:00,48.2,43.3,30.17,SE,136,4.0,11.0,83,0.00,,---,0.02,VWS V14.00,2013-01-10 09:33:00,
2013-01-10 03:34:00,48.2,43.3,30.17,SE,136,0.0,6.0,83,0.00,,---,0.02,VWS V14.00,2013-01-10 09:34:00,
2013-01-10 03:35:00,48.2,43.3,30.17,SE,140,10.0,11.0,83,0.00,,---,0.02,VWS V14.00,2013-01-10 09:35:00,
2013-01-10 03:36:00,48.2,43.3,30.17,SE,136,6.0,11.0,83,0.00,,---,0.02,VWS V14.00,2013-01-10 09:36:00,
2013-01-10 03:37:00,48.2,43.3,30.17,SE,136,12.0,12.0,83,0.00,,---,0.02,VWS V14.00,2013-01-10 09:37:00,
2013-01-10 03:38:00,48.2,43.3,30.17,SE,136,7.0,12.0,83,0.00,,---,0.02,VWS V14.00,2013-01-10 09:38:00,
2013-01-10 03:39:00,48.2,43.3,30.17,SE,136,6.0,11.0,83,0.00,,---,0.02,VWS V14.00,2013-01-10 09:39:00,
2013-01-10 03:40:00,48.2,43.3,30.16,SE,136,10.0,11.0,83,0.00,,---,0.02,VWS V14.00,2013-01-10 09:40:00,
2013-01-10 03:41:00,48.0,43.1,30.16,SE,135,3.0,4.0,83,0.00,,---,0.02,VWS V14.00,2013-01-10 09:41:00,
2013-01-10 03:42:00,48.2,43.3,30.17,SE,136,7.0,7.0,83,0.00,,---,0.02,VWS V14.00,2013-01-10 09:42:00,
2013-01-10 03:43:00,48.0,43.1,30.16,SE,135,4.0,11.0,83,0.00,,---,0.02,VWS V14.00,2013-01-10 09:43:00,
2013-01-10 03:44:00,48.0,43.1,30.16,SE,135,2.0,5.0,83,0.00,,---,0.02,VWS V14.00,2013-01-10 09:44:00,
2013-01-10 03:45:00,48.0,43.1,30.17,SE,135,7.0,11.0,83,0.00,,---,0.02,VWS V14.00,2013-01-10 09:45:00,
2013-01-10 03:46:00,48.0,43.1,30.16,SE,132,3.0,6.0,83,0.00,,---,0.02,VWS V14.00,2013-01-10 09:46:00,
2013-01-10 03:47:00,48.0,43.1,30.17,SE,132,5.0,9.0,83,0.00,,---,0.02,VWS V14.00,2013-01-10 09:47:00,
2013-01-10 03:48:00,48.0,43.1,30.16,SE,132,4.0,5.0,83,0.00,,---,0.02,VWS V14.00,2013-01-10 09:48:00,
2013-01-10 03:49:00,48.0,43.1,30.16,SE,132,6.0,6.0,83,0.00,,---,0.02,VWS V14.00,2013-01-10 09:49:00,
2013-01-10 03:50:00,48.0,43.1,30.16,SE,132,10.0,13.0,83,0.00,,---,0.02,VWS V14.00,2013-01-10 09:50:00,
2013-01-10 03:51:00,48.0,43.1,30.15,SE,128,3.0,9.0,83,0.00,,---,0.02,VWS V14.00,2013-01-10 09:51:00,
2013-01-10 03:52:00,48.0,43.1,30.15,SE,128,0.0,3.0,83,0.00,,---,0.02,VWS V14.00,2013-01-10 09:52:00,
2013-01-10 03:53:00,48.0,43.1,30.15,SE,128,5.0,7.0,83,0.00,,---,0.02,VWS V14.00,2013-01-10 09:53:00,
2013-01-10 03:54:00,48.0,43.1,30.14,SE,128,0.0,9.0,83,0.00,,---,0.02,VWS V14.00,2013-01-10 09:54:00,
2013-01-10 03:55:00,47.9,43.0,30.14,SE,128,5.0,11.0,83,0.00,,---,0.02,VWS V14.00,2013-01-10 09:55:00,
2013-01-10 03:56:00,47.9,43.0,30.14,SE,129,4.0,16.0,83,0.00,,---,0.02,VWS V14.00,2013-01-10 09:56:00,
2013-01-10 03:57:00,47.9,43.0,30.14,SE,126,6.0,11.0,83,0.00,,---,0.02,VWS V14.00,2013-01-10 09:57:00,
2013-01-10 03:58:00,47.9,43.0,30.14,SE,126,0.0,10.0,83,0.00,,---,0.02,VWS V14.00,2013-01-10 09:58:00,
2013-01-10 03:59:00,47.9,43.0,30.15,SE,137,10.0,16.0,83,0.00,,---,0.02,VWS V14.00,2013-01-10 09:59:00,
2013-01-10 04:00:00,47.9,43.0,30.15,SE,137,14.0,14.0,83,0.00,,---,0.02,VWS V14.00,2013-01-10 10:00:00,
2013-01-10 04:01:00,47.7,43.1,30.15,SE,140,7.0,11.0,84,0.00,,---,0.02,VWS V14.00,2013-01-10 10:01:00,
2013-01-10 04:02:00,47.7,43.1,30.15,SSE,149,5.0,14.0,84,0.00,,---,0.02,VWS V14.00,2013-01-10 10:02:00,
2013-01-10 04:03:00,47.7,43.1,30.15,SE,142,1.0,11.0,84,0.00,,---,0.02,VWS V14.00,2013-01-10 10:03:00,
2013-01-10 04:04:00,47.7,43.1,30.15,SE,140,2.0,11.0,84,0.00,,---,0.02,VWS V14.00,2013-01-10 10:04:00,
2013-01-10 04:05:00,47.7,43.1,30.15,SE,140,0.0,13.0,84,0.00,,---,0.02,VWS V14.00,2013-01-10 10:05:00,
2013-01-10 04:06:00,47.6,43.0,30.15,SE,138,10.0,12.0,84,0.00,,---,0.02,VWS V14.00,2013-01-10 10:06:00,
2013-01-10 04:07:00,47.7,43.1,30.15,SE,140,10.0,12.0,84,0.00,,---,0.02,VWS V14.00,2013-01-10 10:07:00,
2013-01-10 04:08:00,47.7,43.1,30.15,SE,139,1.0,10.0,84,0.00,,---,0.02,VWS V14.00,2013-01-10 10:08:00,
2013-01-10 04:09:00,47.6,43.0,30.15,SE,138,5.0,12.0,84,0.00,,---,0.02,VWS V14.00,2013-01-10 10:09:00,
2013-01-10 04:10:00,47.6,43.0,30.14,SE,135,10.0,12.0,84,0.00,,---,0.02,VWS V14.00,2013-01-10 10:10:00,
2013-01-10 04:11:00,47.6,43.0,30.14,SE,135,2.0,10.0,84,0.00,,---,0.02,VWS V14.00,2013-01-10 10:11:00,
2013-01-10 04:12:00,47.6,43.0,30.14,SE,135,3.0,9.0,84,0.00,,---,0.02,VWS V14.00,2013-01-10 10:12:00,
2013-01-10 04:13:00,47.6,43.0,30.14,SE,135,9.0,9.0,84,0.00,,---,0.02,VWS V14.00,2013-01-10 10:13:00,
2013-01-10 04:14:00,47.6,43.0,30.14,SE,135,0.0,10.0,84,0.00,,---,0.02,VWS V14.00,2013-01-10 10:14:00,
2013-01-10 04:15:00,47.6,43.0,30.14,SE,135,3.0,6.0,84,0.00,,---,0.02,VWS V14.00,2013-01-10 10:15:00,
2013-01-10 04:16:00,47.4,42.8,30.13,SE,135,4.0,11.0,84,0.00,,---,0.02,VWS V14.00,2013-01-10 10:16:00,
2013-01-10 04:17:00,47.4,42.8,30.13,SE,140,10.0,12.0,84,0.00,,---,0.02,VWS V14.00,2013-01-10 10:17:00,
2013-01-10 04:18:00,47.4,42.8,30.13,SE,140,3.0,10.0,84,0.00,,---,0.02,VWS V14.00,2013-01-10 10:18:00,
2013-01-10 04:19:00,47.4,43.1,30.13,SE,130,10.0,11.0,85,0.00,,---,0.02,VWS V14.00,2013-01-10 10:19:00,
2013-01-10 04:20:00,47.4,43.1,30.13,SSE,155,11.0,11.0,85,0.00,,---,0.02,VWS V14.00,2013-01-10 10:20:00,
2013-01-10 04:21:00,47.3,43.0,30.13,SSE,153,11.0,12.0,85,0.00,,---,0.02,VWS V14.00,2013-01-10 10:21:00,
2013-01-10 04:22:00,47.4,43.1,30.13,SSE,153,6.0,12.0,85,0.00,,---,0.02,VWS V14.00,2013-01-10 10:22:00,
2013-01-10 04:23:00,47.4,43.1,30.13,SSE,153,9.0,9.0,85,0.00,,---,0.02,VWS V14.00,2013-01-10 10:23:00,
2013-01-10 04:24:00,47.3,43.0,30.13,SSE,153,10.0,12.0,85,0.00,,---,0.02,VWS V14.00,2013-01-10 10:24:00,
2013-01-10 04:25:00,47.3,43.0,30.13,SSE,148,5.0,10.0,85,0.00,,---,0.02,VWS V14.00,2013-01-10 10:25:00,
2013-01-10 04:26:00,47.1,42.8,30.14,SE,144,3.0,4.0,85,0.00,,---,0.02,VWS V14.00,2013-01-10 10:26:00,
2013-01-10 04:27:00,47.3,43.0,30.14,SE,145,5.0,11.0,85,0.00,,---,0.02,VWS V14.00,2013-01-10 10:27:00,
2013-01-10 04:28:00,47.3,43.0,30.14,SE,144,2.0,11.0,85,0.00,,---,0.02,VWS V14.00,2013-01-10 10:28:00,
2013-01-10 04:29:00,47.1,42.8,30.14,SE,144,2.0,4.0,85,0.00,,---,0.02,VWS V14.00,2013-01-10 10:29:00,
2013-01-10 04:30:00,47.1,42.8,30.14,SE,146,13.0,15.0,85,0.00,,---,0.02,VWS V14.00,2013-01-10 10:30:00,
2013-01-10 04:31:00,47.1,42.8,30.14,SE,145,5.0,6.0,85,0.00,,---,0.02,VWS V14.00,2013-01-10 10:31:00,
2013-01-10 04:32:00,47.1,42.8,30.14,SE,145,4.0,4.0,85,0.00,,---,0.02,VWS V14.00,2013-01-10 10:32:00,
2013-01-10 04:33:00,47.1,42.8,30.14,SE,145,0.0,4.0,85,0.00,,---,0.02,VWS V14.00,2013-01-10 10:33:00,
2013-01-10 04:34:00,47.1,42.8,30.14,SE,145,3.0,6.0,85,0.00,,---,0.02,VWS V14.00,2013-01-10 10:34:00,
2013-01-10 04:35:00,47.1,42.8,30.14,SE,144,4.0,9.0,85,0.00,,---,0.02,VWS V14.00,2013-01-10 10:35:00,
2013-01-10 04:36:00,47.0,43.0,30.14,SE,144,4.0,6.0,86,0.00,,---,0.02,VWS V14.00,2013-01-10 10:36:00,
2013-01-10 04:37:00,47.1,42.8,30.14,SE,144,1.0,5.0,85,0.00,,---,0.02,VWS V14.00,2013-01-10 10:37:00,
2013-01-10 04:38:00,47.0,43.0,30.14,SE,144,6.0,11.0,86,0.00,,---,0.02,VWS V14.00,2013-01-10 10:38:00,
2013-01-10 04:39:00,47.1,43.1,30.14,SE,144,2.0,6.0,86,0.00,,---,0.02,VWS V14.00,2013-01-10 10:39:00,
2013-01-10 04:40:00,47.0,43.0,30.14,SE,144,0.0,2.0,86,0.00,,---,0.02,VWS V14.00,2013-01-10 10:40:00,
2013-01-10 04:41:00,47.0,42.7,30.14,SE,144,6.0,7.0,85,0.00,,---,0.02,VWS V14.00,2013-01-10 10:41:00,
2013-01-10 04:42:00,47.0,43.0,30.14,SE,144,0.0,4.0,86,0.00,,---,0.02,VWS V14.00,2013-01-10 10:42:00,
2013-01-10 04:43:00,47.0,42.7,30.14,SE,144,0.0,0.0,85,0.00,,---,0.02,VWS V14.00,2013-01-10 10:43:00,
2013-01-10 04:44:00,47.0,42.7,30.14,SE,144,5.0,7.0,85,0.00,,---,0.02,VWS V14.00,2013-01-10 10:44:00,
2013-01-10 04:45:00,47.0,43.0,30.14,SE,144,0.0,5.0,86,0.00,,---,0.02,VWS V14.00,2013-01-10 10:45:00,
2013-01-10 04:46:00,47.0,42.7,30.13,SE,144,0.0,2.0,85,0.00,,---,0.02,VWS V14.00,2013-01-10 10:46:00,
2013-01-10 04:47:00,47.0,43.0,30.14,SE,144,6.0,10.0,86,0.00,,---,0.02,VWS V14.00,2013-01-10 10:47:00,
2013-01-10 04:48:00,47.0,43.0,30.13,SE,144,1.0,7.0,86,0.00,,---,0.02,VWS V14.00,2013-01-10 10:48:00,
2013-01-10 04:49:00,47.0,42.7,30.13,SE,144,1.0,2.0,85,0.00,,---,0.02,VWS V14.00,2013-01-10 10:49:00,
2013-01-10 04:50:00,47.0,42.7,30.14,SE,144,0.0,5.0,85,0.00,,---,0.02,VWS V14.00,2013-01-10 10:50:00,
2013-01-10 04:51:00,47.1,42.8,30.14,SE,144,9.0,9.0,85,0.00,,---,0.02,VWS V14.00,2013-01-10 10:51:00,
2013-01-10 04:52:00,47.1,42.8,30.14,SE,144,0.0,8.0,85,0.00,,---,0.02,VWS V14.00,2013-01-10 10:52:00,
2013-01-10 04:53:00,47.1,42.8,30.14,SE,144,7.0,8.0,85,0.00,,---,0.02,VWS V14.00,2013-01-10 10:53:00,
2013-01-10 04:54:00,47.1,42.8,30.14,SE,143,6.0,11.0,85,0.00,,---,0.02,VWS V14.00,2013-01-10 10:54:00,
2013-01-10 04:55:00,47.1,42.8,30.14,SE,143,9.0,9.0,85,0.00,,---,0.02,VWS V14.00,2013-01-10 10:55:00,
2013-01-10 04:56:00,47.1,42.8,30.14,SE,144,4.0,5.0,85,0.00,,---,0.02,VWS V14.00,2013-01-10 10:56:00,
2013-01-10 04:57:00,47.1,42.8,30.14,SE,143,0.0,9.0,85,0.00,,---,0.02,VWS V14.00,2013-01-10 10:57:00,
2013-01-10 04:58:00,47.1,42.8,30.14,SE,144,5.0,7.0,85,0.00,,---,0.02,VWS V14.00,2013-01-10 10:58:00,
2013-01-10 04:59:00,47.1,42.8,30.13,SE,144,4.0,6.0,85,0.00,,---,0.02,VWS V14.00,2013-01-10 10:59:00,
2013-01-10 05:00:00,47.1,42.8,30.13,SE,143,0.0,7.0,85,0.00,,---,0.02,VWS V14.00,2013-01-10 11:00:00,
2013-01-10 05:01:00,47.1,42.8,30.13,SE,142,7.0,7.0,85,0.00,,---,0.02,VWS V14.00,2013-01-10 11:01:00,
2013-01-10 05:02:00,47.1,42.8,30.13,SE,143,0.0,5.0,85,0.00,,---,0.02,VWS V14.00,2013-01-10 11:02:00,
2013-01-10 05:03:00,47.1,42.8,30.13,SE,142,5.0,8.0,85,0.00,,---,0.02,VWS V14.00,2013-01-10 11:03:00,
2013-01-10 05:04:00,47.1,42.8,30.13,SE,142,12.0,12.0,85,0.00,,---,0.02,VWS V14.00,2013-01-10 11:04:00,
2013-01-10 05:05:00,47.3,43.0,30.13,SE,141,2.0,12.0,85,0.00,,---,0.02,VWS V14.00,2013-01-10 11:05:00,
2013-01-10 05:06:00,47.1,42.8,30.13,SE,141,10.0,10.0,85,0.00,,---,0.02,VWS V14.00,2013-01-10 11:06:00,
2013-01-10 05:07:00,47.1,42.8,30.13,SE,141,9.0,10.0,85,0.00,,---,0.02,VWS V14.00,2013-01-10 11:07:00,
2013-01-10 05:08:00,47.1,42.8,30.13,SE,141,3.0,9.0,85,0.00,,---,0.02,VWS V14.00,2013-01-10 11:08:00,
2013-01-10 05:09:00,47.1,42.8,30.13,SE,141,5.0,10.0,85,0.00,,---,0.02,VWS V14.00,2013-01-10 11:09:00,
2013-01-10 05:10:00,47.1,42.8,30.13,SE,140,2.0,15.0,85,0.00,,---,0.02,VWS V14.00,2013-01-10 11:10:00,
2013-01-10 05:11:00,47.1,42.8,30.12,SE,140,4.0,4.0,85,0.00,,---,0.02,VWS V14.00,2013-01-10 11:11:00,
2013-01-10 05:12:00,47.1,42.8,30.12,SE,140,7.0,8.0,85,0.00,,---,0.02,VWS V14.00,2013-01-10 11:12:00,
2013-01-10 05:13:00,47.1,42.8,30.12,SE,140,3.0,7.0,85,0.00,,---,0.02,VWS V14.00,2013-01-10 11:13:00,
2013-01-10 05:14:00,47.1,42.8,30.13,SE,140,6.0,8.0,85,0.00,,---,0.02,VWS V14.00,2013-01-10 11:14:00,
2013-01-10 05:15:00,47.1,42.8,30.13,SE,140,2.0,9.0,85,0.00,,---,0.02,VWS V14.00,2013-01-10 11:15:00,
2013-01-10 05:16:00,47.1,42.8,30.12,SE,140,4.0,11.0,85,0.00,,---,0.02,VWS V14.00,2013-01-10 11:16:00,
2013-01-10 05:17:00,47.1,42.8,30.13,SE,140,5.0,7.0,85,0.00,,---,0.02,VWS V14.00,2013-01-10 11:17:00,
2013-01-10 05:18:00,47.1,42.8,30.12,SE,140,4.0,10.0,85,0.00,,---,0.02,VWS V14.00,2013-01-10 11:18:00,
2013-01-10 05:19:00,47.1,42.8,30.12,SE,140,3.0,11.0,85,0.00,,---,0.02,VWS V14.00,2013-01-10 11:19:00,
2013-01-10 05:20:00,47.1,42.8,30.12,SE,140,5.0,9.0,85,0.00,,---,0.02,VWS V14.00,2013-01-10 11:20:00,
2013-01-10 05:21:00,47.1,42.8,30.12,SE,140,5.0,6.0,85,0.00,,---,0.02,VWS V14.00,2013-01-10 11:21:00,
2013-01-10 05:22:00,47.1,42.8,30.12,SE,140,1.0,5.0,85,0.00,,---,0.02,VWS V14.00,2013-01-10 11:22:00,
2013-01-10 05:23:00,47.1,42.8,30.12,SE,140,2.0,7.0,85,0.00,,---,0.02,VWS V14.00,2013-01-10 11:23:00,
2013-01-10 05:24:00,47.1,42.8,30.12,SE,140,4.0,6.0,85,0.00,,---,0.02,VWS V14.00,2013-01-10 11:24:00,
2013-01-10 05:25:00,47.1,42.8,30.12,SE,140,4.0,6.0,85,0.00,,---,0.02,VWS V14.00,2013-01-10 11:25:00,
2013-01-10 05:26:00,47.1,42.8,30.12,SE,140,8.0,10.0,85,0.00,,---,0.02,VWS V14.00,2013-01-10 11:26:00,
2013-01-10 05:27:00,47.1,42.8,30.12,SE,140,6.0,9.0,85,0.00,,---,0.02,VWS V14.00,2013-01-10 11:27:00,
2013-01-10 05:28:00,47.1,42.8,30.12,SE,140,10.0,12.0,85,0.00,,---,0.02,VWS V14.00,2013-01-10 11:28:00,
2013-01-10 05:29:00,47.1,42.8,30.12,SE,141,13.0,13.0,85,0.00,,---,0.02,VWS V14.00,2013-01-10 11:29:00,
2013-01-10 05:30:00,47.1,42.8,30.12,SE,138,3.0,13.0,85,0.00,,---,0.02,VWS V14.00,2013-01-10 11:30:00,
2013-01-10 05:31:00,47.1,42.8,30.12,SE,140,4.0,11.0,85,0.00,,---,0.02,VWS V14.00,2013-01-10 11:31:00,
2013-01-10 05:32:00,47.1,42.8,30.12,SE,138,5.0,7.0,85,0.00,,---,0.02,VWS V14.00,2013-01-10 11:32:00,
2013-01-10 05:33:00,47.1,42.8,30.12,SE,139,2.0,14.0,85,0.00,,---,0.02,VWS V14.00,2013-01-10 11:33:00,
2013-01-10 05:34:00,47.1,42.8,30.12,SE,140,3.0,11.0,85,0.00,,---,0.02,VWS V14.00,2013-01-10 11:34:00,
2013-01-10 05:35:00,47.1,42.8,30.12,SE,140,6.0,9.0,85,0.00,,---,0.02,VWS V14.00,2013-01-10 11:35:00,
2013-01-10 05:36:00,47.1,42.8,30.12,SE,140,10.0,10.0,85,0.00,,---,0.02,VWS V14.00,2013-01-10 11:36:00,
2013-01-10 05:37:00,47.1,42.8,30.12,SE,140,7.0,11.0,85,0.00,,---,0.02,VWS V14.00,2013-01-10 11:37:00,
2013-01-10 05:38:00,47.1,42.8,30.12,SE,140,2.0,12.0,85,0.00,,---,0.02,VWS V14.00,2013-01-10 11:38:00,
2013-01-10 05:39:00,47.1,42.8,30.12,SE,140,6.0,10.0,85,0.00,,---,0.02,VWS V14.00,2013-01-10 11:39:00,
2013-01-10 05:40:00,47.1,42.8,30.12,SE,140,3.0,13.0,85,0.00,,---,0.02,VWS V14.00,2013-01-10 11:40:00,
2013-01-10 05:41:00,47.1,42.8,30.12,SE,140,4.0,10.0,85,0.00,,---,0.02,VWS V14.00,2013-01-10 11:41:00,
2013-01-10 05:42:00,47.1,42.8,30.12,SE,140,5.0,11.0,85,0.00,,---,0.02,VWS V14.00,2013-01-10 11:42:00,
2013-01-10 05:43:00,47.1,42.8,30.12,SE,140,7.0,7.0,85,0.00,,---,0.02,VWS V14.00,2013-01-10 11:43:00,
2013-01-10 05:44:00,47.1,42.8,30.11,SE,140,7.0,10.0,85,0.00,,---,0.02,VWS V14.00,2013-01-10 11:44:00,
2013-01-10 05:45:00,47.1,42.8,30.11,SE,140,3.0,10.0,85,0.00,,---,0.02,VWS V14.00,2013-01-10 11:45:00,
2013-01-10 05:46:00,47.1,42.8,30.11,SE,138,7.0,7.0,85,0.00,,---,0.02,VWS V14.00,2013-01-10 11:46:00,
2013-01-10 05:47:00,47.1,42.8,30.11,SE,140,12.0,12.0,85,0.00,,---,0.02,VWS V14.00,2013-01-10 11:47:00,
2013-01-10 05:48:00,47.1,42.8,30.11,SE,138,0.0,13.0,85,0.00,,---,0.02,VWS V14.00,2013-01-10 11:48:00,
2013-01-10 05:49:00,47.1,42.8,30.11,SE,138,9.0,11.0,85,0.00,,---,0.02,VWS V14.00,2013-01-10 11:49:00,
2013-01-10 05:50:00,47.1,42.8,30.11,SE,138,2.0,9.0,85,0.00,,---,0.02,VWS V14.00,2013-01-10 11:50:00,
2013-01-10 05:51:00,47.1,42.8,30.11,SE,138,5.0,10.0,85,0.00,,---,0.02,VWS V14.00,2013-01-10 11:51:00,
2013-01-10 05:52:00,47.1,42.8,30.11,SE,138,6.0,13.0,85,0.00,,---,0.02,VWS V14.00,2013-01-10 11:52:00,
2013-01-10 05:53:00,47.1,42.8,30.11,SE,138,6.0,8.0,85,0.00,,---,0.02,VWS V14.00,2013-01-10 11:53:00,
2013-01-10 05:54:00,47.1,42.8,30.11,SE,138,4.0,10.0,85,0.00,,---,0.02,VWS V14.00,2013-01-10 11:54:00,
2013-01-10 05:55:00,47.1,42.8,30.11,SE,138,0.0,4.0,85,0.00,,---,0.02,VWS V14.00,2013-01-10 11:55:00,
2013-01-10 05:56:00,47.0,43.0,30.11,SE,139,7.0,13.0,86,0.00,,---,0.02,VWS V14.00,2013-01-10 11:56:00,
2013-01-10 05:57:00,47.0,42.7,30.11,SE,139,4.0,7.0,85,0.00,,---,0.02,VWS V14.00,2013-01-10 11:57:00,
2013-01-10 05:58:00,47.0,43.0,30.11,SE,139,3.0,7.0,86,0.00,,---,0.02,VWS V14.00,2013-01-10 11:58:00,
2013-01-10 05:59:00,47.0,43.0,30.11,SE,139,3.0,13.0,86,0.00,,---,0.02,VWS V14.00,2013-01-10 11:59:00,
2013-01-10 06:00:00,47.0,43.0,30.10,SE,139,4.0,5.0,86,0.00,,---,0.02,VWS V14.00,2013-01-10 12:00:00,
2013-01-10 06:01:00,47.0,43.0,30.10,SE,140,7.0,12.0,86,0.00,,---,0.02,VWS V14.00,2013-01-10 12:01:00,
2013-01-10 06:02:00,47.0,43.0,30.10,SE,140,10.0,10.0,86,0.00,,---,0.02,VWS V14.00,2013-01-10 12:02:00,
2013-01-10 06:03:00,47.0,43.0,30.10,SE,140,9.0,11.0,86,0.00,,---,0.02,VWS V14.00,2013-01-10 12:03:00,
2013-01-10 06:04:00,47.0,43.0,30.10,SE,140,2.0,12.0,86,0.00,,---,0.02,VWS V14.00,2013-01-10 12:04:00,
2013-01-10 06:05:00,47.0,43.0,30.10,SE,140,1.0,11.0,86,0.00,,---,0.02,VWS V14.00,2013-01-10 12:05:00,
2013-01-10 06:06:00,47.0,43.0,30.10,SE,142,4.0,12.0,86,0.00,,---,0.02,VWS V14.00,2013-01-10 12:06:00,
2013-01-10 06:07:00,47.0,43.0,30.10,SE,140,6.0,12.0,86,0.00,,---,0.02,VWS V14.00,2013-01-10 12:07:00,
2013-01-10 06:08:00,47.0,43.0,30.10,SE,140,4.0,6.0,86,0.00,,---,0.02,VWS V14.00,2013-01-10 12:08:00,
2013-01-10 06:09:00,47.0,43.0,30.10,SE,142,4.0,12.0,86,0.00,,---,0.02,VWS V14.00,2013-01-10 12:09:00,
2013-01-10 06:10:00,47.0,43.0,30.10,SE,142,5.0,8.0,86,0.00,,---,0.02,VWS V14.00,2013-01-10 12:10:00,
2013-01-10 06:11:00,47.0,43.0,30.10,SE,141,3.0,11.0,86,0.00,,---,0.02,VWS V14.00,2013-01-10 12:11:00,
2013-01-10 06:12:00,47.0,43.0,30.10,SE,142,6.0,11.0,86,0.00,,---,0.02,VWS V14.00,2013-01-10 12:12:00,
2013-01-10 06:13:00,47.0,43.0,30.10,SE,141,7.0,12.0,86,0.00,,---,0.02,VWS V14.00,2013-01-10 12:13:00,
2013-01-10 06:14:00,47.0,43.0,30.10,SE,141,3.0,11.0,86,0.00,,---,0.02,VWS V14.00,2013-01-10 12:14:00,
2013-01-10 06:15:00,47.0,43.0,30.10,SE,141,7.0,11.0,86,0.00,,---,0.02,VWS V14.00,2013-01-10 12:15:00,
2013-01-10 06:16:00,47.0,43.0,30.10,ESE,115,5.0,6.0,86,0.00,,---,0.02,VWS V14.00,2013-01-10 12:16:00,
2013-01-10 06:17:00,47.0,43.0,30.10,SE,141,9.0,9.0,86,0.00,,---,0.02,VWS V14.00,2013-01-10 12:17:00,
2013-01-10 06:18:00,47.0,43.0,30.10,ESE,115,5.0,11.0,86,0.00,,---,0.02,VWS V14.00,2013-01-10 12:18:00,
2013-01-10 06:19:00,47.0,43.0,30.10,ESE,115,3.0,6.0,86,0.00,,---,0.02,VWS V14.00,2013-01-10 12:19:00,
2013-01-10 06:20:00,47.0,43.0,30.10,SE,139,5.0,13.0,86,0.00,,---,0.02,VWS V14.00,2013-01-10 12:20:00,
2013-01-10 06:21:00,47.0,43.0,30.10,SE,140,13.0,13.0,86,0.00,,---,0.02,VWS V14.00,2013-01-10 12:21:00,
2013-01-10 06:22:00,47.0,43.0,30.10,SE,134,5.0,11.0,86,0.00,,---,0.02,VWS V14.00,2013-01-10 12:22:00,
2013-01-10 06:23:00,47.0,43.0,30.10,SE,133,6.0,15.0,86,0.00,,---,0.02,VWS V14.00,2013-01-10 12:23:00,
2013-01-10 06:24:00,47.0,43.0,30.10,SE,139,7.0,13.0,86,0.00,,---,0.02,VWS V14.00,2013-01-10 12:24:00,
2013-01-10 06:25:00,47.0,43.0,30.10,SE,138,10.0,12.0,86,0.00,,---,0.02,VWS V14.00,2013-01-10 12:25:00,
2013-01-10 06:26:00,47.0,43.3,30.09,SE,136,10.0,10.0,87,0.00,,---,0.02,VWS V14.00,2013-01-10 12:26:00,
2013-01-10 06:27:00,47.0,43.3,30.09,SE,145,6.0,12.0,87,0.00,,---,0.02,VWS V14.00,2013-01-10 12:27:00,
2013-01-10 06:28:00,47.0,43.3,30.09,SE,136,3.0,11.0,87,0.00,,---,0.02,VWS V14.00,2013-01-10 12:28:00,
2013-01-10 06:29:00,47.0,43.3,30.09,SE,141,11.0,16.0,87,0.00,,---,0.02,VWS V14.00,2013-01-10 12:29:00,
2013-01-10 06:30:00,47.0,43.3,30.10,SE,142,7.0,12.0,87,0.00,,---,0.02,VWS V14.00,2013-01-10 12:30:00,
2013-01-10 06:31:00,47.0,43.3,30.09,SE,143,2.0,8.0,87,0.00,,---,0.02,VWS V14.00,2013-01-10 12:31:00,
2013-01-10 06:32:00,47.0,43.3,30.09,SE,139,6.0,9.0,87,0.00,,---,0.02,VWS V14.00,2013-01-10 12:32:00,
2013-01-10 06:33:00,47.0,43.3,30.09,SE,143,6.0,12.0,87,0.00,,---,0.02,VWS V14.00,2013-01-10 12:33:00,
2013-01-10 06:34:00,47.0,43.3,30.09,SE,143,3.0,8.0,87,0.00,,---,0.02,VWS V14.00,2013-01-10 12:34:00,
2013-01-10 06:35:00,47.0,43.3,30.09,SE,143,11.0,11.0,87,0.00,,---,0.02,VWS V14.00,2013-01-10 12:35:00,
2013-01-10 06:36:00,47.0,43.3,30.09,SE,136,5.0,11.0,87,0.00,,---,0.02,VWS V14.00,2013-01-10 12:36:00,
2013-01-10 06:37:00,47.0,43.3,30.09,SE,136,12.0,17.0,87,0.00,,---,0.02,VWS V14.00,2013-01-10 12:37:00,
2013-01-10 06:38:00,47.0,43.3,30.09,SE,136,7.0,12.0,87,0.00,,---,0.02,VWS V14.00,2013-01-10 12:38:00,
2013-01-10 06:39:00,47.0,43.3,30.09,SE,136,6.0,11.0,87,0.00,,---,0.02,VWS V14.00,2013-01-10 12:39:00,
2013-01-10 06:40:00,47.0,43.3,30.09,SE,136,3.0,12.0,87,0.00,,---,0.02,VWS V14.00,2013-01-10 12:40:00,
2013-01-10 06:41:00,47.0,43.3,30.10,SE,136,7.0,9.0,87,0.00,,---,0.02,VWS V14.00,2013-01-10 12:41:00,
2013-01-10 06:42:00,47.0,43.3,30.10,SE,136,1.0,6.0,87,0.00,,---,0.02,VWS V14.00,2013-01-10 12:42:00,
2013-01-10 06:43:00,47.0,43.3,30.10,SE,136,0.0,2.0,87,0.00,,---,0.02,VWS V14.00,2013-01-10 12:43:00,
2013-01-10 06:44:00,47.0,43.3,30.10,SE,136,6.0,9.0,87,0.00,,---,0.02,VWS V14.00,2013-01-10 12:44:00,
2013-01-10 06:45:00,47.0,43.3,30.10,SE,136,5.0,10.0,87,0.00,,---,0.02,VWS V14.00,2013-01-10 12:45:00,
2013-01-10 06:46:00,47.0,43.3,30.09,SE,136,0.0,0.0,87,0.00,,---,0.02,VWS V14.00,2013-01-10 12:46:00,
2013-01-10 06:47:00,47.0,43.3,30.09,SE,136,0.0,0.0,87,0.00,,---,0.02,VWS V14.00,2013-01-10 12:47:00,
2013-01-10 06:48:00,47.0,43.3,30.09,SE,136,0.0,0.0,87,0.00,,---,0.02,VWS V14.00,2013-01-10 12:48:00,
2013-01-10 06:49:00,47.0,43.3,30.09,SE,136,0.0,0.0,87,0.00,,---,0.02,VWS V14.00,2013-01-10 12:49:00,
2013-01-10 06:50:00,47.0,43.3,30.09,SE,136,0.0,0.0,87,0.00,,---,0.02,VWS V14.00,2013-01-10 12:50:00,
2013-01-10 06:51:00,47.0,43.3,30.09,SE,136,0.0,1.0,87,0.00,,---,0.02,VWS V14.00,2013-01-10 12:51:00,
2013-01-10 06:52:00,47.0,43.3,30.09,SE,136,4.0,4.0,87,0.00,,---,0.02,VWS V14.00,2013-01-10 12:52:00,
2013-01-10 06:53:00,47.0,43.3,30.09,SE,136,0.0,6.0,87,0.00,,---,0.02,VWS V14.00,2013-01-10 12:53:00,
2013-01-10 06:54:00,47.0,43.3,30.09,SE,136,0.0,1.0,87,0.00,,---,0.02,VWS V14.00,2013-01-10 12:54:00,
2013-01-10 06:55:00,47.0,43.3,30.09,SE,136,0.0,0.0,87,0.00,,---,0.02,VWS V14.00,2013-01-10 12:55:00,
2013-01-10 06:56:00,47.0,43.3,30.09,SE,136,1.0,6.0,87,0.00,,---,0.02,VWS V14.00,2013-01-10 12:56:00,
2013-01-10 06:57:00,47.0,43.3,30.09,SE,136,0.0,1.0,87,0.00,,---,0.02,VWS V14.00,2013-01-10 12:57:00,
2013-01-10 06:58:00,47.0,43.3,30.09,SE,136,5.0,5.0,87,0.00,,---,0.02,VWS V14.00,2013-01-10 12:58:00,
2013-01-10 06:59:00,47.0,43.3,30.09,SE,136,0.0,6.0,87,0.00,,---,0.02,VWS V14.00,2013-01-10 12:59:00,
2013-01-10 07:00:00,47.0,43.3,30.09,SE,136,0.0,2.0,87,0.00,,---,0.02,VWS V14.00,2013-01-10 13:00:00,
2013-01-10 07:01:00,47.0,43.3,30.09,SE,136,3.0,3.0,87,0.00,,---,0.02,VWS V14.00,2013-01-10 13:01:00,
2013-01-10 07:02:00,47.0,43.3,30.09,SE,136,0.0,0.0,87,0.00,,---,0.02,VWS V14.00,2013-01-10 13:02:00,
2013-01-10 07:03:00,47.0,43.3,30.09,SE,136,0.0,0.0,87,0.00,,---,0.02,VWS V14.00,2013-01-10 13:03:00,
2013-01-10 07:04:00,47.1,43.4,30.09,SE,136,2.0,4.0,87,0.00,,---,0.02,VWS V14.00,2013-01-10 13:04:00,
2013-01-10 07:05:00,47.1,43.4,30.09,SE,136,4.0,4.0,87,0.00,,---,0.02,VWS V14.00,2013-01-10 13:05:00,
2013-01-10 07:06:00,47.1,43.4,30.08,SE,136,6.0,9.0,87,0.00,,---,0.02,VWS V14.00,2013-01-10 13:06:00,
2013-01-10 07:07:00,47.1,43.4,30.08,SE,136,0.0,5.0,87,0.00,,---,0.02,VWS V14.00,2013-01-10 13:07:00,
2013-01-10 07:08:00,47.1,43.4,30.08,SE,136,5.0,5.0,87,0.00,,---,0.02,VWS V14.00,2013-01-10 13:08:00,
2013-01-10 07:09:00,47.1,43.4,30.08,SE,136,4.0,9.0,87,0.00,,---,0.02,VWS V14.00,2013-01-10 13:09:00,
2013-01-10 07:10:00,47.1,43.4,30.08,SE,136,3.0,5.0,87,0.00,,---,0.02,VWS V14.00,2013-01-10 13:10:00,
2013-01-10 07:11:00,47.3,43.9,30.09,SE,137,8.0,10.0,88,0.00,,---,0.02,VWS V14.00,2013-01-10 13:11:00,
2013-01-10 07:12:00,47.3,43.9,30.09,SE,137,7.0,16.0,88,0.00,,---,0.02,VWS V14.00,2013-01-10 13:12:00,
2013-01-10 07:13:00,47.3,43.9,30.09,SE,137,7.0,11.0,88,0.00,,---,0.02,VWS V14.00,2013-01-10 13:13:00,
2013-01-10 07:14:00,47.3,43.9,30.09,SE,137,7.0,10.0,88,0.00,,---,0.02,VWS V14.00,2013-01-10 13:14:00,
2013-01-10 07:15:00,47.3,43.9,30.09,SE,137,7.0,11.0,88,0.00,,---,0.02,VWS V14.00,2013-01-10 13:15:00,
2013-01-10 07:16:00,47.3,43.9,30.08,SE,137,10.0,12.0,88,0.00,,---,0.02,VWS V14.00,2013-01-10 13:16:00,
2013-01-10 07:17:00,47.3,43.9,30.08,SE,136,6.0,8.0,88,0.00,,---,0.02,VWS V14.00,2013-01-10 13:17:00,
2013-01-10 07:18:00,47.3,43.9,30.08,SE,136,5.0,13.0,88,0.00,,---,0.02,VWS V14.00,2013-01-10 13:18:00,
2013-01-10 07:19:00,47.3,43.9,30.08,SE,136,4.0,12.0,88,0.00,,---,0.02,VWS V14.00,2013-01-10 13:19:00,
2013-01-10 07:20:00,47.3,43.9,30.08,SE,136,4.0,12.0,88,0.00,,---,0.02,VWS V14.00,2013-01-10 13:20:00,
2013-01-10 07:21:00,47.4,44.0,30.08,SE,136,3.0,15.0,88,0.00,,---,0.02,VWS V14.00,2013-01-10 13:21:00,
2013-01-10 07:22:00,47.3,43.9,30.08,SE,135,6.0,10.0,88,0.00,,---,0.02,VWS V14.00,2013-01-10 13:22:00,
2013-01-10 07:23:00,47.3,43.9,30.08,SE,138,12.0,12.0,88,0.00,,---,0.02,VWS V14.00,2013-01-10 13:23:00,
2013-01-10 07:24:00,47.4,44.0,30.08,SE,135,3.0,15.0,88,0.00,,---,0.02,VWS V14.00,2013-01-10 13:24:00,
2013-01-10 07:25:00,47.4,44.0,30.08,SE,135,7.0,7.0,88,0.00,,---,0.02,VWS V14.00,2013-01-10 13:25:00,
2013-01-10 07:26:00,47.4,44.0,30.07,SE,135,8.0,8.0,88,0.00,,---,0.02,VWS V14.00,2013-01-10 13:26:00,
2013-01-10 07:27:00,47.4,44.0,30.08,SE,135,3.0,5.0,88,0.00,,---,0.02,VWS V14.00,2013-01-10 13:27:00,
2013-01-10 07:28:00,47.4,44.0,30.07,SE,135,4.0,9.0,88,0.00,,---,0.02,VWS V14.00,2013-01-10 13:28:00,
2013-01-10 07:29:00,47.4,44.0,30.07,SE,135,7.0,9.0,88,0.00,,---,0.02,VWS V14.00,2013-01-10 13:29:00,
2013-01-10 07:30:00,47.4,44.0,30.07,SE,135,0.0,10.0,88,0.00,,---,0.02,VWS V14.00,2013-01-10 13:30:00,
2013-01-10 07:31:00,47.4,44.0,30.07,SE,135,0.0,9.0,88,0.00,,---,0.02,VWS V14.00,2013-01-10 13:31:00,
2013-01-10 07:32:00,47.4,44.0,30.07,SE,135,0.0,5.0,88,0.00,,---,0.02,VWS V14.00,2013-01-10 13:32:00,
2013-01-10 07:33:00,47.4,44.0,30.07,SE,135,6.0,10.0,88,0.00,,---,0.02,VWS V14.00,2013-01-10 13:33:00,
2013-01-10 07:34:00,47.4,44.0,30.07,SE,135,9.0,9.0,88,0.00,,---,0.02,VWS V14.00,2013-01-10 13:34:00,
2013-01-10 07:35:00,47.4,44.0,30.07,SE,135,2.0,9.0,88,0.00,,---,0.02,VWS V14.00,2013-01-10 13:35:00,
2013-01-10 07:36:00,47.4,44.0,30.07,SE,135,10.0,10.0,88,0.00,,---,0.02,VWS V14.00,2013-01-10 13:36:00,
2013-01-10 07:37:00,47.4,44.0,30.07,SE,135,5.0,5.0,88,0.00,,---,0.02,VWS V14.00,2013-01-10 13:37:00,
2013-01-10 07:38:00,47.4,44.0,30.07,SE,135,8.0,8.0,88,0.00,,---,0.02,VWS V14.00,2013-01-10 13:38:00,
2013-01-10 07:39:00,47.4,44.0,30.07,SE,136,4.0,10.0,88,0.00,,---,0.02,VWS V14.00,2013-01-10 13:39:00,
2013-01-10 07:40:00,47.4,44.0,30.07,SE,133,9.0,11.0,88,0.00,,---,0.02,VWS V14.00,2013-01-10 13:40:00,
2013-01-10 07:41:00,47.6,44.2,30.08,SE,134,9.0,11.0,88,0.00,,---,0.02,VWS V14.00,2013-01-10 13:41:00,
2013-01-10 07:42:00,47.4,44.0,30.07,SE,134,7.0,12.0,88,0.00,,---,0.02,VWS V14.00,2013-01-10 13:42:00,
2013-01-10 07:43:00,47.6,44.2,30.08,SE,134,6.0,10.0,88,0.00,,---,0.02,VWS V14.00,2013-01-10 13:43:00,
2013-01-10 07:44:00,47.6,44.2,30.07,SE,134,6.0,11.0,88,0.00,,---,0.02,VWS V14.00,2013-01-10 13:44:00,
2013-01-10 07:45:00,47.6,44.2,30.07,SE,137,17.0,18.0,88,0.00,,---,0.02,VWS V14.00,2013-01-10 13:45:00,
2013-01-10 07:46:00,47.6,44.2,30.08,SE,140,5.0,14.0,88,0.00,,---,0.02,VWS V14.00,2013-01-10 13:46:00,
2013-01-10 07:47:00,47.6,44.2,30.07,SE,139,11.0,15.0,88,0.00,,---,0.02,VWS V14.00,2013-01-10 13:47:00,
2013-01-10 07:48:00,47.6,44.2,30.08,SE,138,3.0,11.0,88,0.00,,---,0.02,VWS V14.00,2013-01-10 13:48:00,
2013-01-10 07:49:00,47.6,44.2,30.08,SE,140,5.0,14.0,88,0.00,,---,0.02,VWS V14.00,2013-01-10 13:49:00,
2013-01-10 07:50:00,47.6,44.2,30.08,SE,142,11.0,14.0,88,0.00,,---,0.02,VWS V14.00,2013-01-10 13:50:00,
2013-01-10 07:51:00,47.6,44.2,30.07,SE,138,11.0,15.0,88,0.00,,---,0.02,VWS V14.00,2013-01-10 13:51:00,
2013-01-10 07:52:00,47.6,44.2,30.07,SE,130,4.0,12.0,88,0.00,,---,0.02,VWS V14.00,2013-01-10 13:52:00,
2013-01-10 07:53:00,47.6,44.2,30.07,SE,132,5.0,13.0,88,0.00,,---,0.02,VWS V14.00,2013-01-10 13:53:00,
2013-01-10 07:54:00,47.6,44.2,30.07,SE,139,11.0,17.0,88,0.00,,---,0.02,VWS V14.00,2013-01-10 13:54:00,
2013-01-10 07:55:00,47.7,44.3,30.07,SE,138,10.0,16.0,88,0.00,,---,0.02,VWS V14.00,2013-01-10 13:55:00,
2013-01-10 07:56:00,47.7,44.3,30.08,SE,130,8.0,10.0,88,0.00,,---,0.02,VWS V14.00,2013-01-10 13:56:00,
2013-01-10 07:57:00,47.7,44.3,30.08,SE,128,7.0,13.0,88,0.00,,---,0.02,VWS V14.00,2013-01-10 13:57:00,
2013-01-10 07:58:00,47.7,44.3,30.08,SE,130,9.0,10.0,88,0.00,,---,0.02,VWS V14.00,2013-01-10 13:58:00,
2013-01-10 07:59:00,47.7,44.3,30.08,SE,130,12.0,13.0,88,0.00,,---,0.02,VWS V14.00,2013-01-10 13:59:00,
2013-01-10 08:00:00,47.7,44.3,30.08,SE,138,9.0,12.0,88,0.00,,---,0.02,VWS V14.00,2013-01-10 14:00:00,
2013-01-10 08:01:00,47.7,44.3,30.08,SE,139,13.0,14.0,88,0.00,,---,0.02,VWS V14.00,2013-01-10 14:01:00,
2013-01-10 08:02:00,47.7,44.3,30.08,SE,142,11.0,17.0,88,0.00,,---,0.02,VWS V14.00,2013-01-10 14:02:00,
2013-01-10 08:03:00,47.7,44.3,30.08,SE,138,7.0,14.0,88,0.00,,---,0.02,VWS V14.00,2013-01-10 14:03:00,
2013-01-10 08:04:00,47.7,44.3,30.08,SE,138,6.0,14.0,88,0.00,,---,0.02,VWS V14.00,2013-01-10 14:04:00,
2013-01-10 08:05:00,47.9,44.5,30.08,SE,138,6.0,13.0,88,0.00,,---,0.02,VWS V14.00,2013-01-10 14:05:00,
2013-01-10 08:06:00,47.9,44.5,30.08,SE,129,17.0,17.0,88,0.00,,---,0.02,VWS V14.00,2013-01-10 14:06:00,
2013-01-10 08:07:00,47.9,44.5,30.08,SE,127,4.0,15.0,88,0.00,,---,0.02,VWS V14.00,2013-01-10 14:07:00,
2013-01-10 08:08:00,47.9,44.5,30.08,SE,135,6.0,14.0,88,0.00,,---,0.02,VWS V14.00,2013-01-10 14:08:00,
2013-01-10 08:09:00,47.9,44.5,30.08,SE,130,12.0,17.0,88,0.00,,---,0.02,VWS V14.00,2013-01-10 14:09:00,
2013-01-10 08:10:00,47.9,44.5,30.08,SE,130,9.0,12.0,88,0.00,,---,0.02,VWS V14.00,2013-01-10 14:10:00,
2013-01-10 08:11:00,47.9,44.2,30.08,SE,134,11.0,15.0,87,0.00,,---,0.02,VWS V14.00,2013-01-10 14:11:00,
2013-01-10 08:12:00,47.9,44.2,30.08,SE,134,15.0,15.0,87,0.00,,---,0.02,VWS V14.00,2013-01-10 14:12:00,
2013-01-10 08:13:00,47.9,44.2,30.08,SE,132,10.0,15.0,87,0.00,,---,0.02,VWS V14.00,2013-01-10 14:13:00,
2013-01-10 08:14:00,47.9,44.2,30.08,SE,135,6.0,15.0,87,0.00,,---,0.02,VWS V14.00,2013-01-10 14:14:00,
2013-01-10 08:15:00,48.0,44.3,30.08,SE,128,10.0,19.0,87,0.00,,---,0.02,VWS V14.00,2013-01-10 14:15:00,
2013-01-10 08:16:00,48.0,44.3,30.08,SE,133,6.0,15.0,87,0.00,,---,0.02,VWS V14.00,2013-01-10 14:16:00,
2013-01-10 08:17:00,48.0,44.3,30.08,SE,131,6.0,14.0,87,0.00,,---,0.02,VWS V14.00,2013-01-10 14:17:00,
2013-01-10 08:18:00,48.0,44.3,30.08,SE,136,14.0,14.0,87,0.00,,---,0.02,VWS V14.00,2013-01-10 14:18:00,
2013-01-10 08:19:00,48.0,44.3,30.08,SE,134,10.0,15.0,87,0.00,,---,0.02,VWS V14.00,2013-01-10 14:19:00,
2013-01-10 08:20:00,48.0,44.3,30.08,SE,134,6.0,13.0,87,0.00,,---,0.02,VWS V14.00,2013-01-10 14:20:00,
2013-01-10 08:21:00,48.0,44.3,30.08,SE,133,7.0,11.0,87,0.00,,---,0.02,VWS V14.00,2013-01-10 14:21:00,
2013-01-10 08:22:00,48.0,44.3,30.08,SE,134,4.0,10.0,87,0.00,,---,0.02,VWS V14.00,2013-01-10 14:22:00,
2013-01-10 08:23:00,48.0,44.3,30.08,SE,133,7.0,13.0,87,0.00,,---,0.02,VWS V14.00,2013-01-10 14:23:00,
2013-01-10 08:24:00,48.0,44.3,30.08,SE,133,7.0,11.0,87,0.00,,---,0.02,VWS V14.00,2013-01-10 14:24:00,
2013-01-10 08:25:00,48.0,44.3,30.08,SE,132,11.0,11.0,87,0.00,,---,0.02,VWS V14.00,2013-01-10 14:25:00,
2013-01-10 08:26:00,47.9,44.5,30.08,SE,136,8.0,9.0,88,0.00,,---,0.02,VWS V14.00,2013-01-10 14:26:00,
2013-01-10 08:27:00,47.9,44.5,30.08,SE,137,4.0,11.0,88,0.00,,---,0.02,VWS V14.00,2013-01-10 14:27:00,
2013-01-10 08:28:00,47.9,44.5,30.08,SE,136,5.0,11.0,88,0.00,,---,0.02,VWS V14.00,2013-01-10 14:28:00,
2013-01-10 08:29:00,47.9,44.5,30.08,SE,136,6.0,9.0,88,0.00,,---,0.02,VWS V14.00,2013-01-10 14:29:00,
2013-01-10 08:30:00,47.7,44.3,30.08,SE,136,10.0,11.0,88,0.00,,---,0.02,VWS V14.00,2013-01-10 14:30:00,
2013-01-10 08:31:00,47.7,44.3,30.08,SE,136,6.0,12.0,88,0.00,,---,0.02,VWS V14.00,2013-01-10 14:31:00,
2013-01-10 08:32:00,47.7,44.3,30.08,SE,135,9.0,9.0,88,0.00,,---,0.02,VWS V14.00,2013-01-10 14:32:00,
2013-01-10 08:33:00,47.7,44.3,30.08,SE,135,6.0,9.0,88,0.00,,---,0.02,VWS V14.00,2013-01-10 14:33:00,
2013-01-10 08:34:00,47.7,44.3,30.08,SE,135,2.0,12.0,88,0.00,,---,0.02,VWS V14.00,2013-01-10 14:34:00,
2013-01-10 08:35:00,47.7,44.3,30.08,SE,136,6.0,7.0,88,0.00,,---,0.02,VWS V14.00,2013-01-10 14:35:00,
2013-01-10 08:36:00,47.7,44.6,30.08,SE,134,6.0,11.0,89,0.00,,---,0.02,VWS V14.00,2013-01-10 14:36:00,
2013-01-10 08:37:00,47.7,44.6,30.08,SE,134,2.0,12.0,89,0.00,,---,0.02,VWS V14.00,2013-01-10 14:37:00,
2013-01-10 08:38:00,47.7,44.6,30.08,SE,135,5.0,6.0,89,0.00,,---,0.02,VWS V14.00,2013-01-10 14:38:00,
2013-01-10 08:39:00,47.7,44.6,30.08,SE,134,7.0,12.0,89,0.00,,---,0.02,VWS V14.00,2013-01-10 14:39:00,
2013-01-10 08:40:00,47.7,44.6,30.08,SE,134,3.0,7.0,89,0.00,,---,0.02,VWS V14.00,2013-01-10 14:40:00,
2013-01-10 08:41:00,47.6,44.5,30.08,SE,125,9.0,12.0,89,0.00,,---,0.02,VWS V14.00,2013-01-10 14:41:00,
2013-01-10 08:42:00,47.6,44.5,30.08,ESE,121,4.0,14.0,89,0.00,,---,0.02,VWS V14.00,2013-01-10 14:42:00,
2013-01-10 08:43:00,47.6,44.5,30.08,ESE,122,10.0,10.0,89,0.00,,---,0.02,VWS V14.00,2013-01-10 14:43:00,
2013-01-10 08:44:00,47.6,44.5,30.08,SE,124,4.0,12.0,89,0.00,,---,0.02,VWS V14.00,2013-01-10 14:44:00,
2013-01-10 08:45:00,47.6,44.5,30.08,SE,130,7.0,11.0,89,0.00,,---,0.02,VWS V14.00,2013-01-10 14:45:00,
2013-01-10 08:46:00,47.6,44.5,30.08,SE,130,3.0,7.0,89,0.00,,---,0.02,VWS V14.00,2013-01-10 14:46:00,
2013-01-10 08:47:00,47.6,44.5,30.08,SE,130,7.0,12.0,89,0.00,,---,0.02,VWS V14.00,2013-01-10 14:47:00,
2013-01-10 08:48:00,47.6,44.5,30.08,SE,130,5.0,7.0,89,0.00,,---,0.02,VWS V14.00,2013-01-10 14:48:00,
2013-01-10 08:49:00,47.6,44.5,30.08,SE,130,7.0,9.0,89,0.00,,---,0.02,VWS V14.00,2013-01-10 14:49:00,
2013-01-10 08:50:00,47.6,44.5,30.08,SE,134,16.0,17.0,89,0.00,,---,0.02,VWS V14.00,2013-01-10 14:50:00,
2013-01-10 08:51:00,47.6,44.5,30.08,SE,136,12.0,12.0,89,0.00,,---,0.02,VWS V14.00,2013-01-10 14:51:00,
2013-01-10 08:52:00,47.6,44.5,30.08,SE,128,2.0,15.0,89,0.00,,---,0.02,VWS V14.00,2013-01-10 14:52:00,
2013-01-10 08:53:00,47.6,44.5,30.08,SE,137,12.0,13.0,89,0.00,,---,0.02,VWS V14.00,2013-01-10 14:53:00,
2013-01-10 08:54:00,47.6,44.5,30.08,SE,132,11.0,13.0,89,0.00,,---,0.02,VWS V14.00,2013-01-10 14:54:00,
2013-01-10 08:55:00,47.6,44.5,30.08,ESE,115,9.0,12.0,89,0.00,,---,0.02,VWS V14.00,2013-01-10 14:55:00,
2013-01-10 08:56:00,47.6,44.5,30.08,SE,132,11.0,14.0,89,0.00,,---,0.02,VWS V14.00,2013-01-10 14:56:00,
2013-01-10 08:57:00,47.6,44.5,30.08,SE,133,4.0,15.0,89,0.00,,---,0.02,VWS V14.00,2013-01-10 14:57:00,
2013-01-10 08:58:00,47.6,44.5,30.08,SE,132,8.0,14.0,89,0.00,,---,0.02,VWS V14.00,2013-01-10 14:58:00,
2013-01-10 08:59:00,47.6,44.5,30.08,SE,132,2.0,14.0,89,0.00,,---,0.02,VWS V14.00,2013-01-10 14:59:00,
2013-01-10 09:00:00,47.6,44.5,30.08,SE,132,8.0,11.0,89,0.00,,---,0.02,VWS V14.00,2013-01-10 15:00:00,
2013-01-10 09:01:00,47.4,44.3,30.08,SE,132,9.0,10.0,89,0.00,,---,0.02,VWS V14.00,2013-01-10 15:01:00,
2013-01-10 09:02:00,47.6,44.5,30.08,SE,134,4.0,10.0,89,0.00,,---,0.02,VWS V14.00,2013-01-10 15:02:00,
2013-01-10 09:03:00,47.4,44.3,30.08,SE,134,4.0,10.0,89,0.00,,---,0.02,VWS V14.00,2013-01-10 15:03:00,
2013-01-10 09:04:00,47.4,44.3,30.08,SE,133,2.0,10.0,89,0.00,,---,0.02,VWS V14.00,2013-01-10 15:04:00,
2013-01-10 09:05:00,47.4,44.3,30.08,SE,134,8.0,13.0,89,0.00,,---,0.02,VWS V14.00,2013-01-10 15:05:00,
2013-01-10 09:06:00,47.4,44.3,30.08,SE,132,12.0,12.0,89,0.00,,---,0.02,VWS V14.00,2013-01-10 15:06:00,
2013-01-10 09:07:00,47.4,44.3,30.08,ESE,114,9.0,15.0,89,0.00,,---,0.02,VWS V14.00,2013-01-10 15:07:00,
2013-01-10 09:08:00,47.4,44.3,30.08,ESE,118,10.0,11.0,89,0.00,,---,0.02,VWS V14.00,2013-01-10 15:08:00,
2013-01-10 09:09:00,47.4,44.3,30.08,SE,128,5.0,14.0,89,0.00,,---,0.02,VWS V14.00,2013-01-10 15:09:00,
2013-01-10 09:10:00,47.4,44.3,30.08,SE,132,5.0,14.0,89,0.00,,---,0.02,VWS V14.00,2013-01-10 15:10:00,
2013-01-10 09:11:00,47.4,44.3,30.07,SE,129,1.0,6.0,89,0.00,,---,0.02,VWS V14.00,2013-01-10 15:11:00,
2013-01-10 09:12:00,47.4,44.3,30.07,SE,128,8.0,12.0,89,0.00,,---,0.02,VWS V14.00,2013-01-10 15:12:00,
2013-01-10 09:13:00,47.4,44.3,30.07,SE,129,1.0,12.0,89,0.00,,---,0.02,VWS V14.00,2013-01-10 15:13:00,
2013-01-10 09:14:00,47.4,44.3,30.07,SE,129,3.0,6.0,89,0.00,,---,0.02,VWS V14.00,2013-01-10 15:14:00,
2013-01-10 09:15:00,47.4,44.3,30.07,SE,129,7.0,9.0,89,0.00,,---,0.02,VWS V14.00,2013-01-10 15:15:00,
2013-01-10 09:16:00,47.4,44.6,30.07,SE,129,6.0,6.0,90,0.00,,---,0.02,VWS V14.00,2013-01-10 15:16:00,
2013-01-10 09:17:00,47.4,44.6,30.07,SE,129,9.0,9.0,90,0.00,,---,0.02,VWS V14.00,2013-01-10 15:17:00,
2013-01-10 09:18:00,47.4,44.6,30.07,SE,129,5.0,9.0,90,0.00,,---,0.02,VWS V14.00,2013-01-10 15:18:00,
2013-01-10 09:19:00,47.4,44.6,30.07,SE,129,0.0,10.0,90,0.00,,---,0.02,VWS V14.00,2013-01-10 15:19:00,
2013-01-10 09:20:00,47.4,44.6,30.07,SE,130,5.0,12.0,90,0.00,,---,0.02,VWS V14.00,2013-01-10 15:20:00,
2013-01-10 09:21:00,47.4,44.6,30.07,SE,128,10.0,11.0,90,0.00,,---,0.02,VWS V14.00,2013-01-10 15:21:00,
2013-01-10 09:22:00,47.4,44.6,30.07,SE,130,11.0,11.0,90,0.00,,---,0.02,VWS V14.00,2013-01-10 15:22:00,
2013-01-10 09:23:00,47.4,44.6,30.07,SE,127,5.0,12.0,90,0.00,,---,0.02,VWS V14.00,2013-01-10 15:23:00,
2013-01-10 09:24:00,47.4,44.6,30.07,SE,128,6.0,12.0,90,0.00,,---,0.02,VWS V14.00,2013-01-10 15:24:00,
2013-01-10 09:25:00,47.6,44.8,30.07,SE,127,10.0,10.0,90,0.00,,---,0.02,VWS V14.00,2013-01-10 15:25:00,
2013-01-10 09:26:00,47.6,44.8,30.07,SE,127,8.0,9.0,90,0.00,,---,0.02,VWS V14.00,2013-01-10 15:26:00,
2013-01-10 09:27:00,47.6,44.8,30.07,SE,127,6.0,6.0,90,0.00,,---,0.02,VWS V14.00,2013-01-10 15:27:00,
2013-01-10 09:28:00,47.6,44.8,30.07,SE,126,6.0,13.0,90,0.00,,---,0.02,VWS V14.00,2013-01-10 15:28:00,
2013-01-10 09:29:00,47.6,44.8,30.07,SE,127,6.0,9.0,90,0.00,,---,0.02,VWS V14.00,2013-01-10 15:29:00,
2013-01-10 09:30:00,47.6,44.8,30.07,SE,127,7.0,7.0,90,0.00,,---,0.02,VWS V14.00,2013-01-10 15:30:00,
2013-01-10 09:31:00,47.6,44.8,30.06,SE,127,3.0,7.0,90,0.00,,---,0.02,VWS V14.00,2013-01-10 15:31:00,
2013-01-10 09:32:00,47.6,44.8,30.07,SE,127,2.0,6.0,90,0.00,,---,0.02,VWS V14.00,2013-01-10 15:32:00,
2013-01-10 09:33:00,47.6,44.8,30.06,SE,127,7.0,12.0,90,0.00,,---,0.02,VWS V14.00,2013-01-10 15:33:00,
2013-01-10 09:34:00,47.6,44.8,30.06,SE,127,4.0,7.0,90,0.00,,---,0.02,VWS V14.00,2013-01-10 15:34:00,
2013-01-10 09:35:00,47.6,44.8,30.06,SE,127,3.0,4.0,90,0.00,,---,0.02,VWS V14.00,2013-01-10 15:35:00,
2013-01-10 09:36:00,47.6,44.8,30.06,SE,127,4.0,5.0,90,0.00,,---,0.02,VWS V14.00,2013-01-10 15:36:00,
2013-01-10 09:37:00,47.6,44.8,30.06,SE,127,0.0,0.0,90,0.00,,---,0.02,VWS V14.00,2013-01-10 15:37:00,
2013-01-10 09:38:00,47.6,44.8,30.06,SE,127,0.0,0.0,90,0.00,,---,0.02,VWS V14.00,2013-01-10 15:38:00,
2013-01-10 09:39:00,47.6,44.8,30.06,SE,127,0.0,5.0,90,0.00,,---,0.02,VWS V14.00,2013-01-10 15:39:00,
2013-01-10 09:40:00,47.6,44.8,30.05,SE,127,0.0,0.0,90,0.00,,---,0.02,VWS V14.00,2013-01-10 15:40:00,
2013-01-10 09:41:00,47.6,44.8,30.06,SE,126,0.0,1.0,90,0.00,,---,0.02,VWS V14.00,2013-01-10 15:41:00,
2013-01-10 09:42:00,47.6,44.8,30.05,SE,127,3.0,4.0,90,0.00,,---,0.02,VWS V14.00,2013-01-10 15:42:00,
2013-01-10 09:43:00,47.6,44.8,30.06,SE,126,1.0,6.0,90,0.00,,---,0.02,VWS V14.00,2013-01-10 15:43:00,
2013-01-10 09:44:00,47.6,44.8,30.05,SE,126,0.0,1.0,90,0.00,,---,0.02,VWS V14.00,2013-01-10 15:44:00,
2013-01-10 09:45:00,47.6,44.8,30.05,SE,126,3.0,9.0,90,0.00,,---,0.02,VWS V14.00,2013-01-10 15:45:00,
2013-01-10 09:46:00,47.6,44.8,30.05,SE,126,4.0,7.0,90,0.00,,---,0.02,VWS V14.00,2013-01-10 15:46:00,
2013-01-10 09:47:00,47.6,44.8,30.05,SE,126,1.0,6.0,90,0.00,,---,0.02,VWS V14.00,2013-01-10 15:47:00,
2013-01-10 09:48:00,47.6,44.8,30.05,SE,126,7.0,7.0,90,0.00,,---,0.02,VWS V14.00,2013-01-10 15:48:00,
2013-01-10 09:49:00,47.6,44.8,30.05,SE,126,0.0,7.0,90,0.00,,---,0.02,VWS V14.00,2013-01-10 15:49:00,
2013-01-10 09:50:00,47.6,44.8,30.05,SE,126,5.0,8.0,90,0.00,,---,0.02,VWS V14.00,2013-01-10 15:50:00,
2013-01-10 09:51:00,47.6,44.8,30.06,SE,127,0.0,4.0,90,0.00,,---,0.02,VWS V14.00,2013-01-10 15:51:00,
2013-01-10 09:52:00,47.6,44.8,30.05,SE,127,3.0,12.0,90,0.00,,---,0.02,VWS V14.00,2013-01-10 15:52:00,
2013-01-10 09:53:00,47.6,44.8,30.06,SE,127,4.0,4.0,90,0.00,,---,0.02,VWS V14.00,2013-01-10 15:53:00,
2013-01-10 09:54:00,47.6,44.8,30.05,SE,127,0.0,4.0,90,0.00,,---,0.02,VWS V14.00,2013-01-10 15:54:00,
2013-01-10 09:55:00,47.6,44.8,30.05,SE,127,4.0,4.0,90,0.00,,---,0.02,VWS V14.00,2013-01-10 15:55:00,
2013-01-10 09:56:00,47.6,45.1,30.05,SE,127,4.0,5.0,91,0.00,,---,0.02,VWS V14.00,2013-01-10 15:56:00,
2013-01-10 09:57:00,47.6,44.8,30.05,SE,127,5.0,5.0,90,0.00,,---,0.02,VWS V14.00,2013-01-10 15:57:00,
2013-01-10 09:58:00,47.6,45.1,30.05,SE,127,0.0,6.0,91,0.00,,---,0.02,VWS V14.00,2013-01-10 15:58:00,
2013-01-10 09:59:00,47.6,45.1,30.05,SE,127,6.0,6.0,91,0.00,,---,0.02,VWS V14.00,2013-01-10 15:59:00,
2013-01-10 10:00:00,47.6,45.1,30.05,SE,127,3.0,5.0,91,0.00,,---,0.02,VWS V14.00,2013-01-10 16:00:00,
2013-01-10 10:01:00,47.6,45.1,30.05,SE,127,12.0,12.0,91,0.00,,---,0.02,VWS V14.00,2013-01-10 16:01:00,
2013-01-10 10:02:00,47.6,45.1,30.05,SE,127,7.0,8.0,91,0.00,,---,0.02,VWS V14.00,2013-01-10 16:02:00,
2013-01-10 10:03:00,47.6,45.1,30.05,SE,127,0.0,8.0,91,0.00,,---,0.02,VWS V14.00,2013-01-10 16:03:00,
2013-01-10 10:04:00,47.6,45.1,30.04,SE,127,7.0,12.0,91,0.00,,---,0.02,VWS V14.00,2013-01-10 16:04:00,
2013-01-10 10:05:00,47.6,45.1,30.05,SE,127,5.0,7.0,91,0.00,,---,0.02,VWS V14.00,2013-01-10 16:05:00,
2013-01-10 10:06:00,47.7,44.9,30.05,SE,128,2.0,7.0,90,0.00,,---,0.02,VWS V14.00,2013-01-10 16:06:00,
2013-01-10 10:07:00,47.7,44.9,30.04,SE,128,5.0,9.0,90,0.00,,---,0.02,VWS V14.00,2013-01-10 16:07:00,
2013-01-10 10:08:00,47.7,45.2,30.05,SE,128,4.0,7.0,91,0.00,,---,0.02,VWS V14.00,2013-01-10 16:08:00,
2013-01-10 10:09:00,47.7,44.3,30.05,SE,128,4.0,7.0,88,0.00,,---,0.02,VWS V14.00,2013-01-10 16:09:00,
2013-01-10 10:10:00,47.7,44.9,30.05,SE,128,0.0,7.0,90,0.00,,---,0.02,VWS V14.00,2013-01-10 16:10:00,
2013-01-10 10:11:00,47.9,45.1,30.05,SE,132,0.0,1.0,90,0.00,,---,0.02,VWS V14.00,2013-01-10 16:11:00,
2013-01-10 10:12:00,47.7,44.9,30.05,SE,132,0.0,8.0,90,0.00,,---,0.02,VWS V14.00,2013-01-10 16:12:00,
2013-01-10 10:13:00,47.9,45.1,30.05,SE,132,0.0,0.0,90,0.00,,---,0.02,VWS V14.00,2013-01-10 16:13:00,
2013-01-10 10:14:00,47.9,45.1,30.05,SE,132,5.0,5.0,90,0.00,,---,0.02,VWS V14.00,2013-01-10 16:14:00,
2013-01-10 10:15:00,47.9,45.1,30.05,SE,132,4.0,8.0,90,0.00,,---,0.02,VWS V14.00,2013-01-10 16:15:00,
2013-01-10 10:16:00,48.0,45.2,30.05,SE,132,3.0,3.0,90,0.00,,---,0.02,VWS V14.00,2013-01-10 16:16:00,
2013-01-10 10:17:00,47.9,45.1,30.05,SE,132,4.0,7.0,90,0.00,,---,0.02,VWS V14.00,2013-01-10 16:17:00,
2013-01-10 10:18:00,48.0,45.2,30.05,SE,132,1.0,4.0,90,0.00,,---,0.02,VWS V14.00,2013-01-10 16:18:00,
2013-01-10 10:19:00,48.0,45.2,30.05,SE,132,1.0,3.0,90,0.00,,---,0.02,VWS V14.00,2013-01-10 16:19:00,
2013-01-10 10:20:00,48.0,45.2,30.05,SE,132,6.0,8.0,90,0.00,,---,0.02,VWS V14.00,2013-01-10 16:20:00,
2013-01-10 10:21:00,48.2,45.4,30.05,SE,132,0.0,3.0,90,0.00,,---,0.02,VWS V14.00,2013-01-10 16:21:00,
2013-01-10 10:22:00,48.0,45.2,30.05,SE,132,6.0,10.0,90,0.00,,---,0.02,VWS V14.00,2013-01-10 16:22:00,
2013-01-10 10:23:00,48.2,45.4,30.05,SE,132,1.0,6.0,90,0.00,,---,0.02,VWS V14.00,2013-01-10 16:23:00,
2013-01-10 10:24:00,48.2,45.4,30.05,SE,132,0.0,3.0,90,0.00,,---,0.02,VWS V14.00,2013-01-10 16:24:00,
2013-01-10 10:25:00,48.2,45.4,30.05,SE,132,7.0,9.0,90,0.00,,---,0.02,VWS V14.00,2013-01-10 16:25:00,
2013-01-10 10:26:00,48.3,45.5,30.05,SE,132,10.0,10.0,90,0.00,,---,0.02,VWS V14.00,2013-01-10 16:26:00,
2013-01-10 10:27:00,48.2,45.4,30.05,SE,131,6.0,9.0,90,0.00,,---,0.02,VWS V14.00,2013-01-10 16:27:00,
2013-01-10 10:28:00,48.3,45.5,30.05,SE,131,0.0,7.0,90,0.00,,---,0.02,VWS V14.00,2013-01-10 16:28:00,
2013-01-10 10:29:00,48.3,45.5,30.05,SE,132,5.0,10.0,90,0.00,,---,0.02,VWS V14.00,2013-01-10 16:29:00,
2013-01-10 10:30:00,48.3,45.5,30.05,SE,132,0.0,5.0,90,0.00,,---,0.02,VWS V14.00,2013-01-10 16:30:00,
2013-01-10 10:31:00,48.5,45.7,30.03,SE,130,5.0,7.0,90,0.00,,---,0.02,VWS V14.00,2013-01-10 16:31:00,
2013-01-10 10:32:00,48.5,45.7,30.04,SE,130,10.0,10.0,90,0.00,,---,0.02,VWS V14.00,2013-01-10 16:32:00,
2013-01-10 10:33:00,48.5,45.7,30.03,SE,130,7.0,13.0,90,0.00,,---,0.02,VWS V14.00,2013-01-10 16:33:00,
2013-01-10 10:34:00,48.5,45.7,30.03,SE,130,2.0,9.0,90,0.00,,---,0.02,VWS V14.00,2013-01-10 16:34:00,
2013-01-10 10:35:00,48.5,45.7,30.03,SE,136,6.0,14.0,90,0.00,,---,0.02,VWS V14.00,2013-01-10 16:35:00,
2013-01-10 10:36:00,48.5,45.7,30.03,ESE,123,9.0,13.0,90,0.00,,---,0.02,VWS V14.00,2013-01-10 16:36:00,
2013-01-10 10:37:00,48.5,45.7,30.03,SE,137,4.0,12.0,90,0.00,,---,0.02,VWS V14.00,2013-01-10 16:37:00,
2013-01-10 10:38:00,48.5,45.7,30.03,SE,134,13.0,13.0,90,0.00,,---,0.02,VWS V14.00,2013-01-10 16:38:00,
2013-01-10 10:39:00,48.5,45.4,30.03,ESE,122,2.0,13.0,89,0.00,,---,0.02,VWS V14.00,2013-01-10 16:39:00,
2013-01-10 10:40:00,48.5,45.7,30.03,SE,128,4.0,13.0,90,0.00,,---,0.02,VWS V14.00,2013-01-10 16:40:00,
2013-01-10 10:41:00,48.5,45.7,30.02,SE,126,7.0,10.0,90,0.00,,---,0.02,VWS V14.00,2013-01-10 16:41:00,
2013-01-10 10:42:00,48.5,45.4,30.02,SE,130,5.0,13.0,89,0.00,,---,0.02,VWS V14.00,2013-01-10 16:42:00,
2013-01-10 10:43:00,48.5,45.7,30.02,SE,130,5.0,9.0,90,0.00,,---,0.02,VWS V14.00,2013-01-10 16:43:00,
2013-01-10 10:44:00,48.6,45.8,30.02,SE,126,7.0,12.0,90,0.00,,---,0.02,VWS V14.00,2013-01-10 16:44:00,
2013-01-10 10:45:00,48.6,45.8,30.02,SE,125,9.0,12.0,90,0.00,,---,0.02,VWS V14.00,2013-01-10 16:45:00,
2013-01-10 10:46:00,48.6,45.8,30.02,SE,128,8.0,11.0,90,0.00,,---,0.02,VWS V14.00,2013-01-10 16:46:00,
2013-01-10 10:47:00,48.6,45.8,30.02,SE,132,5.0,14.0,90,0.00,,---,0.02,VWS V14.00,2013-01-10 16:47:00,
2013-01-10 10:48:00,48.6,45.8,30.02,SE,128,6.0,14.0,90,0.00,,---,0.02,VWS V14.00,2013-01-10 16:48:00,
2013-01-10 10:49:00,48.6,45.8,30.02,SE,128,7.0,11.0,90,0.00,,---,0.02,VWS V14.00,2013-01-10 16:49:00,
2013-01-10 10:50:00,48.6,45.8,30.02,SE,127,7.0,12.0,90,0.00,,---,0.02,VWS V14.00,2013-01-10 16:50:00,
2013-01-10 10:51:00,48.8,46.0,30.02,SE,126,6.0,7.0,90,0.00,,---,0.02,VWS V14.00,2013-01-10 16:51:00,
2013-01-10 10:52:00,48.8,46.0,30.02,SE,127,9.0,9.0,90,0.00,,---,0.02,VWS V14.00,2013-01-10 16:52:00,
2013-01-10 10:53:00,48.8,46.0,30.02,SE,126,5.0,14.0,90,0.00,,---,0.02,VWS V14.00,2013-01-10 16:53:00,
2013-01-10 10:54:00,48.8,46.0,30.02,SE,136,13.0,15.0,90,0.00,,---,0.02,VWS V14.00,2013-01-10 16:54:00,
2013-01-10 10:55:00,48.9,46.1,30.02,SE,134,12.0,14.0,90,0.00,,---,0.02,VWS V14.00,2013-01-10 16:55:00,
2013-01-10 10:56:00,48.9,46.1,30.02,ESE,116,3.0,15.0,90,0.00,,---,0.02,VWS V14.00,2013-01-10 16:56:00,
2013-01-10 10:57:00,48.9,46.1,30.02,ESE,122,7.0,15.0,90,0.00,,---,0.02,VWS V14.00,2013-01-10 16:57:00,
2013-01-10 10:58:00,48.9,46.1,30.02,ESE,120,15.0,15.0,90,0.00,,---,0.02,VWS V14.00,2013-01-10 16:58:00,
2013-01-10 10:59:00,48.9,46.1,30.02,SE,129,10.0,15.0,90,0.00,,---,0.02,VWS V14.00,2013-01-10 16:59:00,
2013-01-10 11:00:00,49.1,46.3,30.01,ESE,123,9.0,17.0,90,0.00,,---,0.02,VWS V14.00,2013-01-10 17:00:00,
2013-01-10 11:01:00,49.1,46.3,30.01,SE,134,9.0,14.0,90,0.00,,---,0.02,VWS V14.00,2013-01-10 17:01:00,
2013-01-10 11:02:00,49.1,46.3,30.01,SE,132,11.0,15.0,90,0.00,,---,0.02,VWS V14.00,2013-01-10 17:02:00,
2013-01-10 11:03:00,49.1,46.3,30.01,SE,137,12.0,16.0,90,0.00,,---,0.02,VWS V14.00,2013-01-10 17:03:00,
2013-01-10 11:04:00,49.1,46.3,30.01,SE,133,9.0,16.0,90,0.00,,---,0.02,VWS V14.00,2013-01-10 17:04:00,
2013-01-10 11:05:00,49.2,46.4,30.01,SE,132,10.0,20.0,90,0.00,,---,0.02,VWS V14.00,2013-01-10 17:05:00,
2013-01-10 11:06:00,49.2,46.4,30.01,SE,132,14.0,14.0,90,0.00,,---,0.02,VWS V14.00,2013-01-10 17:06:00,
2013-01-10 11:07:00,49.2,46.4,30.01,SE,130,9.0,12.0,90,0.00,,---,0.02,VWS V14.00,2013-01-10 17:07:00,
2013-01-10 11:08:00,49.2,46.4,30.01,SE,136,11.0,13.0,90,0.00,,---,0.02,VWS V14.00,2013-01-10 17:08:00,
2013-01-10 11:09:00,49.2,46.4,30.01,SE,132,13.0,14.0,90,0.00,,---,0.02,VWS V14.00,2013-01-10 17:09:00,
2013-01-10 11:10:00,49.4,46.6,30.00,SE,127,9.0,16.0,90,0.00,,---,0.02,VWS V14.00,2013-01-10 17:10:00,
2013-01-10 11:11:00,49.4,46.3,30.00,SE,132,6.0,14.0,89,0.00,,---,0.02,VWS V14.00,2013-01-10 17:11:00,
2013-01-10 11:12:00,49.4,46.6,30.00,SE,134,14.0,14.0,90,0.00,,---,0.02,VWS V14.00,2013-01-10 17:12:00,
2013-01-10 11:13:00,49.4,46.3,30.00,SE,132,11.0,14.0,89,0.00,,---,0.02,VWS V14.00,2013-01-10 17:13:00,
2013-01-10 11:14:00,49.4,46.3,30.00,SE,136,10.0,18.0,89,0.00,,---,0.02,VWS V14.00,2013-01-10 17:14:00,
2013-01-10 11:15:00,49.5,46.4,30.00,SE,136,10.0,12.0,89,0.00,,---,0.02,VWS V14.00,2013-01-10 17:15:00,
2013-01-10 11:16:00,49.6,46.5,29.99,SE,128,11.0,11.0,89,0.00,,---,0.02,VWS V14.00,2013-01-10 17:16:00,
2013-01-10 11:17:00,49.6,46.5,30.00,SE,136,10.0,12.0,89,0.00,,---,0.02,VWS V14.00,2013-01-10 17:17:00,
2013-01-10 11:18:00,49.6,46.5,29.99,SE,125,10.0,15.0,89,0.00,,---,0.02,VWS V14.00,2013-01-10 17:18:00,
2013-01-10 11:19:00,49.6,46.5,29.99,ESE,117,12.0,13.0,89,0.00,,---,0.02,VWS V14.00,2013-01-10 17:19:00,
2013-01-10 11:20:00,49.8,46.7,29.99,SE,130,8.0,15.0,89,0.00,,---,0.02,VWS V14.00,2013-01-10 17:20:00,
2013-01-10 11:21:00,49.9,46.8,29.99,SE,127,10.0,16.0,89,0.00,,---,0.02,VWS V14.00,2013-01-10 17:21:00,
2013-01-10 11:22:00,49.8,46.7,29.99,SE,126,9.0,15.0,89,0.00,,---,0.02,VWS V14.00,2013-01-10 17:22:00,
2013-01-10 11:23:00,49.9,46.8,29.99,SE,125,8.0,12.0,89,0.00,,---,0.02,VWS V14.00,2013-01-10 17:23:00,
2013-01-10 11:24:00,49.9,46.8,29.99,SE,128,8.0,16.0,89,0.00,,---,0.02,VWS V14.00,2013-01-10 17:24:00,
2013-01-10 11:25:00,50.1,47.0,29.99,SE,132,7.0,13.0,89,0.00,,---,0.02,VWS V14.00,2013-01-10 17:25:00,
2013-01-10 11:26:00,50.2,47.1,29.98,SE,139,16.0,16.0,89,0.00,,---,0.02,VWS V14.00,2013-01-10 17:26:00,
2013-01-10 11:27:00,50.2,47.1,29.98,East,99,7.0,18.0,89,0.00,,---,0.02,VWS V14.00,2013-01-10 17:27:00,
2013-01-10 11:28:00,50.2,47.1,29.98,SE,134,14.0,15.0,89,0.00,,---,0.02,VWS V14.00,2013-01-10 17:28:00,
2013-01-10 11:29:00,50.2,47.1,29.98,SE,127,10.0,16.0,89,0.00,,---,0.02,VWS V14.00,2013-01-10 17:29:00,
2013-01-10 11:30:00,50.2,47.1,29.98,SE,133,11.0,16.0,89,0.00,,---,0.02,VWS V14.00,2013-01-10 17:30:00,
2013-01-10 11:31:00,50.4,47.3,29.97,SE,132,13.0,14.0,89,0.00,,---,0.02,VWS V14.00,2013-01-10 17:31:00,
2013-01-10 11:32:00,50.4,47.3,29.97,SE,140,10.0,15.0,89,0.00,,---,0.02,VWS V14.00,2013-01-10 17:32:00,
2013-01-10 11:33:00,50.4,47.3,29.97,SE,140,12.0,13.0,89,0.00,,---,0.02,VWS V14.00,2013-01-10 17:33:00,
2013-01-10 11:34:00,50.4,47.3,29.97,SE,138,12.0,14.0,89,0.00,,---,0.02,VWS V14.00,2013-01-10 17:34:00,
2013-01-10 11:35:00,50.5,47.1,29.97,SE,132,6.0,17.0,88,0.00,,---,0.02,VWS V14.00,2013-01-10 17:35:00,
2013-01-10 11:36:00,50.7,47.3,29.97,SE,131,5.0,12.0,88,0.00,,---,0.02,VWS V14.00,2013-01-10 17:36:00,
2013-01-10 11:37:00,50.5,47.4,29.97,SE,130,5.0,14.0,89,0.00,,---,0.02,VWS V14.00,2013-01-10 17:37:00,
2013-01-10 11:38:00,50.7,47.3,29.97,SE,135,7.0,14.0,88,0.00,,---,0.02,VWS V14.00,2013-01-10 17:38:00,
2013-01-10 11:39:00,50.7,47.3,29.97,SE,128,4.0,12.0,88,0.00,,---,0.02,VWS V14.00,2013-01-10 17:39:00,
2013-01-10 11:40:00,50.8,47.4,29.97,SE,128,7.0,11.0,88,0.00,,---,0.02,VWS V14.00,2013-01-10 17:40:00,
2013-01-10 11:41:00,51.0,47.6,29.97,SE,129,14.0,14.0,88,0.00,,---,0.02,VWS V14.00,2013-01-10 17:41:00,
2013-01-10 11:42:00,51.0,47.6,29.97,SE,125,7.0,12.0,88,0.00,,---,0.02,VWS V14.00,2013-01-10 17:42:00,
2013-01-10 11:43:00,51.0,47.6,29.97,SE,130,4.0,13.0,88,0.00,,---,0.02,VWS V14.00,2013-01-10 17:43:00,
2013-01-10 11:44:00,51.0,47.6,29.97,ESE,106,11.0,15.0,88,0.00,,---,0.02,VWS V14.00,2013-01-10 17:44:00,
2013-01-10 11:45:00,51.1,47.7,29.97,ESE,116,11.0,11.0,88,0.00,,---,0.02,VWS V14.00,2013-01-10 17:45:00,
2013-01-10 11:46:00,51.3,47.9,29.96,SE,140,9.0,10.0,88,0.00,,---,0.02,VWS V14.00,2013-01-10 17:46:00,
2013-01-10 11:47:00,51.3,47.9,29.96,SE,137,10.0,18.0,88,0.00,,---,0.02,VWS V14.00,2013-01-10 17:47:00,
2013-01-10 11:48:00,51.3,47.9,29.96,SE,144,9.0,15.0,88,0.00,,---,0.02,VWS V14.00,2013-01-10 17:48:00,
2013-01-10 11:49:00,51.4,48.0,29.96,SE,130,16.0,17.0,88,0.00,,---,0.02,VWS V14.00,2013-01-10 17:49:00,
2013-01-10 11:50:00,51.4,48.0,29.96,SE,127,14.0,17.0,88,0.00,,---,0.02,VWS V14.00,2013-01-10 17:50:00,
2013-01-10 11:51:00,51.6,48.2,29.96,SE,126,10.0,11.0,88,0.00,,---,0.02,VWS V14.00,2013-01-10 17:51:00,
2013-01-10 11:52:00,51.6,48.2,29.96,SE,132,14.0,16.0,88,0.00,,---,0.02,VWS V14.00,2013-01-10 17:52:00,
2013-01-10 11:53:00,51.6,48.2,29.96,SE,124,9.0,14.0,88,0.00,,---,0.02,VWS V14.00,2013-01-10 17:53:00,
2013-01-10 11:54:00,51.6,48.2,29.96,SE,130,13.0,13.0,88,0.00,,---,0.02,VWS V14.00,2013-01-10 17:54:00,
2013-01-10 11:55:00,51.6,48.2,29.96,SE,137,13.0,17.0,88,0.00,,---,0.02,VWS V14.00,2013-01-10 17:55:00,
2013-01-10 11:56:00,51.6,48.2,29.96,SE,126,7.0,10.0,88,0.00,,---,0.02,VWS V14.00,2013-01-10 17:56:00,
2013-01-10 11:57:00,51.6,48.2,29.96,SE,128,12.0,13.0,88,0.00,,---,0.02,VWS V14.00,2013-01-10 17:57:00,
2013-01-10 11:58:00,51.6,48.2,29.96,ESE,123,10.0,15.0,88,0.00,,---,0.02,VWS V14.00,2013-01-10 17:58:00,
2013-01-10 11:59:00,51.6,48.2,29.95,SE,127,10.0,11.0,88,0.00,,---,0.02,VWS V14.00,2013-01-10 17:59:00,
2013-01-10 12:00:00,51.7,48.3,29.95,SE,126,10.0,11.0,88,0.00,,---,0.02,VWS V14.00,2013-01-10 18:00:00,
2013-01-10 12:01:00,51.9,48.5,29.95,SE,133,9.0,13.0,88,0.00,,---,0.02,VWS V14.00,2013-01-10 18:01:00,
2013-01-10 12:02:00,51.7,48.3,29.95,SE,128,10.0,15.0,88,0.00,,---,0.02,VWS V14.00,2013-01-10 18:02:00,
2013-01-10 12:03:00,51.7,48.3,29.95,SE,132,11.0,14.0,88,0.00,,---,0.02,VWS V14.00,2013-01-10 18:03:00,
2013-01-10 12:04:00,51.9,48.5,29.95,SE,136,5.0,14.0,88,0.00,,---,0.02,VWS V14.00,2013-01-10 18:04:00,
2013-01-10 12:05:00,51.9,48.5,29.95,SE,137,12.0,13.0,88,0.00,,---,0.02,VWS V14.00,2013-01-10 18:05:00,
2013-01-10 12:06:00,52.2,48.8,29.95,SE,134,10.0,10.0,88,0.00,,---,0.02,VWS V14.00,2013-01-10 18:06:00,
2013-01-10 12:07:00,52.0,48.6,29.95,SE,134,12.0,12.0,88,0.00,,---,0.02,VWS V14.00,2013-01-10 18:07:00,
2013-01-10 12:08:00,52.2,48.8,29.95,SE,134,6.0,13.0,88,0.00,,---,0.02,VWS V14.00,2013-01-10 18:08:00,
2013-01-10 12:09:00,52.2,48.8,29.94,SE,134,1.0,10.0,88,0.00,,---,0.02,VWS V14.00,2013-01-10 18:09:00,
2013-01-10 12:10:00,52.2,48.8,29.94,ESE,117,7.0,14.0,88,0.00,,---,0.02,VWS V14.00,2013-01-10 18:10:00,
2013-01-10 12:11:00,52.5,49.0,29.93,ESE,121,8.0,9.0,88,0.00,,---,0.02,VWS V14.00,2013-01-10 18:11:00,
2013-01-10 12:12:00,52.3,48.9,29.93,ESE,121,4.0,11.0,88,0.00,,---,0.02,VWS V14.00,2013-01-10 18:12:00,
2013-01-10 12:13:00,52.5,49.0,29.93,ESE,121,5.0,7.0,88,0.00,,---,0.02,VWS V14.00,2013-01-10 18:13:00,
2013-01-10 12:14:00,52.5,49.0,29.93,SE,130,10.0,13.0,88,0.00,,---,0.02,VWS V14.00,2013-01-10 18:14:00,
2013-01-10 12:15:00,52.6,49.2,29.93,SE,133,12.0,14.0,88,0.00,,---,0.02,VWS V14.00,2013-01-10 18:15:00,
2013-01-10 12:16:00,53.1,49.7,29.92,SE,130,4.0,9.0,88,0.00,,---,0.02,VWS V14.00,2013-01-10 18:16:00,
2013-01-10 12:17:00,52.9,49.5,29.92,SE,129,4.0,5.0,88,0.00,,---,0.02,VWS V14.00,2013-01-10 18:17:00,
2013-01-10 12:18:00,52.9,49.5,29.92,SE,130,9.0,9.0,88,0.00,,---,0.02,VWS V14.00,2013-01-10 18:18:00,
2013-01-10 12:19:00,53.1,49.7,29.92,SE,128,7.0,11.0,88,0.00,,---,0.02,VWS V14.00,2013-01-10 18:19:00,
2013-01-10 12:20:00,53.2,49.4,29.92,SE,126,12.0,12.0,87,0.00,,---,0.02,VWS V14.00,2013-01-10 18:20:00,
2013-01-10 12:21:00,53.3,49.5,29.92,SE,131,3.0,11.0,87,0.00,,---,0.02,VWS V14.00,2013-01-10 18:21:00,
2013-01-10 12:22:00,53.2,49.4,29.92,SE,134,9.0,15.0,87,0.00,,---,0.02,VWS V14.00,2013-01-10 18:22:00,
2013-01-10 12:23:00,53.3,49.5,29.92,SE,132,4.0,14.0,87,0.00,,---,0.02,VWS V14.00,2013-01-10 18:23:00,
2013-01-10 12:24:00,53.3,49.5,29.92,SE,131,9.0,11.0,87,0.00,,---,0.02,VWS V14.00,2013-01-10 18:24:00,
2013-01-10 12:25:00,53.5,49.7,29.92,ESE,123,4.0,14.0,87,0.00,,---,0.02,VWS V14.00,2013-01-10 18:25:00,
2013-01-10 12:26:00,53.6,49.8,29.92,SE,134,7.0,10.0,87,0.00,,---,0.02,VWS V14.00,2013-01-10 18:26:00,
2013-01-10 12:27:00,53.6,49.8,29.92,SE,126,2.0,12.0,87,0.00,,---,0.02,VWS V14.00,2013-01-10 18:27:00,
2013-01-10 12:28:00,53.6,49.8,29.92,SE,135,10.0,13.0,87,0.00,,---,0.02,VWS V14.00,2013-01-10 18:28:00,
2013-01-10 12:29:00,53.6,49.8,29.92,SE,134,10.0,12.0,87,0.00,,---,0.02,VWS V14.00,2013-01-10 18:29:00,
2013-01-10 12:30:00,53.8,50.0,29.92,SE,142,7.0,13.0,87,0.00,,---,0.02,VWS V14.00,2013-01-10 18:30:00,
2013-01-10 12:31:00,54.1,50.0,29.92,SE,135,5.0,11.0,86,0.00,,---,0.02,VWS V14.00,2013-01-10 18:31:00,
2013-01-10 12:32:00,53.9,49.8,29.92,SE,136,7.0,13.0,86,0.00,,---,0.02,VWS V14.00,2013-01-10 18:32:00,
2013-01-10 12:33:00,54.1,50.0,29.92,SE,136,11.0,12.0,86,0.00,,---,0.02,VWS V14.00,2013-01-10 18:33:00,
2013-01-10 12:34:00,54.1,50.0,29.92,SE,135,4.0,11.0,86,0.00,,---,0.02,VWS V14.00,2013-01-10 18:34:00,
2013-01-10 12:35:00,54.1,50.3,29.91,SE,135,5.0,9.0,87,0.00,,---,0.02,VWS V14.00,2013-01-10 18:35:00,
2013-01-10 12:36:00,54.4,50.3,29.91,SE,136,12.0,13.0,86,0.00,,---,0.02,VWS V14.00,2013-01-10 18:36:00,
2013-01-10 12:37:00,54.2,50.1,29.91,SE,135,4.0,7.0,86,0.00,,---,0.02,VWS V14.00,2013-01-10 18:37:00,
2013-01-10 12:38:00,54.4,50.3,29.91,SE,135,9.0,10.0,86,0.00,,---,0.02,VWS V14.00,2013-01-10 18:38:00,
2013-01-10 12:39:00,54.4,50.3,29.91,SE,138,15.0,16.0,86,0.00,,---,0.02,VWS V14.00,2013-01-10 18:39:00,
2013-01-10 12:40:00,54.4,50.3,29.90,SE,138,10.0,15.0,86,0.00,,---,0.02,VWS V14.00,2013-01-10 18:40:00,
2013-01-10 12:41:00,54.5,50.4,29.90,SE,140,14.0,16.0,86,0.00,,---,0.02,VWS V14.00,2013-01-10 18:41:00,
2013-01-10 12:42:00,54.5,50.7,29.90,SE,140,12.0,16.0,87,0.00,,---,0.02,VWS V14.00,2013-01-10 18:42:00,
2013-01-10 12:43:00,54.5,50.4,29.90,SE,131,10.0,16.0,86,0.00,,---,0.02,VWS V14.00,2013-01-10 18:43:00,
2013-01-10 12:44:00,54.5,50.4,29.91,SE,140,14.0,16.0,86,0.00,,---,0.02,VWS V14.00,2013-01-10 18:44:00,
2013-01-10 12:45:00,54.7,50.6,29.91,SE,139,10.0,14.0,86,0.00,,---,0.02,VWS V14.00,2013-01-10 18:45:00,
2013-01-10 12:46:00,54.7,50.6,29.90,SE,138,12.0,14.0,86,0.00,,---,0.02,VWS V14.00,2013-01-10 18:46:00,
2013-01-10 12:47:00,54.7,50.6,29.91,SE,137,4.0,9.0,86,0.00,,---,0.02,VWS V14.00,2013-01-10 18:47:00,
2013-01-10 12:48:00,54.7,50.6,29.90,SE,137,9.0,9.0,86,0.00,,---,0.02,VWS V14.00,2013-01-10 18:48:00,
2013-01-10 12:49:00,54.7,50.6,29.90,SE,135,5.0,14.0,86,0.00,,---,0.02,VWS V14.00,2013-01-10 18:49:00,
2013-01-10 12:50:00,54.8,50.7,29.90,SE,135,11.0,14.0,86,0.00,,---,0.02,VWS V14.00,2013-01-10 18:50:00,
2013-01-10 12:51:00,54.8,50.7,29.90,SE,136,6.0,9.0,86,0.00,,---,0.02,VWS V14.00,2013-01-10 18:51:00,
2013-01-10 12:52:00,54.8,50.7,29.90,SE,136,14.0,14.0,86,0.00,,---,0.02,VWS V14.00,2013-01-10 18:52:00,
2013-01-10 12:53:00,54.8,50.7,29.90,SE,136,9.0,14.0,86,0.00,,---,0.02,VWS V14.00,2013-01-10 18:53:00,
2013-01-10 12:54:00,54.8,50.7,29.90,SE,136,9.0,9.0,86,0.00,,---,0.02,VWS V14.00,2013-01-10 18:54:00,
2013-01-10 12:55:00,55.0,50.9,29.90,SE,134,5.0,11.0,86,0.00,,---,0.02,VWS V14.00,2013-01-10 18:55:00,
2013-01-10 12:56:00,55.0,50.9,29.90,SE,133,4.0,7.0,86,0.00,,---,0.02,VWS V14.00,2013-01-10 18:56:00,
2013-01-10 12:57:00,55.0,50.9,29.90,SE,133,10.0,13.0,86,0.00,,---,0.02,VWS V14.00,2013-01-10 18:57:00,
2013-01-10 12:58:00,55.0,50.9,29.90,SE,133,7.0,10.0,86,0.00,,---,0.02,VWS V14.00,2013-01-10 18:58:00,
2013-01-10 12:59:00,55.0,50.9,29.90,SE,133,7.0,12.0,86,0.00,,---,0.02,VWS V14.00,2013-01-10 18:59:00,
2013-01-10 13:00:00,55.0,50.9,29.90,SE,133,5.0,10.0,86,0.00,,---,0.02,VWS V14.00,2013-01-10 19:00:00,
2013-01-10 13:01:00,55.1,51.0,29.89,SE,132,9.0,11.0,86,0.00,,---,0.02,VWS V14.00,2013-01-10 19:01:00,
2013-01-10 13:02:00,55.0,50.9,29.89,SE,132,7.0,14.0,86,0.00,,---,0.02,VWS V14.00,2013-01-10 19:02:00,
2013-01-10 13:03:00,55.1,51.0,29.89,SE,132,10.0,11.0,86,0.00,,---,0.02,VWS V14.00,2013-01-10 19:03:00,
2013-01-10 13:04:00,55.1,51.0,29.89,SE,132,10.0,11.0,86,0.00,,---,0.02,VWS V14.00,2013-01-10 19:04:00,
2013-01-10 13:05:00,55.0,50.9,29.89,SE,132,6.0,10.0,86,0.00,,---,0.02,VWS V14.00,2013-01-10 19:05:00,
2013-01-10 13:06:00,55.1,51.3,29.89,SE,134,9.0,13.0,87,0.00,,---,0.02,VWS V14.00,2013-01-10 19:06:00,
2013-01-10 13:07:00,55.1,51.0,29.89,SE,134,10.0,14.0,86,0.00,,---,0.02,VWS V14.00,2013-01-10 19:07:00,
2013-01-10 13:08:00,55.1,51.0,29.89,SE,134,13.0,13.0,86,0.00,,---,0.02,VWS V14.00,2013-01-10 19:08:00,
2013-01-10 13:09:00,55.1,51.3,29.89,SE,134,5.0,13.0,87,0.00,,---,0.02,VWS V14.00,2013-01-10 19:09:00,
2013-01-10 13:10:00,55.1,51.3,29.89,SE,134,12.0,12.0,87,0.00,,---,0.02,VWS V14.00,2013-01-10 19:10:00,
2013-01-10 13:11:00,55.1,51.0,29.89,SE,135,9.0,11.0,86,0.00,,---,0.02,VWS V14.00,2013-01-10 19:11:00,
2013-01-10 13:12:00,55.1,51.0,29.89,SE,134,10.0,14.0,86,0.00,,---,0.02,VWS V14.00,2013-01-10 19:12:00,
2013-01-10 13:13:00,55.1,51.0,29.89,SE,135,11.0,13.0,86,0.00,,---,0.02,VWS V14.00,2013-01-10 19:13:00,
2013-01-10 13:14:00,55.1,51.3,29.89,SE,139,10.0,11.0,87,0.00,,---,0.02,VWS V14.00,2013-01-10 19:14:00,
2013-01-10 13:15:00,55.1,51.3,29.89,SE,138,7.0,10.0,87,0.00,,---,0.02,VWS V14.00,2013-01-10 19:15:00,
2013-01-10 13:16:00,55.1,51.3,29.89,SE,138,3.0,6.0,87,0.00,,---,0.02,VWS V14.00,2013-01-10 19:16:00,
2013-01-10 13:17:00,55.1,51.3,29.88,SE,138,7.0,7.0,87,0.00,,---,0.02,VWS V14.00,2013-01-10 19:17:00,
2013-01-10 13:18:00,55.1,51.3,29.89,SE,138,5.0,10.0,87,0.00,,---,0.02,VWS V14.00,2013-01-10 19:18:00,
2013-01-10 13:19:00,55.1,51.3,29.88,SE,137,7.0,8.0,87,0.00,,---,0.02,VWS V14.00,2013-01-10 19:19:00,
2013-01-10 13:20:00,55.1,51.3,29.88,SE,138,5.0,7.0,87,0.00,,---,0.02,VWS V14.00,2013-01-10 19:20:00,
2013-01-10 13:21:00,55.1,51.3,29.88,SE,138,4.0,4.0,87,0.00,,---,0.02,VWS V14.00,2013-01-10 19:21:00,
2013-01-10 13:22:00,55.1,51.0,29.88,SE,138,2.0,6.0,86,0.00,,---,0.02,VWS V14.00,2013-01-10 19:22:00,
2013-01-10 13:23:00,55.1,51.3,29.88,SE,138,2.0,5.0,87,0.00,,---,0.02,VWS V14.00,2013-01-10 19:23:00,
2013-01-10 13:24:00,55.1,51.3,29.88,SE,138,7.0,7.0,87,0.00,,---,0.02,VWS V14.00,2013-01-10 19:24:00,
2013-01-10 13:25:00,55.1,51.3,29.88,SE,138,7.0,9.0,87,0.00,,---,0.02,VWS V14.00,2013-01-10 19:25:00,
2013-01-10 13:26:00,55.1,51.3,29.88,SE,138,4.0,4.0,87,0.00,,---,0.02,VWS V14.00,2013-01-10 19:26:00,
2013-01-10 13:27:00,55.1,51.0,29.88,SE,138,0.0,5.0,86,0.00,,---,0.02,VWS V14.00,2013-01-10 19:27:00,
2013-01-10 13:28:00,55.1,51.0,29.88,SE,138,0.0,0.0,86,0.00,,---,0.02,VWS V14.00,2013-01-10 19:28:00,
2013-01-10 13:29:00,55.1,51.3,29.88,SE,138,1.0,4.0,87,0.00,,---,0.02,VWS V14.00,2013-01-10 19:29:00,
2013-01-10 13:30:00,55.3,51.5,29.88,SE,138,4.0,4.0,87,0.00,,---,0.02,VWS V14.00,2013-01-10 19:30:00,
2013-01-10 13:31:00,55.3,51.5,29.88,SE,138,0.0,0.0,87,0.00,,---,0.02,VWS V14.00,2013-01-10 19:31:00,
2013-01-10 13:32:00,55.3,51.5,29.88,SE,138,1.0,3.0,87,0.00,,---,0.02,VWS V14.00,2013-01-10 19:32:00,
2013-01-10 13:33:00,55.3,51.5,29.88,SE,138,0.0,3.0,87,0.00,,---,0.02,VWS V14.00,2013-01-10 19:33:00,
2013-01-10 13:34:00,55.3,51.5,29.88,SE,138,0.0,0.0,87,0.00,,---,0.02,VWS V14.00,2013-01-10 19:34:00,
2013-01-10 13:35:00,55.3,51.5,29.88,SE,138,0.0,1.0,87,0.00,,---,0.02,VWS V14.00,2013-01-10 19:35:00,
2013-01-10 13:36:00,55.3,51.2,29.87,SE,138,5.0,5.0,86,0.00,,---,0.02,VWS V14.00,2013-01-10 19:36:00,
2013-01-10 13:37:00,55.3,51.5,29.88,SE,138,1.0,3.0,87,0.00,,---,0.02,VWS V14.00,2013-01-10 19:37:00,
2013-01-10 13:38:00,55.3,51.5,29.87,SE,138,0.0,5.0,87,0.00,,---,0.02,VWS V14.00,2013-01-10 19:38:00,
2013-01-10 13:39:00,55.3,51.2,29.87,SE,138,3.0,5.0,86,0.00,,---,0.02,VWS V14.00,2013-01-10 19:39:00,
2013-01-10 13:40:00,55.3,51.5,29.87,SE,138,4.0,4.0,87,0.00,,---,0.02,VWS V14.00,2013-01-10 19:40:00,
2013-01-10 13:41:00,55.3,51.5,29.87,SE,138,0.0,0.0,87,0.00,,---,0.02,VWS V14.00,2013-01-10 19:41:00,
2013-01-10 13:42:00,55.1,51.3,29.87,SE,138,3.0,4.0,87,0.00,,---,0.02,VWS V14.00,2013-01-10 19:42:00,
2013-01-10 13:43:00,55.1,51.3,29.87,SE,138,0.0,4.0,87,0.00,,---,0.02,VWS V14.00,2013-01-10 19:43:00,
2013-01-10 13:44:00,55.3,51.5,29.87,SE,138,1.0,1.0,87,0.00,,---,0.02,VWS V14.00,2013-01-10 19:44:00,
2013-01-10 13:45:00,55.3,51.5,29.87,SE,138,1.0,4.0,87,0.00,,---,0.02,VWS V14.00,2013-01-10 19:45:00,
2013-01-10 13:46:00,55.4,51.9,29.87,SE,138,0.0,0.0,88,0.00,,---,0.02,VWS V14.00,2013-01-10 19:46:00,
2013-01-10 13:47:00,55.4,51.9,29.87,SE,138,0.0,0.0,88,0.00,,---,0.02,VWS V14.00,2013-01-10 19:47:00,
2013-01-10 13:48:00,55.4,51.9,29.87,SE,138,0.0,1.0,88,0.00,,---,0.02,VWS V14.00,2013-01-10 19:48:00,
2013-01-10 13:49:00,55.4,51.9,29.87,SE,138,0.0,0.0,88,0.00,,---,0.02,VWS V14.00,2013-01-10 19:49:00,
2013-01-10 13:50:00,55.6,52.1,29.87,SE,138,0.0,0.0,88,0.00,,---,0.02,VWS V14.00,2013-01-10 19:50:00,
2013-01-10 13:51:00,55.7,52.2,29.87,SE,138,0.0,0.0,88,0.00,,---,0.02,VWS V14.00,2013-01-10 19:51:00,
2013-01-10 13:52:00,55.7,52.2,29.87,SE,138,0.0,0.0,88,0.00,,---,0.02,VWS V14.00,2013-01-10 19:52:00,
2013-01-10 13:53:00,55.7,52.2,29.87,SE,138,0.0,1.0,88,0.00,,---,0.02,VWS V14.00,2013-01-10 19:53:00,
2013-01-10 13:54:00,55.7,52.2,29.86,SE,138,0.0,0.0,88,0.00,,---,0.02,VWS V14.00,2013-01-10 19:54:00,
2013-01-10 13:55:00,55.9,52.4,29.86,SE,138,4.0,4.0,88,0.00,,---,0.02,VWS V14.00,2013-01-10 19:55:00,
2013-01-10 13:56:00,56.3,52.8,29.86,SE,138,0.0,0.0,88,0.00,,---,0.02,VWS V14.00,2013-01-10 19:56:00,
2013-01-10 13:57:00,56.0,52.5,29.86,SE,138,0.0,0.0,88,0.00,,---,0.02,VWS V14.00,2013-01-10 19:57:00,
2013-01-10 13:58:00,56.2,52.7,29.86,SE,138,0.0,0.0,88,0.00,,---,0.02,VWS V14.00,2013-01-10 19:58:00,
2013-01-10 13:59:00,56.3,53.1,29.86,SE,138,0.0,0.0,89,0.00,,---,0.02,VWS V14.00,2013-01-10 19:59:00,
2013-01-10 14:00:00,56.5,53.3,29.86,SE,138,0.0,0.0,89,0.00,,---,0.02,VWS V14.00,2013-01-10 20:00:00,
2013-01-10 14:01:00,56.6,53.1,29.86,SE,138,0.0,0.0,88,0.00,,---,0.02,VWS V14.00,2013-01-10 20:01:00,
2013-01-10 14:02:00,56.6,53.1,29.86,SE,138,0.0,2.0,88,0.00,,---,0.02,VWS V14.00,2013-01-10 20:02:00,
2013-01-10 14:03:00,56.6,53.1,29.86,SE,138,0.0,0.0,88,0.00,,---,0.02,VWS V14.00,2013-01-10 20:03:00,
2013-01-10 14:04:00,56.6,53.4,29.86,SE,138,2.0,2.0,89,0.00,,---,0.02,VWS V14.00,2013-01-10 20:04:00,
2013-01-10 14:05:00,56.6,53.4,29.86,SE,138,3.0,4.0,89,0.00,,---,0.02,VWS V14.00,2013-01-10 20:05:00,
2013-01-10 14:06:00,56.7,53.5,29.85,SE,138,0.0,0.0,89,0.00,,---,0.02,VWS V14.00,2013-01-10 20:06:00,
2013-01-10 14:07:00,56.7,53.5,29.85,SE,138,0.0,3.0,89,0.00,,---,0.02,VWS V14.00,2013-01-10 20:07:00,
2013-01-10 14:08:00,56.7,53.5,29.85,SE,138,0.0,1.0,89,0.00,,---,0.02,VWS V14.00,2013-01-10 20:08:00,
2013-01-10 14:09:00,56.7,53.5,29.85,SE,138,0.0,0.0,89,0.00,,---,0.02,VWS V14.00,2013-01-10 20:09:00,
2013-01-10 14:10:00,56.7,53.5,29.85,SE,138,0.0,0.0,89,0.00,,---,0.02,VWS V14.00,2013-01-10 20:10:00,
2013-01-10 14:11:00,56.7,53.5,29.85,SE,138,0.0,0.0,89,0.00,,---,0.02,VWS V14.00,2013-01-10 20:11:00,
2013-01-10 14:12:00,56.7,53.5,29.85,SE,138,1.0,3.0,89,0.00,,---,0.02,VWS V14.00,2013-01-10 20:12:00,
2013-01-10 14:13:00,56.7,53.5,29.85,SE,138,0.0,2.0,89,0.00,,---,0.02,VWS V14.00,2013-01-10 20:13:00,
2013-01-10 14:14:00,56.7,53.5,29.85,SE,138,0.0,0.0,89,0.00,,---,0.02,VWS V14.00,2013-01-10 20:14:00,
2013-01-10 14:15:00,56.7,53.5,29.85,SE,138,0.0,0.0,89,0.00,,---,0.02,VWS V14.00,2013-01-10 20:15:00,
2013-01-10 14:16:00,56.6,53.4,29.85,SE,138,0.0,0.0,89,0.00,,---,0.02,VWS V14.00,2013-01-10 20:16:00,
2013-01-10 14:17:00,56.7,53.5,29.85,SE,138,2.0,3.0,89,0.00,,---,0.02,VWS V14.00,2013-01-10 20:17:00,
2013-01-10 14:18:00,56.6,53.4,29.85,SE,138,0.0,2.0,89,0.00,,---,0.02,VWS V14.00,2013-01-10 20:18:00,
2013-01-10 14:19:00,56.6,53.4,29.85,SE,138,4.0,4.0,89,0.00,,---,0.02,VWS V14.00,2013-01-10 20:19:00,
2013-01-10 14:20:00,56.6,53.4,29.85,SE,138,0.0,4.0,89,0.00,,---,0.02,VWS V14.00,2013-01-10 20:20:00,
2013-01-10 14:21:00,57.2,54.3,29.85,SE,138,1.0,3.0,90,0.00,,---,0.02,VWS V14.00,2013-01-10 20:21:00,
2013-01-10 14:22:00,56.9,54.0,29.85,SE,138,3.0,3.0,90,0.00,,---,0.02,VWS V14.00,2013-01-10 20:22:00,
2013-01-10 14:23:00,57.0,54.1,29.85,SE,138,3.0,6.0,90,0.00,,---,0.02,VWS V14.00,2013-01-10 20:23:00,
2013-01-10 14:24:00,57.2,54.3,29.85,SE,138,4.0,5.0,90,0.00,,---,0.02,VWS V14.00,2013-01-10 20:24:00,
2013-01-10 14:25:00,57.3,54.4,29.85,SE,138,0.0,4.0,90,0.00,,---,0.02,VWS V14.00,2013-01-10 20:25:00,
2013-01-10 14:26:00,58.0,55.1,29.84,South,177,13.0,13.0,90,0.00,,---,0.02,VWS V14.00,2013-01-10 20:26:00,
2013-01-10 14:27:00,57.5,54.6,29.85,SE,138,13.0,13.0,90,0.00,,---,0.02,VWS V14.00,2013-01-10 20:27:00,
2013-01-10 14:28:00,57.8,54.9,29.84,South,183,4.0,13.0,90,0.00,,---,0.02,VWS V14.00,2013-01-10 20:28:00,
2013-01-10 14:29:00,58.3,55.4,29.84,South,176,3.0,13.0,90,0.00,,---,0.02,VWS V14.00,2013-01-10 20:29:00,
2013-01-10 14:30:00,58.6,55.7,29.84,South,175,9.0,11.0,90,0.00,,---,0.02,VWS V14.00,2013-01-10 20:30:00,
2013-01-10 14:31:00,59.0,55.8,29.84,South,172,6.0,6.0,89,0.00,,---,0.02,VWS V14.00,2013-01-10 20:31:00,
2013-01-10 14:32:00,58.9,55.7,29.84,South,172,5.0,10.0,89,0.00,,---,0.02,VWS V14.00,2013-01-10 20:32:00,
2013-01-10 14:33:00,59.0,55.8,29.84,South,172,3.0,7.0,89,0.00,,---,0.02,VWS V14.00,2013-01-10 20:33:00,
2013-01-10 14:34:00,59.2,56.0,29.84,South,172,3.0,6.0,89,0.00,,---,0.02,VWS V14.00,2013-01-10 20:34:00,
2013-01-10 14:35:00,59.2,55.7,29.84,South,172,3.0,5.0,88,0.00,,---,0.02,VWS V14.00,2013-01-10 20:35:00,
2013-01-10 14:36:00,59.5,56.0,29.84,South,169,3.0,7.0,88,0.00,,---,0.02,VWS V14.00,2013-01-10 20:36:00,
2013-01-10 14:37:00,59.3,55.8,29.84,South,172,7.0,7.0,88,0.00,,---,0.02,VWS V14.00,2013-01-10 20:37:00,
2013-01-10 14:38:00,59.5,56.0,29.84,South,169,5.0,12.0,88,0.00,,---,0.02,VWS V14.00,2013-01-10 20:38:00,
2013-01-10 14:39:00,59.5,56.0,29.84,South,169,8.0,8.0,88,0.00,,---,0.02,VWS V14.00,2013-01-10 20:39:00,
2013-01-10 14:40:00,59.6,55.7,29.84,South,170,3.0,9.0,87,0.00,,---,0.02,VWS V14.00,2013-01-10 20:40:00,
2013-01-10 14:41:00,59.6,55.7,29.84,South,170,9.0,9.0,87,0.00,,---,0.02,VWS V14.00,2013-01-10 20:41:00,
2013-01-10 14:42:00,59.8,55.9,29.83,South,170,5.0,6.0,87,0.00,,---,0.02,VWS V14.00,2013-01-10 20:42:00,
2013-01-10 14:43:00,59.8,55.9,29.84,South,170,3.0,7.0,87,0.00,,---,0.02,VWS V14.00,2013-01-10 20:43:00,
2013-01-10 14:44:00,59.6,55.7,29.83,SSE,166,9.0,13.0,87,0.00,,---,0.02,VWS V14.00,2013-01-10 20:44:00,
2013-01-10 14:45:00,59.8,55.6,29.84,SSE,165,2.0,10.0,86,0.00,,---,0.02,VWS V14.00,2013-01-10 20:45:00,
2013-01-10 14:46:00,59.9,56.0,29.83,SSE,165,4.0,7.0,87,0.00,,---,0.02,VWS V14.00,2013-01-10 20:46:00,
2013-01-10 14:47:00,59.8,55.9,29.83,SSE,165,3.0,3.0,87,0.00,,---,0.02,VWS V14.00,2013-01-10 20:47:00,
2013-01-10 14:48:00,59.8,55.9,29.83,SSE,165,5.0,7.0,87,0.00,,---,0.02,VWS V14.00,2013-01-10 20:48:00,
2013-01-10 14:49:00,59.9,56.0,29.83,SSE,165,5.0,7.0,87,0.00,,---,0.02,VWS V14.00,2013-01-10 20:49:00,
2013-01-10 14:50:00,59.9,55.7,29.83,SSE,165,2.0,5.0,86,0.00,,---,0.02,VWS V14.00,2013-01-10 20:50:00,
2013-01-10 14:51:00,59.9,55.7,29.83,SSE,165,3.0,4.0,86,0.00,,---,0.02,VWS V14.00,2013-01-10 20:51:00,
2013-01-10 14:52:00,59.9,55.7,29.83,SSE,165,4.0,5.0,86,0.00,,---,0.02,VWS V14.00,2013-01-10 20:52:00,
2013-01-10 14:53:00,59.9,55.7,29.83,SSE,165,2.0,5.0,86,0.00,,---,0.02,VWS V14.00,2013-01-10 20:53:00,
2013-01-10 14:54:00,59.9,55.7,29.83,SSE,165,3.0,4.0,86,0.00,,---,0.02,VWS V14.00,2013-01-10 20:54:00,
2013-01-10 14:55:00,59.9,55.7,29.83,SSE,165,4.0,7.0,86,0.00,,---,0.02,VWS V14.00,2013-01-10 20:55:00,
2013-01-10 14:56:00,59.9,55.7,29.83,SSE,165,7.0,7.0,86,0.00,,---,0.02,VWS V14.00,2013-01-10 20:56:00,
2013-01-10 14:57:00,59.9,55.7,29.83,SSE,165,6.0,6.0,86,0.00,,---,0.02,VWS V14.00,2013-01-10 20:57:00,
2013-01-10 14:58:00,59.9,55.7,29.83,SSE,165,3.0,9.0,86,0.00,,---,0.02,VWS V14.00,2013-01-10 20:58:00,
2013-01-10 14:59:00,59.9,55.7,29.83,SSE,166,7.0,10.0,86,0.00,,---,0.02,VWS V14.00,2013-01-10 20:59:00,
2013-01-10 15:00:00,60.1,55.9,29.83,SSE,167,7.0,10.0,86,0.00,,---,0.02,VWS V14.00,2013-01-10 21:00:00,
2013-01-10 15:01:00,60.1,55.9,29.83,SSE,167,5.0,11.0,86,0.00,,---,0.02,VWS V14.00,2013-01-10 21:01:00,
2013-01-10 15:02:00,60.1,55.9,29.83,SSE,167,0.0,8.0,86,0.00,,---,0.02,VWS V14.00,2013-01-10 21:02:00,
2013-01-10 15:03:00,60.1,55.9,29.83,SSE,167,11.0,11.0,86,0.00,,---,0.02,VWS V14.00,2013-01-10 21:03:00,
2013-01-10 15:04:00,60.1,55.9,29.83,South,170,4.0,11.0,86,0.00,,---,0.02,VWS V14.00,2013-01-10 21:04:00,
2013-01-10 15:05:00,60.1,55.9,29.83,SSE,168,9.0,11.0,86,0.00,,---,0.02,VWS V14.00,2013-01-10 21:05:00,
2013-01-10 15:06:00,60.1,55.9,29.83,South,169,4.0,8.0,86,0.00,,---,0.02,VWS V14.00,2013-01-10 21:06:00,
2013-01-10 15:07:00,60.1,55.9,29.83,South,169,4.0,6.0,86,0.00,,---,0.02,VWS V14.00,2013-01-10 21:07:00,
2013-01-10 15:08:00,60.1,55.9,29.83,South,169,8.0,10.0,86,0.00,,---,0.02,VWS V14.00,2013-01-10 21:08:00,
2013-01-10 15:09:00,60.1,55.9,29.83,South,169,5.0,8.0,86,0.00,,---,0.02,VWS V14.00,2013-01-10 21:09:00,
2013-01-10 15:10:00,59.9,55.7,29.83,South,169,1.0,6.0,86,0.00,,---,0.02,VWS V14.00,2013-01-10 21:10:00,
2013-01-10 15:11:00,59.9,55.7,29.83,SSE,167,10.0,10.0,86,0.00,,---,0.02,VWS V14.00,2013-01-10 21:11:00,
2013-01-10 15:12:00,59.9,55.7,29.83,SSE,168,5.0,9.0,86,0.00,,---,0.02,VWS V14.00,2013-01-10 21:12:00,
2013-01-10 15:13:00,59.9,55.7,29.83,SSE,167,3.0,11.0,86,0.00,,---,0.02,VWS V14.00,2013-01-10 21:13:00,
2013-01-10 15:14:00,59.8,55.6,29.83,SSE,167,5.0,10.0,86,0.00,,---,0.02,VWS V14.00,2013-01-10 21:14:00,
2013-01-10 15:15:00,59.8,55.6,29.83,SSE,167,8.0,9.0,86,0.00,,---,0.02,VWS V14.00,2013-01-10 21:15:00,
2013-01-10 15:16:00,59.5,55.6,29.83,SSE,167,4.0,6.0,87,0.00,,---,0.02,VWS V14.00,2013-01-10 21:16:00,
2013-01-10 15:17:00,59.6,55.7,29.83,SSE,167,3.0,7.0,87,0.00,,---,0.02,VWS V14.00,2013-01-10 21:17:00,
2013-01-10 15:18:00,59.5,55.6,29.83,SSE,167,5.0,6.0,87,0.00,,---,0.02,VWS V14.00,2013-01-10 21:18:00,
2013-01-10 15:19:00,59.5,55.6,29.83,SSE,167,7.0,10.0,87,0.00,,---,0.02,VWS V14.00,2013-01-10 21:19:00,
2013-01-10 15:20:00,59.5,55.6,29.83,SSE,165,10.0,12.0,87,0.00,,---,0.02,VWS V14.00,2013-01-10 21:20:00,
2013-01-10 15:21:00,59.3,55.4,29.83,SSE,165,7.0,7.0,87,0.00,,---,0.02,VWS V14.00,2013-01-10 21:21:00,
2013-01-10 15:22:00,59.3,55.4,29.83,SSE,165,8.0,9.0,87,0.00,,---,0.02,VWS V14.00,2013-01-10 21:22:00,
2013-01-10 15:23:00,59.3,55.4,29.83,SSE,165,7.0,8.0,87,0.00,,---,0.02,VWS V14.00,2013-01-10 21:23:00,
2013-01-10 15:24:00,59.3,55.4,29.83,SSE,165,4.0,7.0,87,0.00,,---,0.02,VWS V14.00,2013-01-10 21:24:00,
2013-01-10 15:25:00,59.2,55.3,29.84,SSE,165,3.0,4.0,87,0.00,,---,0.02,VWS V14.00,2013-01-10 21:25:00,
2013-01-10 15:26:00,59.2,55.7,29.83,SSE,165,3.0,9.0,88,0.00,,---,0.02,VWS V14.00,2013-01-10 21:26:00,
2013-01-10 15:27:00,59.2,55.7,29.83,SSE,165,9.0,11.0,88,0.00,,---,0.02,VWS V14.00,2013-01-10 21:27:00,
2013-01-10 15:28:00,59.2,55.7,29.83,SSE,165,9.0,9.0,88,0.00,,---,0.02,VWS V14.00,2013-01-10 21:28:00,
2013-01-10 15:29:00,59.2,55.7,29.83,SSE,165,6.0,9.0,88,0.00,,---,0.02,VWS V14.00,2013-01-10 21:29:00,
2013-01-10 15:30:00,59.2,55.7,29.83,SSE,165,9.0,9.0,88,0.00,,---,0.02,VWS V14.00,2013-01-10 21:30:00,
2013-01-10 15:31:00,59.0,55.5,29.83,SSE,164,2.0,4.0,88,0.00,,---,0.02,VWS V14.00,2013-01-10 21:31:00,
2013-01-10 15:32:00,59.2,55.7,29.83,SSE,164,4.0,6.0,88,0.00,,---,0.02,VWS V14.00,2013-01-10 21:32:00,
2013-01-10 15:33:00,59.0,55.5,29.83,SSE,164,4.0,7.0,88,0.00,,---,0.02,VWS V14.00,2013-01-10 21:33:00,
2013-01-10 15:34:00,59.0,55.5,29.84,SSE,164,5.0,7.0,88,0.00,,---,0.02,VWS V14.00,2013-01-10 21:34:00,
2013-01-10 15:35:00,59.2,55.7,29.84,SSE,164,5.0,9.0,88,0.01,,---,0.03,VWS V14.00,2013-01-10 21:35:00,
2013-01-10 15:36:00,59.2,56.0,29.84,SSE,164,5.0,5.0,89,0.02,,---,0.04,VWS V14.00,2013-01-10 21:36:00,
2013-01-10 15:37:00,59.2,55.7,29.84,SSE,164,3.0,6.0,88,0.02,,---,0.04,VWS V14.00,2013-01-10 21:37:00,
2013-01-10 15:38:00,59.2,56.0,29.84,SSE,164,4.0,9.0,89,0.02,,---,0.04,VWS V14.00,2013-01-10 21:38:00,
2013-01-10 15:39:00,59.2,56.0,29.84,SSE,164,4.0,5.0,89,0.02,,---,0.04,VWS V14.00,2013-01-10 21:39:00,
2013-01-10 15:40:00,59.0,55.8,29.84,SSE,164,3.0,6.0,89,0.02,,---,0.04,VWS V14.00,2013-01-10 21:40:00,
2013-01-10 15:41:00,58.9,55.7,29.84,SSE,164,0.0,4.0,89,0.02,,---,0.04,VWS V14.00,2013-01-10 21:41:00,
2013-01-10 15:42:00,59.0,55.8,29.84,SSE,164,0.0,5.0,89,0.02,,---,0.04,VWS V14.00,2013-01-10 21:42:00,
2013-01-10 15:43:00,59.0,55.8,29.84,SSE,164,4.0,4.0,89,0.02,,---,0.04,VWS V14.00,2013-01-10 21:43:00,
2013-01-10 15:44:00,58.9,55.7,29.84,SSE,164,3.0,4.0,89,0.02,,---,0.04,VWS V14.00,2013-01-10 21:44:00,
2013-01-10 15:45:00,58.9,55.7,29.84,SSE,164,1.0,4.0,89,0.02,,---,0.04,VWS V14.00,2013-01-10 21:45:00,
2013-01-10 15:46:00,58.6,55.4,29.84,SSE,164,0.0,0.0,89,0.02,,---,0.04,VWS V14.00,2013-01-10 21:46:00,
2013-01-10 15:47:00,58.7,55.5,29.84,SSE,164,1.0,3.0,89,0.02,,---,0.04,VWS V14.00,2013-01-10 21:47:00,
2013-01-10 15:48:00,58.7,55.5,29.84,SSE,164,0.0,1.0,89,0.02,,---,0.04,VWS V14.00,2013-01-10 21:48:00,
2013-01-10 15:49:00,58.6,55.4,29.84,SSE,164,1.0,1.0,89,0.02,,---,0.04,VWS V14.00,2013-01-10 21:49:00,
2013-01-10 15:50:00,58.6,55.4,29.84,SSE,164,0.0,2.0,89,0.02,,---,0.04,VWS V14.00,2013-01-10 21:50:00,
2013-01-10 15:51:00,58.6,55.7,29.84,SSE,164,0.0,0.0,90,0.03,,---,0.05,VWS V14.00,2013-01-10 21:51:00,
2013-01-10 15:52:00,58.6,55.4,29.84,SSE,164,0.0,0.0,89,0.03,,---,0.05,VWS V14.00,2013-01-10 21:52:00,
2013-01-10 15:53:00,58.6,55.7,29.84,SSE,164,0.0,0.0,90,0.03,,---,0.05,VWS V14.00,2013-01-10 21:53:00,
2013-01-10 15:54:00,58.4,55.5,29.84,SSE,164,0.0,0.0,90,0.03,,---,0.05,VWS V14.00,2013-01-10 21:54:00,
2013-01-10 15:55:00,58.4,55.5,29.84,SSE,164,0.0,0.0,90,0.03,,---,0.05,VWS V14.00,2013-01-10 21:55:00,
2013-01-10 15:56:00,58.4,55.5,29.83,SSE,164,0.0,0.0,90,0.03,,---,0.05,VWS V14.00,2013-01-10 21:56:00,
2013-01-10 15:57:00,58.4,55.5,29.83,SSE,164,0.0,1.0,90,0.03,,---,0.05,VWS V14.00,2013-01-10 21:57:00,
2013-01-10 15:58:00,58.4,55.5,29.83,SSE,164,0.0,1.0,90,0.03,,---,0.05,VWS V14.00,2013-01-10 21:58:00,
2013-01-10 15:59:00,58.3,55.4,29.84,SSE,164,0.0,0.0,90,0.03,,---,0.05,VWS V14.00,2013-01-10 21:59:00,
2013-01-10 16:00:00,58.3,55.4,29.84,SSE,164,0.0,0.0,90,0.03,,---,0.05,VWS V14.00,2013-01-10 22:00:00,
2013-01-10 16:01:00,58.1,55.2,29.85,SSE,164,0.0,0.0,90,0.04,,---,0.06,VWS V14.00,2013-01-10 22:01:00,
2013-01-10 16:02:00,58.3,55.4,29.85,SSE,164,0.0,0.0,90,0.03,,---,0.05,VWS V14.00,2013-01-10 22:02:00,
2013-01-10 16:03:00,58.1,55.2,29.85,SSE,164,0.0,0.0,90,0.04,,---,0.06,VWS V14.00,2013-01-10 22:03:00,
2013-01-10 16:04:00,58.1,55.2,29.85,SSE,164,0.0,0.0,90,0.04,,---,0.06,VWS V14.00,2013-01-10 22:04:00,
2013-01-10 16:05:00,58.1,55.2,29.85,SSE,164,0.0,0.0,90,0.04,,---,0.06,VWS V14.00,2013-01-10 22:05:00,
2013-01-10 16:06:00,57.8,54.9,29.84,SSE,164,0.0,0.0,90,0.04,,---,0.06,VWS V14.00,2013-01-10 22:06:00,
2013-01-10 16:07:00,57.8,54.9,29.84,SSE,164,0.0,0.0,90,0.04,,---,0.06,VWS V14.00,2013-01-10 22:07:00,
2013-01-10 16:08:00,57.8,54.9,29.84,SSE,164,0.0,0.0,90,0.04,,---,0.06,VWS V14.00,2013-01-10 22:08:00,
2013-01-10 16:09:00,57.8,55.2,29.84,SSE,164,0.0,0.0,91,0.04,,---,0.06,VWS V14.00,2013-01-10 22:09:00,
2013-01-10 16:10:00,57.6,55.0,29.85,SSE,164,0.0,0.0,91,0.04,,---,0.06,VWS V14.00,2013-01-10 22:10:00,
2013-01-10 16:11:00,57.6,55.0,29.85,SSE,164,0.0,0.0,91,0.04,,---,0.06,VWS V14.00,2013-01-10 22:11:00,
2013-01-10 16:12:00,57.6,55.0,29.85,SSE,164,0.0,0.0,91,0.04,,---,0.06,VWS V14.00,2013-01-10 22:12:00,
2013-01-10 16:13:00,57.6,55.0,29.85,SSE,164,0.0,0.0,91,0.04,,---,0.06,VWS V14.00,2013-01-10 22:13:00,
2013-01-10 16:14:00,57.6,55.0,29.85,SSE,164,0.0,0.0,91,0.05,,---,0.07,VWS V14.00,2013-01-10 22:14:00,
2013-01-10 16:15:00,57.6,55.0,29.85,SSE,164,0.0,0.0,91,0.05,,---,0.07,VWS V14.00,2013-01-10 22:15:00,
2013-01-10 16:16:00,57.6,55.3,29.85,SSE,164,0.0,0.0,92,0.07,,---,0.09,VWS V14.00,2013-01-10 22:16:00,
2013-01-10 16:17:00,57.6,55.0,29.85,SSE,164,0.0,0.0,91,0.06,,---,0.08,VWS V14.00,2013-01-10 22:17:00,
2013-01-10 16:18:00,57.6,55.3,29.85,SSE,164,0.0,0.0,92,0.07,,---,0.09,VWS V14.00,2013-01-10 22:18:00,
2013-01-10 16:19:00,57.5,55.2,29.85,SSE,164,0.0,0.0,92,0.07,,---,0.09,VWS V14.00,2013-01-10 22:19:00,
2013-01-10 16:20:00,57.5,55.2,29.85,SSE,164,0.0,0.0,92,0.08,,---,0.10,VWS V14.00,2013-01-10 22:20:00,
2013-01-10 16:21:00,57.5,55.2,29.85,SSE,164,0.0,0.0,92,0.08,,---,0.10,VWS V14.00,2013-01-10 22:21:00,
2013-01-10 16:22:00,57.5,55.2,29.85,SSE,164,0.0,0.0,92,0.08,,---,0.10,VWS V14.00,2013-01-10 22:22:00,
2013-01-10 16:23:00,57.5,55.2,29.85,SSE,164,0.0,0.0,92,0.08,,---,0.10,VWS V14.00,2013-01-10 22:23:00,
2013-01-10 16:24:00,57.5,55.2,29.85,SSE,164,0.0,0.0,92,0.08,,---,0.10,VWS V14.00,2013-01-10 22:24:00,
2013-01-10 16:25:00,57.5,55.2,29.85,SSE,164,2.0,2.0,92,0.09,,---,0.11,VWS V14.00,2013-01-10 22:25:00,
2013-01-10 16:26:00,57.0,54.7,29.85,SSE,164,3.0,3.0,92,0.09,,---,0.11,VWS V14.00,2013-01-10 22:26:00,
2013-01-10 16:27:00,57.3,55.0,29.85,SSE,164,4.0,4.0,92,0.09,,---,0.11,VWS V14.00,2013-01-10 22:27:00,
2013-01-10 16:28:00,57.2,54.9,29.85,SSE,164,3.0,5.0,92,0.09,,---,0.11,VWS V14.00,2013-01-10 22:28:00,
2013-01-10 16:29:00,56.9,54.6,29.85,SSE,164,2.0,3.0,92,0.09,,---,0.11,VWS V14.00,2013-01-10 22:29:00,
2013-01-10 16:30:00,56.7,54.4,29.85,SSE,164,0.0,2.0,92,0.09,,---,0.11,VWS V14.00,2013-01-10 22:30:00,
2013-01-10 16:31:00,56.7,54.4,29.84,SSE,164,0.0,0.0,92,0.09,,---,0.11,VWS V14.00,2013-01-10 22:31:00,
2013-01-10 16:32:00,56.7,54.4,29.84,SSE,164,0.0,0.0,92,0.09,,---,0.11,VWS V14.00,2013-01-10 22:32:00,
2013-01-10 16:33:00,56.7,54.4,29.84,SSE,164,0.0,0.0,92,0.09,,---,0.11,VWS V14.00,2013-01-10 22:33:00,
2013-01-10 16:34:00,56.7,54.4,29.84,SSE,164,0.0,0.0,92,0.09,,---,0.11,VWS V14.00,2013-01-10 22:34:00,
2013-01-10 16:35:00,56.6,54.3,29.84,SSE,164,0.0,0.0,92,0.09,,---,0.11,VWS V14.00,2013-01-10 22:35:00,
2013-01-10 16:36:00,56.9,54.9,29.85,SSE,164,1.0,1.0,93,0.07,,---,0.11,VWS V14.00,2013-01-10 22:36:00,
2013-01-10 16:37:00,56.7,54.7,29.85,SSE,164,0.0,0.0,93,0.08,,---,0.11,VWS V14.00,2013-01-10 22:37:00,
2013-01-10 16:38:00,56.9,54.9,29.85,SSE,164,0.0,0.0,93,0.07,,---,0.11,VWS V14.00,2013-01-10 22:38:00,
2013-01-10 16:39:00,57.0,55.0,29.85,SSE,164,5.0,5.0,93,0.07,,---,0.11,VWS V14.00,2013-01-10 22:39:00,
2013-01-10 16:40:00,57.2,55.2,29.85,SSE,164,4.0,6.0,93,0.07,,---,0.11,VWS V14.00,2013-01-10 22:40:00,
2013-01-10 16:41:00,57.0,55.0,29.85,WSW,257,10.0,13.0,93,0.10,,---,0.14,VWS V14.00,2013-01-10 22:41:00,
2013-01-10 16:42:00,57.2,55.2,29.85,SSE,164,0.0,3.0,93,0.09,,---,0.13,VWS V14.00,2013-01-10 22:42:00,
2013-01-10 16:43:00,57.2,55.2,29.85,WSW,240,9.0,16.0,93,0.10,,---,0.14,VWS V14.00,2013-01-10 22:43:00,
2013-01-10 16:44:00,57.0,55.0,29.86,WSW,255,6.0,13.0,93,0.10,,---,0.14,VWS V14.00,2013-01-10 22:44:00,
2013-01-10 16:45:00,57.0,55.0,29.86,WSW,237,6.0,6.0,93,0.10,,---,0.14,VWS V14.00,2013-01-10 22:45:00,
2013-01-10 16:46:00,56.9,54.6,29.85,SW,235,0.0,1.0,92,0.11,,---,0.15,VWS V14.00,2013-01-10 22:46:00,
2013-01-10 16:47:00,57.0,54.7,29.85,SW,236,5.0,6.0,92,0.10,,---,0.14,VWS V14.00,2013-01-10 22:47:00,
2013-01-10 16:48:00,56.9,54.6,29.85,SW,235,0.0,5.0,92,0.11,,---,0.15,VWS V14.00,2013-01-10 22:48:00,
2013-01-10 16:49:00,56.9,54.6,29.85,SW,235,3.0,3.0,92,0.11,,---,0.15,VWS V14.00,2013-01-10 22:49:00,
2013-01-10 16:50:00,56.7,54.1,29.85,SW,217,5.0,7.0,91,0.11,,---,0.15,VWS V14.00,2013-01-10 22:50:00,
2013-01-10 16:51:00,56.7,53.8,29.85,SSW,194,1.0,3.0,90,0.11,,---,0.16,VWS V14.00,2013-01-10 22:51:00,
2013-01-10 16:52:00,56.7,54.1,29.85,SSW,192,9.0,13.0,91,0.12,,---,0.16,VWS V14.00,2013-01-10 22:52:00,
2013-01-10 16:53:00,56.7,54.1,29.85,SSW,194,0.0,12.0,91,0.11,,---,0.16,VWS V14.00,2013-01-10 22:53:00,
2013-01-10 16:54:00,56.7,53.8,29.85,SSW,194,0.0,3.0,90,0.11,,---,0.16,VWS V14.00,2013-01-10 22:54:00,
2013-01-10 16:55:00,56.7,53.8,29.85,SSW,194,0.0,0.0,90,0.11,,---,0.16,VWS V14.00,2013-01-10 22:55:00,
2013-01-10 16:56:00,56.6,53.4,29.85,SSW,194,2.0,2.0,89,0.11,,---,0.16,VWS V14.00,2013-01-10 22:56:00,
2013-01-10 16:57:00,56.6,53.7,29.86,SSW,194,0.0,6.0,90,0.11,,---,0.16,VWS V14.00,2013-01-10 22:57:00,
2013-01-10 16:58:00,56.6,53.4,29.85,SSW,194,0.0,1.0,89,0.11,,---,0.16,VWS V14.00,2013-01-10 22:58:00,
2013-01-10 16:59:00,56.6,53.4,29.85,SSW,194,3.0,3.0,89,0.11,,---,0.16,VWS V14.00,2013-01-10 22:59:00,
2013-01-10 17:00:00,56.6,53.4,29.85,SSW,194,2.0,4.0,89,0.11,,---,0.16,VWS V14.00,2013-01-10 23:00:00,
2013-01-10 17:01:00,56.5,53.3,29.86,SSW,194,1.0,5.0,89,0.10,,---,0.16,VWS V14.00,2013-01-10 23:01:00,
2013-01-10 17:02:00,56.5,53.3,29.85,SSW,194,1.0,1.0,89,0.11,,---,0.16,VWS V14.00,2013-01-10 23:02:00,
2013-01-10 17:03:00,56.5,53.3,29.86,SSW,194,3.0,4.0,89,0.11,,---,0.16,VWS V14.00,2013-01-10 23:03:00,
2013-01-10 17:04:00,56.5,53.3,29.86,SSW,194,2.0,5.0,89,0.10,,---,0.16,VWS V14.00,2013-01-10 23:04:00,
2013-01-10 17:05:00,56.5,53.3,29.86,SSW,194,0.0,8.0,89,0.10,,---,0.16,VWS V14.00,2013-01-10 23:05:00,
2013-01-10 17:06:00,56.5,53.3,29.86,SSW,194,0.0,0.0,89,0.10,,---,0.16,VWS V14.00,2013-01-10 23:06:00,
2013-01-10 17:07:00,56.5,53.3,29.86,SSW,194,0.0,0.0,89,0.10,,---,0.16,VWS V14.00,2013-01-10 23:07:00,
2013-01-10 17:08:00,56.5,53.3,29.86,SSW,194,0.0,0.0,89,0.10,,---,0.16,VWS V14.00,2013-01-10 23:08:00,
2013-01-10 17:09:00,56.5,53.3,29.86,SSW,194,2.0,2.0,89,0.10,,---,0.16,VWS V14.00,2013-01-10 23:09:00,
2013-01-10 17:10:00,56.5,53.3,29.86,SSW,194,0.0,3.0,89,0.10,,---,0.16,VWS V14.00,2013-01-10 23:10:00,
2013-01-10 17:11:00,56.5,53.3,29.86,SSW,194,0.0,1.0,89,0.10,,---,0.16,VWS V14.00,2013-01-10 23:11:00,
2013-01-10 17:12:00,56.3,53.1,29.86,SSW,194,0.0,0.0,89,0.10,,---,0.16,VWS V14.00,2013-01-10 23:12:00,
2013-01-10 17:13:00,56.5,53.3,29.86,SSW,194,0.0,0.0,89,0.10,,---,0.16,VWS V14.00,2013-01-10 23:13:00,
2013-01-10 17:14:00,56.3,53.1,29.86,SSW,194,0.0,0.0,89,0.10,,---,0.16,VWS V14.00,2013-01-10 23:14:00,
2013-01-10 17:15:00,56.3,53.1,29.86,SSW,194,0.0,0.0,89,0.09,,---,0.16,VWS V14.00,2013-01-10 23:15:00,
2013-01-10 17:16:00,56.3,53.1,29.87,SSW,194,0.0,0.0,89,0.09,,---,0.16,VWS V14.00,2013-01-10 23:16:00,
2013-01-10 17:17:00,56.3,53.1,29.87,SSW,194,0.0,0.0,89,0.07,,---,0.16,VWS V14.00,2013-01-10 23:17:00,
2013-01-10 17:18:00,56.3,53.1,29.87,SSW,194,0.0,0.0,89,0.08,,---,0.16,VWS V14.00,2013-01-10 23:18:00,
2013-01-10 17:19:00,56.3,53.1,29.87,SSW,194,0.0,2.0,89,0.07,,---,0.16,VWS V14.00,2013-01-10 23:19:00,
2013-01-10 17:20:00,56.3,53.1,29.87,SSW,194,5.0,5.0,89,0.07,,---,0.16,VWS V14.00,2013-01-10 23:20:00,
2013-01-10 17:21:00,56.3,53.1,29.87,SSW,194,5.0,5.0,89,0.06,,---,0.16,VWS V14.00,2013-01-10 23:21:00,
2013-01-10 17:22:00,56.5,53.3,29.87,SSW,194,3.0,3.0,89,0.06,,---,0.16,VWS V14.00,2013-01-10 23:22:00,
2013-01-10 17:23:00,56.5,53.3,29.87,SSW,194,4.0,5.0,89,0.06,,---,0.16,VWS V14.00,2013-01-10 23:23:00,
2013-01-10 17:24:00,56.5,53.3,29.87,SSW,194,2.0,4.0,89,0.06,,---,0.16,VWS V14.00,2013-01-10 23:24:00,
2013-01-10 17:25:00,56.5,53.3,29.87,SSW,194,2.0,6.0,89,0.06,,---,0.16,VWS V14.00,2013-01-10 23:25:00,
2013-01-10 17:26:00,56.5,53.3,29.87,SSW,194,0.0,4.0,89,0.05,,---,0.16,VWS V14.00,2013-01-10 23:26:00,
2013-01-10 17:27:00,56.5,53.3,29.87,SSW,194,2.0,4.0,89,0.05,,---,0.16,VWS V14.00,2013-01-10 23:27:00,
2013-01-10 17:28:00,56.5,53.3,29.87,SSW,194,0.0,0.0,89,0.05,,---,0.16,VWS V14.00,2013-01-10 23:28:00,
2013-01-10 17:29:00,56.5,53.3,29.87,SSW,194,2.0,4.0,89,0.05,,---,0.16,VWS V14.00,2013-01-10 23:29:00,
2013-01-10 17:30:00,56.5,53.3,29.87,SSW,194,2.0,3.0,89,0.05,,---,0.16,VWS V14.00,2013-01-10 23:30:00,
2013-01-10 17:31:00,56.5,53.3,29.87,SSW,194,0.0,2.0,89,0.05,,---,0.16,VWS V14.00,2013-01-10 23:31:00,
2013-01-10 17:32:00,56.3,53.1,29.87,SSW,194,0.0,0.0,89,0.05,,---,0.16,VWS V14.00,2013-01-10 23:32:00,
2013-01-10 17:33:00,56.3,53.1,29.87,SSW,194,0.0,0.0,89,0.05,,---,0.16,VWS V14.00,2013-01-10 23:33:00,
2013-01-10 17:34:00,56.3,53.1,29.87,SSW,194,0.0,0.0,89,0.05,,---,0.16,VWS V14.00,2013-01-10 23:34:00,
2013-01-10 17:35:00,56.3,53.1,29.87,SSW,194,0.0,0.0,89,0.05,,---,0.16,VWS V14.00,2013-01-10 23:35:00,
2013-01-10 17:36:00,56.3,53.1,29.87,SSW,194,0.0,0.0,89,0.05,,---,0.16,VWS V14.00,2013-01-10 23:36:00,
2013-01-10 17:37:00,56.3,53.1,29.87,SSW,194,0.0,0.0,89,0.05,,---,0.16,VWS V14.00,2013-01-10 23:37:00,
2013-01-10 17:38:00,56.3,53.1,29.87,SSW,194,0.0,0.0,89,0.05,,---,0.16,VWS V14.00,2013-01-10 23:38:00,
2013-01-10 17:39:00,56.3,53.1,29.87,SSW,194,0.0,0.0,89,0.05,,---,0.16,VWS V14.00,2013-01-10 23:39:00,
2013-01-10 17:40:00,56.3,53.1,29.87,SSW,194,0.0,0.0,89,0.05,,---,0.16,VWS V14.00,2013-01-10 23:40:00,
2013-01-10 17:41:00,56.2,53.0,29.87,SSW,194,0.0,0.0,89,0.05,,---,0.16,VWS V14.00,2013-01-10 23:41:00,
2013-01-10 17:42:00,56.2,53.0,29.87,SSW,194,0.0,0.0,89,0.02,,---,0.16,VWS V14.00,2013-01-10 23:42:00,
2013-01-10 17:43:00,56.2,53.0,29.87,SSW,194,0.0,0.0,89,0.03,,---,0.16,VWS V14.00,2013-01-10 23:43:00,
2013-01-10 17:44:00,56.2,53.0,29.87,SSW,194,0.0,0.0,89,0.02,,---,0.16,VWS V14.00,2013-01-10 23:44:00,
2013-01-10 17:45:00,56.0,52.8,29.87,SSW,194,0.0,0.0,89,0.02,,---,0.16,VWS V14.00,2013-01-10 23:45:00,
2013-01-10 17:46:00,56.0,52.8,29.87,SSW,194,0.0,1.0,89,0.02,,---,0.16,VWS V14.00,2013-01-10 23:46:00,
2013-01-10 17:47:00,56.0,52.8,29.87,SSW,196,0.0,0.0,89,0.01,,---,0.16,VWS V14.00,2013-01-10 23:47:00,
2013-01-10 17:48:00,56.0,52.8,29.87,SSW,196,0.0,0.0,89,0.02,,---,0.16,VWS V14.00,2013-01-10 23:48:00,
2013-01-10 17:49:00,56.0,52.8,29.87,SSW,196,0.0,0.0,89,0.01,,---,0.16,VWS V14.00,2013-01-10 23:49:00,
2013-01-10 17:50:00,56.0,52.8,29.87,SSW,196,0.0,0.0,89,0.01,,---,0.16,VWS V14.00,2013-01-10 23:50:00,
2013-01-10 17:51:00,55.9,52.7,29.87,SSW,196,0.0,0.0,89,0.01,,---,0.16,VWS V14.00,2013-01-10 23:51:00,
2013-01-10 17:52:00,55.9,52.7,29.88,SSW,196,0.0,0.0,89,0.00,,---,0.16,VWS V14.00,2013-01-10 23:52:00,
2013-01-10 17:53:00,55.9,52.7,29.87,SSW,196,0.0,0.0,89,0.00,,---,0.16,VWS V14.00,2013-01-10 23:53:00,
2013-01-10 17:54:00,55.9,52.7,29.88,SSW,196,0.0,0.0,89,0.00,,---,0.16,VWS V14.00,2013-01-10 23:54:00,
2013-01-10 17:55:00,55.9,52.7,29.88,SSW,196,0.0,0.0,89,0.00,,---,0.16,VWS V14.00,2013-01-10 23:55:00,
2013-01-10 17:56:00,55.9,52.7,29.88,SSW,196,0.0,0.0,89,0.00,,---,0.16,VWS V14.00,2013-01-10 23:56:00,
2013-01-10 17:57:00,55.9,52.7,29.87,SSW,196,0.0,0.0,89,0.00,,---,0.16,VWS V14.00,2013-01-10 23:57:00,
2013-01-10 17:58:00,55.9,52.7,29.88,SSW,196,0.0,0.0,89,0.00,,---,0.16,VWS V14.00,2013-01-10 23:58:00,
2013-01-10 17:59:00,55.9,52.7,29.88,SSW,196,0.0,0.0,89,0.00,,---,0.16,VWS V14.00,2013-01-10 23:59:00,
2013-01-10 18:00:00,55.9,52.7,29.87,SSW,196,0.0,0.0,89,0.00,,---,0.16,VWS V14.00,2013-01-11 00:00:00,
2013-01-10 18:01:00,55.9,52.7,29.88,SSW,196,0.0,0.0,89,0.00,,---,0.16,VWS V14.00,2013-01-11 00:01:00,
2013-01-10 18:02:00,55.9,52.7,29.88,SSW,196,1.0,3.0,89,0.00,,---,0.16,VWS V14.00,2013-01-11 00:02:00,
2013-01-10 18:03:00,55.9,52.7,29.88,SSW,196,0.0,0.0,89,0.00,,---,0.16,VWS V14.00,2013-01-11 00:03:00,
2013-01-10 18:04:00,55.9,52.7,29.88,SSW,196,3.0,3.0,89,0.00,,---,0.16,VWS V14.00,2013-01-11 00:04:00,
2013-01-10 18:05:00,55.9,52.7,29.88,SSW,196,0.0,3.0,89,0.00,,---,0.16,VWS V14.00,2013-01-11 00:05:00,
2013-01-10 18:06:00,55.9,52.7,29.88,SSW,196,0.0,0.0,89,0.00,,---,0.16,VWS V14.00,2013-01-11 00:06:00,
2013-01-10 18:07:00,55.7,52.5,29.88,SSW,196,0.0,0.0,89,0.00,,---,0.16,VWS V14.00,2013-01-11 00:07:00,
2013-01-10 18:08:00,55.9,52.7,29.88,SSW,196,0.0,0.0,89,0.00,,---,0.16,VWS V14.00,2013-01-11 00:08:00,
2013-01-10 18:09:00,55.7,52.5,29.88,SSW,196,0.0,0.0,89,0.00,,---,0.16,VWS V14.00,2013-01-11 00:09:00,
2013-01-10 18:10:00,55.7,52.5,29.87,SSW,196,0.0,0.0,89,0.00,,---,0.16,VWS V14.00,2013-01-11 00:10:00,
2013-01-10 18:11:00,55.7,52.5,29.88,SSW,196,1.0,4.0,89,0.00,,---,0.16,VWS V14.00,2013-01-11 00:11:00,
2013-01-10 18:12:00,55.7,52.5,29.88,SSW,197,2.0,4.0,89,0.00,,---,0.16,VWS V14.00,2013-01-11 00:12:00,
2013-01-10 18:13:00,55.7,52.5,29.88,SSW,196,2.0,3.0,89,0.00,,---,0.16,VWS V14.00,2013-01-11 00:13:00,
2013-01-10 18:14:00,55.7,52.5,29.88,SSW,197,4.0,5.0,89,0.00,,---,0.16,VWS V14.00,2013-01-11 00:14:00,
2013-01-10 18:15:00,55.7,52.5,29.88,SSW,197,0.0,4.0,89,0.00,,---,0.16,VWS V14.00,2013-01-11 00:15:00,
2013-01-10 18:16:00,55.7,52.5,29.88,SSW,197,1.0,1.0,89,0.00,,---,0.16,VWS V14.00,2013-01-11 00:16:00,
2013-01-10 18:17:00,55.7,52.5,29.88,SSW,198,2.0,2.0,89,0.00,,---,0.16,VWS V14.00,2013-01-11 00:17:00,
2013-01-10 18:18:00,55.7,52.5,29.88,SSW,198,2.0,3.0,89,0.00,,---,0.16,VWS V14.00,2013-01-11 00:18:00,
2013-01-10 18:19:00,55.7,52.5,29.88,SSW,198,0.0,3.0,89,0.00,,---,0.16,VWS V14.00,2013-01-11 00:19:00,
2013-01-10 18:20:00,55.7,52.5,29.88,SSW,198,0.0,2.0,89,0.00,,---,0.16,VWS V14.00,2013-01-11 00:20:00,
2013-01-10 18:21:00,55.7,52.2,29.89,SSW,198,0.0,0.0,88,0.00,,---,0.16,VWS V14.00,2013-01-11 00:21:00,
2013-01-10 18:22:00,55.6,52.1,29.89,SSW,198,0.0,3.0,88,0.00,,---,0.16,VWS V14.00,2013-01-11 00:22:00,
2013-01-10 18:23:00,55.6,52.1,29.89,SSW,198,0.0,0.0,88,0.00,,---,0.16,VWS V14.00,2013-01-11 00:23:00,
2013-01-10 18:24:00,55.6,52.1,29.89,SSW,198,3.0,3.0,88,0.00,,---,0.16,VWS V14.00,2013-01-11 00:24:00,
2013-01-10 18:25:00,55.6,52.1,29.89,WNW,299,2.0,3.0,88,0.00,,---,0.16,VWS V14.00,2013-01-11 00:25:00,
2013-01-10 18:26:00,55.6,52.1,29.89,WSW,254,2.0,11.0,88,0.00,,---,0.16,VWS V14.00,2013-01-11 00:26:00,
2013-01-10 18:27:00,55.4,51.9,29.89,WSW,254,4.0,4.0,88,0.00,,---,0.16,VWS V14.00,2013-01-11 00:27:00,
2013-01-10 18:28:00,55.4,51.9,29.89,WSW,254,0.0,1.0,88,0.00,,---,0.16,VWS V14.00,2013-01-11 00:28:00,
2013-01-10 18:29:00,55.4,51.9,29.89,WSW,254,0.0,0.0,88,0.00,,---,0.16,VWS V14.00,2013-01-11 00:29:00,
2013-01-10 18:30:00,55.4,51.9,29.89,WSW,254,1.0,4.0,88,0.00,,---,0.16,VWS V14.00,2013-01-11 00:30:00,
2013-01-10 18:31:00,55.3,51.8,29.89,WSW,254,2.0,6.0,88,0.00,,---,0.16,VWS V14.00,2013-01-11 00:31:00,
2013-01-10 18:32:00,55.1,51.6,29.89,WSW,254,0.0,0.0,88,0.00,,---,0.16,VWS V14.00,2013-01-11 00:32:00,
2013-01-10 18:33:00,55.3,51.8,29.89,WSW,254,0.0,0.0,88,0.00,,---,0.16,VWS V14.00,2013-01-11 00:33:00,
2013-01-10 18:34:00,55.1,51.6,29.89,WSW,254,0.0,0.0,88,0.00,,---,0.16,VWS V14.00,2013-01-11 00:34:00,
2013-01-10 18:35:00,55.1,51.6,29.89,WSW,254,0.0,0.0,88,0.00,,---,0.16,VWS V14.00,2013-01-11 00:35:00,
2013-01-10 18:36:00,55.1,51.6,29.89,WSW,254,0.0,0.0,88,0.01,,---,0.17,VWS V14.00,2013-01-11 00:36:00,
2013-01-10 18:37:00,54.8,51.3,29.89,WSW,254,1.0,1.0,88,0.01,,---,0.17,VWS V14.00,2013-01-11 00:37:00,
2013-01-10 18:38:00,55.0,51.5,29.89,WSW,254,0.0,0.0,88,0.01,,---,0.17,VWS V14.00,2013-01-11 00:38:00,
2013-01-10 18:39:00,55.0,51.5,29.89,WSW,254,0.0,0.0,88,0.01,,---,0.17,VWS V14.00,2013-01-11 00:39:00,
2013-01-10 18:40:00,54.8,51.3,29.89,WSW,254,0.0,4.0,88,0.01,,---,0.17,VWS V14.00,2013-01-11 00:40:00,
2013-01-10 18:41:00,54.8,51.3,29.89,WSW,254,0.0,1.0,88,0.02,,---,0.18,VWS V14.00,2013-01-11 00:41:00,
2013-01-10 18:42:00,54.7,51.2,29.89,WSW,254,0.0,0.0,88,0.02,,---,0.18,VWS V14.00,2013-01-11 00:42:00,
2013-01-10 18:43:00,54.7,51.2,29.89,WSW,254,0.0,0.0,88,0.02,,---,0.18,VWS V14.00,2013-01-11 00:43:00,
2013-01-10 18:44:00,54.7,51.2,29.89,WSW,254,0.0,0.0,88,0.02,,---,0.18,VWS V14.00,2013-01-11 00:44:00,
2013-01-10 18:45:00,54.7,51.5,29.89,WSW,254,0.0,0.0,89,0.02,,---,0.18,VWS V14.00,2013-01-11 00:45:00,
2013-01-10 18:46:00,54.5,51.3,29.89,WSW,254,0.0,0.0,89,0.02,,---,0.18,VWS V14.00,2013-01-11 00:46:00,
2013-01-10 18:47:00,54.4,51.2,29.89,WSW,254,0.0,0.0,89,0.02,,---,0.18,VWS V14.00,2013-01-11 00:47:00,
2013-01-10 18:48:00,54.5,51.3,29.89,WSW,254,1.0,4.0,89,0.02,,---,0.18,VWS V14.00,2013-01-11 00:48:00,
2013-01-10 18:49:00,54.4,51.2,29.89,WSW,254,0.0,1.0,89,0.02,,---,0.18,VWS V14.00,2013-01-11 00:49:00,
2013-01-10 18:50:00,54.4,51.2,29.89,WSW,254,0.0,0.0,89,0.02,,---,0.18,VWS V14.00,2013-01-11 00:50:00,
2013-01-10 18:51:00,54.4,51.2,29.89,WSW,254,0.0,2.0,89,0.03,,---,0.19,VWS V14.00,2013-01-11 00:51:00,
2013-01-10 18:52:00,54.2,51.0,29.89,WSW,254,0.0,0.0,89,0.03,,---,0.19,VWS V14.00,2013-01-11 00:52:00,
2013-01-10 18:53:00,54.2,51.0,29.89,WSW,254,0.0,0.0,89,0.03,,---,0.19,VWS V14.00,2013-01-11 00:53:00,
2013-01-10 18:54:00,54.2,51.0,29.89,WSW,254,0.0,3.0,89,0.03,,---,0.19,VWS V14.00,2013-01-11 00:54:00,
2013-01-10 18:55:00,54.2,51.0,29.89,WSW,254,0.0,0.0,89,0.03,,---,0.19,VWS V14.00,2013-01-11 00:55:00,
2013-01-10 18:56:00,54.1,50.9,29.89,WSW,254,0.0,3.0,89,0.03,,---,0.19,VWS V14.00,2013-01-11 00:56:00,
2013-01-10 18:57:00,54.1,50.9,29.89,WSW,254,1.0,3.0,89,0.03,,---,0.19,VWS V14.00,2013-01-11 00:57:00,
2013-01-10 18:58:00,54.1,50.9,29.89,WSW,254,2.0,2.0,89,0.03,,---,0.19,VWS V14.00,2013-01-11 00:58:00,
2013-01-10 18:59:00,54.1,50.9,29.89,WSW,254,0.0,2.0,89,0.03,,---,0.19,VWS V14.00,2013-01-11 00:59:00,
2013-01-10 19:00:00,54.1,50.9,29.89,WSW,254,0.0,3.0,89,0.03,,---,0.19,VWS V14.00,2013-01-11 01:00:00,
2013-01-10 19:01:00,53.9,50.7,29.89,WSW,254,0.0,0.0,89,0.03,,---,0.19,VWS V14.00,2013-01-11 01:01:00,
2013-01-10 19:02:00,53.9,50.7,29.89,WSW,254,0.0,3.0,89,0.03,,---,0.19,VWS V14.00,2013-01-11 01:02:00,
2013-01-10 19:03:00,53.9,50.7,29.89,WSW,254,2.0,4.0,89,0.03,,---,0.19,VWS V14.00,2013-01-11 01:03:00,
2013-01-10 19:04:00,53.9,50.7,29.89,WSW,254,2.0,3.0,89,0.03,,---,0.19,VWS V14.00,2013-01-11 01:04:00,
2013-01-10 19:05:00,53.9,50.7,29.89,WSW,254,0.0,3.0,89,0.03,,---,0.19,VWS V14.00,2013-01-11 01:05:00,
2013-01-10 19:06:00,53.9,50.7,29.89,WSW,254,0.0,1.0,89,0.03,,---,0.19,VWS V14.00,2013-01-11 01:06:00,
2013-01-10 19:07:00,53.6,50.4,29.88,WSW,254,0.0,0.0,89,0.03,,---,0.19,VWS V14.00,2013-01-11 01:07:00,
2013-01-10 19:08:00,53.8,50.6,29.88,WSW,254,0.0,0.0,89,0.03,,---,0.19,VWS V14.00,2013-01-11 01:08:00,
2013-01-10 19:09:00,53.8,50.6,29.88,WSW,254,0.0,0.0,89,0.03,,---,0.19,VWS V14.00,2013-01-11 01:09:00,
2013-01-10 19:10:00,53.6,50.4,29.88,WSW,254,0.0,0.0,89,0.03,,---,0.19,VWS V14.00,2013-01-11 01:10:00,
2013-01-10 19:11:00,53.6,50.4,29.88,WSW,254,0.0,0.0,89,0.03,,---,0.19,VWS V14.00,2013-01-11 01:11:00,
2013-01-10 19:12:00,53.5,50.3,29.88,WSW,254,2.0,2.0,89,0.03,,---,0.19,VWS V14.00,2013-01-11 01:12:00,
2013-01-10 19:13:00,53.6,50.4,29.88,WSW,254,2.0,3.0,89,0.03,,---,0.19,VWS V14.00,2013-01-11 01:13:00,
2013-01-10 19:14:00,53.6,50.4,29.88,WSW,254,2.0,2.0,89,0.03,,---,0.19,VWS V14.00,2013-01-11 01:14:00,
2013-01-10 19:15:00,53.5,50.3,29.88,WSW,254,0.0,2.0,89,0.03,,---,0.19,VWS V14.00,2013-01-11 01:15:00,
2013-01-10 19:16:00,53.5,50.3,29.88,WSW,254,0.0,0.0,89,0.03,,---,0.19,VWS V14.00,2013-01-11 01:16:00,
2013-01-10 19:17:00,53.2,50.0,29.88,WSW,254,0.0,0.0,89,0.03,,---,0.19,VWS V14.00,2013-01-11 01:17:00,
2013-01-10 19:18:00,53.2,50.0,29.88,WSW,254,0.0,0.0,89,0.03,,---,0.19,VWS V14.00,2013-01-11 01:18:00,
2013-01-10 19:19:00,53.2,50.0,29.88,WSW,254,0.0,0.0,89,0.03,,---,0.19,VWS V14.00,2013-01-11 01:19:00,
2013-01-10 19:20:00,53.2,50.0,29.89,WSW,254,3.0,3.0,89,0.03,,---,0.19,VWS V14.00,2013-01-11 01:20:00,
2013-01-10 19:21:00,52.9,49.8,29.89,WSW,254,2.0,3.0,89,0.03,,---,0.19,VWS V14.00,2013-01-11 01:21:00,
2013-01-10 19:22:00,52.6,49.5,29.89,WSW,254,1.0,3.0,89,0.03,,---,0.19,VWS V14.00,2013-01-11 01:22:00,
2013-01-10 19:23:00,52.8,49.7,29.89,WSW,254,0.0,0.0,89,0.03,,---,0.19,VWS V14.00,2013-01-11 01:23:00,
2013-01-10 19:24:00,52.6,49.5,29.89,WSW,254,3.0,3.0,89,0.03,,---,0.19,VWS V14.00,2013-01-11 01:24:00,
2013-01-10 19:25:00,52.6,49.5,29.89,WSW,254,2.0,3.0,89,0.03,,---,0.19,VWS V14.00,2013-01-11 01:25:00,
2013-01-10 19:26:00,52.6,49.8,29.89,WSW,254,0.0,2.0,90,0.03,,---,0.19,VWS V14.00,2013-01-11 01:26:00,
2013-01-10 19:27:00,52.0,48.9,29.88,WSW,254,0.0,0.0,89,0.03,,---,0.19,VWS V14.00,2013-01-11 01:27:00,
2013-01-10 19:28:00,52.3,49.5,29.89,WSW,254,0.0,2.0,90,0.03,,---,0.19,VWS V14.00,2013-01-11 01:28:00,
2013-01-10 19:29:00,52.2,49.1,29.88,WSW,254,0.0,0.0,89,0.03,,---,0.19,VWS V14.00,2013-01-11 01:29:00,
2013-01-10 19:30:00,52.0,48.9,29.88,WSW,254,0.0,0.0,89,0.03,,---,0.19,VWS V14.00,2013-01-11 01:30:00,
2013-01-10 19:31:00,51.9,49.1,29.88,WSW,254,3.0,3.0,90,0.03,,---,0.19,VWS V14.00,2013-01-11 01:31:00,
2013-01-10 19:32:00,51.6,48.8,29.88,WSW,254,3.0,4.0,90,0.03,,---,0.19,VWS V14.00,2013-01-11 01:32:00,
2013-01-10 19:33:00,51.6,48.8,29.88,WSW,254,2.0,3.0,90,0.03,,---,0.19,VWS V14.00,2013-01-11 01:33:00,
2013-01-10 19:34:00,51.6,48.8,29.88,WSW,254,4.0,4.0,90,0.03,,---,0.19,VWS V14.00,2013-01-11 01:34:00,
2013-01-10 19:35:00,51.6,48.8,29.89,WSW,254,4.0,4.0,90,0.03,,---,0.19,VWS V14.00,2013-01-11 01:35:00,
2013-01-10 19:36:00,51.4,48.9,29.89,WSW,254,4.0,5.0,91,0.03,,---,0.19,VWS V14.00,2013-01-11 01:36:00,
2013-01-10 19:37:00,51.4,48.9,29.89,WSW,254,3.0,3.0,91,0.02,,---,0.19,VWS V14.00,2013-01-11 01:37:00,
2013-01-10 19:38:00,51.4,48.9,29.89,WSW,254,4.0,4.0,91,0.02,,---,0.19,VWS V14.00,2013-01-11 01:38:00,
2013-01-10 19:39:00,51.4,48.9,29.89,WSW,254,2.0,4.0,91,0.02,,---,0.19,VWS V14.00,2013-01-11 01:39:00,
2013-01-10 19:40:00,51.3,48.8,29.89,WSW,254,2.0,3.0,91,0.02,,---,0.19,VWS V14.00,2013-01-11 01:40:00,
2013-01-10 19:41:00,51.3,48.8,29.89,WSW,254,2.0,4.0,91,0.02,,---,0.19,VWS V14.00,2013-01-11 01:41:00,
2013-01-10 19:42:00,50.8,48.3,29.89,WSW,254,0.0,0.0,91,0.01,,---,0.19,VWS V14.00,2013-01-11 01:42:00,
2013-01-10 19:43:00,51.0,48.5,29.89,WSW,254,0.0,3.0,91,0.01,,---,0.19,VWS V14.00,2013-01-11 01:43:00,
2013-01-10 19:44:00,51.0,48.5,29.89,WSW,254,0.0,0.0,91,0.01,,---,0.19,VWS V14.00,2013-01-11 01:44:00,
2013-01-10 19:45:00,50.8,48.3,29.89,WSW,254,0.0,0.0,91,0.01,,---,0.19,VWS V14.00,2013-01-11 01:45:00,
2013-01-10 19:46:00,50.8,48.3,29.89,WSW,254,0.0,0.0,91,0.01,,---,0.19,VWS V14.00,2013-01-11 01:46:00,
2013-01-10 19:47:00,50.8,48.3,29.89,WSW,254,0.0,0.0,91,0.01,,---,0.19,VWS V14.00,2013-01-11 01:47:00,
2013-01-10 19:48:00,50.8,48.3,29.89,WSW,254,0.0,0.0,91,0.01,,---,0.19,VWS V14.00,2013-01-11 01:48:00,
2013-01-10 19:49:00,50.8,48.3,29.89,WSW,254,0.0,0.0,91,0.01,,---,0.19,VWS V14.00,2013-01-11 01:49:00,
2013-01-10 19:50:00,50.8,48.6,29.89,WSW,254,0.0,0.0,92,0.01,,---,0.19,VWS V14.00,2013-01-11 01:50:00,
2013-01-10 19:51:00,50.8,48.6,29.89,WSW,254,0.0,0.0,92,0.01,,---,0.19,VWS V14.00,2013-01-11 01:51:00,
2013-01-10 19:52:00,50.8,48.3,29.89,WSW,254,0.0,0.0,91,0.00,,---,0.19,VWS V14.00,2013-01-11 01:52:00,
2013-01-10 19:53:00,50.8,48.6,29.89,WSW,254,0.0,0.0,92,0.00,,---,0.19,VWS V14.00,2013-01-11 01:53:00,
2013-01-10 19:54:00,50.8,48.3,29.89,WSW,254,0.0,0.0,91,0.00,,---,0.19,VWS V14.00,2013-01-11 01:54:00,
2013-01-10 19:55:00,50.8,48.6,29.89,WSW,254,0.0,0.0,92,0.00,,---,0.19,VWS V14.00,2013-01-11 01:55:00,
2013-01-10 19:56:00,50.8,48.6,29.89,WSW,254,0.0,0.0,92,0.00,,---,0.19,VWS V14.00,2013-01-11 01:56:00,
2013-01-10 19:57:00,50.5,48.0,29.89,WSW,254,0.0,0.0,91,0.00,,---,0.19,VWS V14.00,2013-01-11 01:57:00,
2013-01-10 19:58:00,50.7,48.2,29.89,WSW,254,0.0,0.0,91,0.00,,---,0.19,VWS V14.00,2013-01-11 01:58:00,
2013-01-10 19:59:00,50.7,48.2,29.89,WSW,254,0.0,0.0,91,0.00,,---,0.19,VWS V14.00,2013-01-11 01:59:00,
2013-01-10 20:00:00,50.5,48.0,29.89,WSW,254,0.0,0.0,91,0.00,,---,0.19,VWS V14.00,2013-01-11 02:00:00,
2013-01-10 20:01:00,50.5,48.3,29.89,WSW,254,0.0,0.0,92,0.00,,---,0.19,VWS V14.00,2013-01-11 02:01:00,
2013-01-10 20:02:00,50.7,48.5,29.89,WSW,254,0.0,0.0,92,0.00,,---,0.19,VWS V14.00,2013-01-11 02:02:00,
2013-01-10 20:03:00,50.5,48.3,29.89,WSW,254,0.0,0.0,92,0.00,,---,0.19,VWS V14.00,2013-01-11 02:03:00,
2013-01-10 20:04:00,50.7,48.5,29.89,WSW,254,0.0,0.0,92,0.00,,---,0.19,VWS V14.00,2013-01-11 02:04:00,
2013-01-10 20:05:00,50.7,48.5,29.89,WSW,254,0.0,0.0,92,0.00,,---,0.19,VWS V14.00,2013-01-11 02:05:00,
2013-01-10 20:06:00,50.7,48.5,29.89,WSW,254,0.0,0.0,92,0.00,,---,0.19,VWS V14.00,2013-01-11 02:06:00,
2013-01-10 20:07:00,50.7,48.5,29.89,WSW,254,0.0,0.0,92,0.00,,---,0.19,VWS V14.00,2013-01-11 02:07:00,
2013-01-10 20:08:00,50.7,48.5,29.89,WSW,254,0.0,0.0,92,0.00,,---,0.19,VWS V14.00,2013-01-11 02:08:00,
2013-01-10 20:09:00,50.7,48.5,29.89,WSW,254,0.0,0.0,92,0.00,,---,0.19,VWS V14.00,2013-01-11 02:09:00,
2013-01-10 20:10:00,50.7,48.5,29.89,WSW,254,0.0,0.0,92,0.00,,---,0.19,VWS V14.00,2013-01-11 02:10:00,
2013-01-10 20:11:00,50.7,48.5,29.89,WSW,254,0.0,0.0,92,0.00,,---,0.19,VWS V14.00,2013-01-11 02:11:00,
2013-01-10 20:12:00,50.5,48.3,29.89,WSW,254,0.0,0.0,92,0.00,,---,0.19,VWS V14.00,2013-01-11 02:12:00,
2013-01-10 20:13:00,50.5,48.3,29.89,WSW,254,0.0,0.0,92,0.00,,---,0.19,VWS V14.00,2013-01-11 02:13:00,
2013-01-10 20:14:00,50.5,48.3,29.89,WSW,254,0.0,0.0,92,0.00,,---,0.19,VWS V14.00,2013-01-11 02:14:00,
2013-01-10 20:15:00,50.5,48.3,29.89,WSW,254,0.0,0.0,92,0.00,,---,0.19,VWS V14.00,2013-01-11 02:15:00,
2013-01-10 20:16:00,50.5,48.3,29.89,WSW,254,0.0,0.0,92,0.00,,---,0.19,VWS V14.00,2013-01-11 02:16:00,
2013-01-10 20:17:00,50.4,48.2,29.89,WSW,254,3.0,3.0,92,0.00,,---,0.19,VWS V14.00,2013-01-11 02:17:00,
2013-01-10 20:18:00,50.5,48.3,29.89,WSW,254,0.0,0.0,92,0.00,,---,0.19,VWS V14.00,2013-01-11 02:18:00,
2013-01-10 20:19:00,50.5,48.3,29.89,WSW,254,3.0,4.0,92,0.00,,---,0.19,VWS V14.00,2013-01-11 02:19:00,
2013-01-10 20:20:00,50.4,48.2,29.89,WSW,254,5.0,5.0,92,0.00,,---,0.19,VWS V14.00,2013-01-11 02:20:00,
2013-01-10 20:21:00,50.1,47.9,29.89,WSW,254,4.0,6.0,92,0.00,,---,0.19,VWS V14.00,2013-01-11 02:21:00,
2013-01-10 20:22:00,49.4,46.9,29.89,WSW,254,0.0,0.0,91,0.00,,---,0.19,VWS V14.00,2013-01-11 02:22:00,
2013-01-10 20:23:00,49.8,47.6,29.89,WSW,254,3.0,6.0,92,0.00,,---,0.19,VWS V14.00,2013-01-11 02:23:00,
2013-01-10 20:24:00,49.5,47.0,29.89,WSW,254,0.0,4.0,91,0.00,,---,0.19,VWS V14.00,2013-01-11 02:24:00,
2013-01-10 20:25:00,49.4,47.2,29.89,WSW,254,4.0,4.0,92,0.00,,---,0.19,VWS V14.00,2013-01-11 02:25:00,
2013-01-10 20:26:00,49.2,47.0,29.89,WSW,254,3.0,4.0,92,0.00,,---,0.19,VWS V14.00,2013-01-11 02:26:00,
2013-01-10 20:27:00,49.2,47.0,29.89,WSW,254,0.0,2.0,92,0.00,,---,0.19,VWS V14.00,2013-01-11 02:27:00,
2013-01-10 20:28:00,49.2,47.0,29.89,WSW,254,2.0,2.0,92,0.00,,---,0.19,VWS V14.00,2013-01-11 02:28:00,
2013-01-10 20:29:00,49.2,47.0,29.89,WSW,254,1.0,3.0,92,0.00,,---,0.19,VWS V14.00,2013-01-11 02:29:00,
2013-01-10 20:30:00,49.2,47.0,29.89,WSW,254,1.0,2.0,92,0.00,,---,0.19,VWS V14.00,2013-01-11 02:30:00,
2013-01-10 20:31:00,49.2,47.0,29.89,WSW,254,0.0,1.0,92,0.00,,---,0.19,VWS V14.00,2013-01-11 02:31:00,
2013-01-10 20:32:00,49.2,47.3,29.89,WSW,254,0.0,0.0,93,0.00,,---,0.19,VWS V14.00,2013-01-11 02:32:00,
2013-01-10 20:33:00,49.2,47.0,29.89,WSW,254,0.0,0.0,92,0.00,,---,0.19,VWS V14.00,2013-01-11 02:33:00,
2013-01-10 20:34:00,49.2,47.3,29.89,WSW,254,0.0,0.0,93,0.00,,---,0.19,VWS V14.00,2013-01-11 02:34:00,
2013-01-10 20:35:00,49.2,47.3,29.89,WSW,254,0.0,0.0,93,0.00,,---,0.19,VWS V14.00,2013-01-11 02:35:00,
2013-01-10 20:36:00,49.4,47.5,29.89,WSW,254,0.0,0.0,93,0.00,,---,0.19,VWS V14.00,2013-01-11 02:36:00,
2013-01-10 20:37:00,49.4,47.5,29.89,WSW,254,0.0,0.0,93,0.00,,---,0.19,VWS V14.00,2013-01-11 02:37:00,
2013-01-10 20:38:00,49.4,47.5,29.89,WSW,254,0.0,0.0,93,0.00,,---,0.19,VWS V14.00,2013-01-11 02:38:00,
2013-01-10 20:39:00,49.4,47.5,29.89,WSW,254,0.0,0.0,93,0.00,,---,0.19,VWS V14.00,2013-01-11 02:39:00,
2013-01-10 20:40:00,49.4,47.5,29.89,WSW,254,0.0,0.0,93,0.00,,---,0.19,VWS V14.00,2013-01-11 02:40:00,
2013-01-10 20:41:00,49.4,47.5,29.90,WSW,254,0.0,0.0,93,0.00,,---,0.19,VWS V14.00,2013-01-11 02:41:00,
2013-01-10 20:42:00,49.2,47.0,29.90,WSW,254,0.0,0.0,92,0.00,,---,0.19,VWS V14.00,2013-01-11 02:42:00,
2013-01-10 20:43:00,49.4,47.5,29.90,WSW,254,0.0,0.0,93,0.00,,---,0.19,VWS V14.00,2013-01-11 02:43:00,
2013-01-10 20:44:00,49.2,47.0,29.90,WSW,254,0.0,0.0,92,0.00,,---,0.19,VWS V14.00,2013-01-11 02:44:00,
2013-01-10 20:45:00,49.1,46.9,29.90,WSW,254,0.0,0.0,92,0.00,,---,0.19,VWS V14.00,2013-01-11 02:45:00,
2013-01-10 20:46:00,48.9,46.7,29.90,WSW,254,0.0,0.0,92,0.00,,---,0.19,VWS V14.00,2013-01-11 02:46:00,
2013-01-10 20:47:00,48.3,46.1,29.90,WSW,254,0.0,0.0,92,0.00,,---,0.19,VWS V14.00,2013-01-11 02:47:00,
2013-01-10 20:48:00,48.6,46.4,29.90,WSW,254,0.0,0.0,92,0.00,,---,0.19,VWS V14.00,2013-01-11 02:48:00,
2013-01-10 20:49:00,48.5,46.3,29.90,WSW,254,0.0,0.0,92,0.00,,---,0.19,VWS V14.00,2013-01-11 02:49:00,
2013-01-10 20:50:00,48.3,46.1,29.90,WSW,254,0.0,0.0,92,0.00,,---,0.19,VWS V14.00,2013-01-11 02:50:00,
2013-01-10 20:51:00,48.2,46.0,29.90,WSW,254,0.0,0.0,92,0.00,,---,0.19,VWS V14.00,2013-01-11 02:51:00,
2013-01-10 20:52:00,47.9,45.7,29.90,WSW,254,0.0,0.0,92,0.00,,---,0.19,VWS V14.00,2013-01-11 02:52:00,
2013-01-10 20:53:00,48.0,45.8,29.90,WSW,254,0.0,0.0,92,0.00,,---,0.19,VWS V14.00,2013-01-11 02:53:00,
2013-01-10 20:54:00,47.9,45.7,29.90,WSW,254,0.0,0.0,92,0.00,,---,0.19,VWS V14.00,2013-01-11 02:54:00,
2013-01-10 20:55:00,47.9,45.7,29.90,WSW,254,0.0,3.0,92,0.00,,---,0.19,VWS V14.00,2013-01-11 02:55:00,
2013-01-10 20:56:00,48.2,46.3,29.91,WSW,254,0.0,0.0,93,0.00,,---,0.19,VWS V14.00,2013-01-11 02:56:00,
2013-01-10 20:57:00,48.9,47.2,29.90,WSW,254,0.0,0.0,94,0.00,,---,0.19,VWS V14.00,2013-01-11 02:57:00,
2013-01-10 20:58:00,48.8,47.2,29.91,WSW,254,0.0,0.0,94,0.00,,---,0.19,VWS V14.00,2013-01-11 02:58:00,
2013-01-10 20:59:00,48.9,47.2,29.90,WSW,254,0.0,0.0,94,0.00,,---,0.19,VWS V14.00,2013-01-11 02:59:00,
2013-01-10 21:00:00,49.1,47.5,29.90,WSW,254,0.0,0.0,94,0.00,,---,0.19,VWS V14.00,2013-01-11 03:00:00,
2013-01-10 21:01:00,49.1,47.5,29.90,WSW,254,0.0,0.0,94,0.00,,---,0.19,VWS V14.00,2013-01-11 03:01:00,
2013-01-10 21:02:00,49.5,47.8,29.90,WSW,254,0.0,3.0,94,0.00,,---,0.19,VWS V14.00,2013-01-11 03:02:00,
2013-01-10 21:03:00,49.4,47.8,29.91,WSW,254,0.0,3.0,94,0.00,,---,0.19,VWS V14.00,2013-01-11 03:03:00,
2013-01-10 21:04:00,49.5,47.8,29.90,WSW,254,3.0,4.0,94,0.00,,---,0.19,VWS V14.00,2013-01-11 03:04:00,
2013-01-10 21:05:00,49.5,47.8,29.90,WSW,254,0.0,3.0,94,0.00,,---,0.19,VWS V14.00,2013-01-11 03:05:00,
2013-01-10 21:06:00,49.6,47.7,29.90,WSW,254,0.0,2.0,93,0.00,,---,0.19,VWS V14.00,2013-01-11 03:06:00,
2013-01-10 21:07:00,49.9,48.0,29.90,WSW,254,0.0,0.0,93,0.00,,---,0.19,VWS V14.00,2013-01-11 03:07:00,
2013-01-10 21:08:00,49.8,47.9,29.90,WSW,254,3.0,4.0,93,0.00,,---,0.19,VWS V14.00,2013-01-11 03:08:00,
2013-01-10 21:09:00,49.9,48.0,29.90,WSW,254,0.0,3.0,93,0.00,,---,0.19,VWS V14.00,2013-01-11 03:09:00,
2013-01-10 21:10:00,49.9,48.0,29.90,WSW,254,0.0,0.0,93,0.00,,---,0.19,VWS V14.00,2013-01-11 03:10:00,
2013-01-10 21:11:00,49.9,48.0,29.90,WSW,254,3.0,4.0,93,0.00,,---,0.19,VWS V14.00,2013-01-11 03:11:00,
2013-01-10 21:12:00,50.1,48.2,29.90,WSW,254,2.0,4.0,93,0.00,,---,0.19,VWS V14.00,2013-01-11 03:12:00,
2013-01-10 21:13:00,50.2,48.3,29.90,WSW,254,0.0,2.0,93,0.00,,---,0.19,VWS V14.00,2013-01-11 03:13:00,
2013-01-10 21:14:00,50.2,48.3,29.90,WSW,254,2.0,4.0,93,0.00,,---,0.19,VWS V14.00,2013-01-11 03:14:00,
2013-01-10 21:15:00,50.2,48.3,29.90,WSW,254,0.0,2.0,93,0.00,,---,0.19,VWS V14.00,2013-01-11 03:15:00,
2013-01-10 21:16:00,50.2,48.3,29.90,WSW,254,0.0,0.0,93,0.00,,---,0.19,VWS V14.00,2013-01-11 03:16:00,
2013-01-10 21:17:00,50.2,48.3,29.90,WSW,254,0.0,0.0,93,0.00,,---,0.19,VWS V14.00,2013-01-11 03:17:00,
2013-01-10 21:18:00,50.4,48.2,29.90,WSW,254,0.0,2.0,92,0.00,,---,0.19,VWS V14.00,2013-01-11 03:18:00,
2013-01-10 21:19:00,50.4,48.5,29.90,WSW,254,2.0,4.0,93,0.00,,---,0.19,VWS V14.00,2013-01-11 03:19:00,
2013-01-10 21:20:00,50.4,48.2,29.90,WSW,254,0.0,2.0,92,0.00,,---,0.19,VWS V14.00,2013-01-11 03:20:00,
2013-01-10 21:21:00,50.4,48.2,29.90,WSW,254,4.0,5.0,92,0.00,,---,0.19,VWS V14.00,2013-01-11 03:21:00,
2013-01-10 21:22:00,50.4,48.2,29.91,WSW,254,2.0,4.0,92,0.00,,---,0.19,VWS V14.00,2013-01-11 03:22:00,
2013-01-10 21:23:00,50.4,48.2,29.91,WSW,254,2.0,2.0,92,0.00,,---,0.19,VWS V14.00,2013-01-11 03:23:00,
2013-01-10 21:24:00,50.4,48.2,29.91,WSW,254,2.0,3.0,92,0.00,,---,0.19,VWS V14.00,2013-01-11 03:24:00,
2013-01-10 21:25:00,50.4,48.2,29.91,WSW,254,2.0,4.0,92,0.00,,---,0.19,VWS V14.00,2013-01-11 03:25:00,
2013-01-10 21:26:00,50.4,48.2,29.91,WSW,254,5.0,5.0,92,0.00,,---,0.19,VWS V14.00,2013-01-11 03:26:00,
2013-01-10 21:27:00,50.4,48.2,29.91,WSW,252,5.0,6.0,92,0.00,,---,0.19,VWS V14.00,2013-01-11 03:27:00,
2013-01-10 21:28:00,50.4,48.2,29.91,WSW,249,3.0,7.0,92,0.00,,---,0.19,VWS V14.00,2013-01-11 03:28:00,
2013-01-10 21:29:00,50.4,48.2,29.91,WSW,252,0.0,2.0,92,0.00,,---,0.19,VWS V14.00,2013-01-11 03:29:00,
2013-01-10 21:30:00,50.4,48.2,29.91,WSW,249,3.0,7.0,92,0.00,,---,0.19,VWS V14.00,2013-01-11 03:30:00,
2013-01-10 21:31:00,50.4,48.2,29.91,SW,218,3.0,9.0,92,0.00,,---,0.19,VWS V14.00,2013-01-11 03:31:00,
2013-01-10 21:32:00,50.5,48.3,29.91,SW,216,2.0,6.0,92,0.00,,---,0.19,VWS V14.00,2013-01-11 03:32:00,
2013-01-10 21:33:00,50.7,48.2,29.91,SW,215,0.0,2.0,91,0.00,,---,0.19,VWS V14.00,2013-01-11 03:33:00,
2013-01-10 21:34:00,50.7,48.5,29.91,SW,215,0.0,4.0,92,0.00,,---,0.19,VWS V14.00,2013-01-11 03:34:00,
2013-01-10 21:35:00,50.7,48.2,29.91,SW,215,0.0,2.0,91,0.00,,---,0.19,VWS V14.00,2013-01-11 03:35:00,
2013-01-10 21:36:00,50.8,48.3,29.91,SW,215,3.0,3.0,91,0.00,,---,0.19,VWS V14.00,2013-01-11 03:36:00,
2013-01-10 21:37:00,50.8,48.3,29.91,SW,215,4.0,7.0,91,0.00,,---,0.19,VWS V14.00,2013-01-11 03:37:00,
2013-01-10 21:38:00,51.0,48.2,29.91,SW,215,0.0,6.0,90,0.00,,---,0.19,VWS V14.00,2013-01-11 03:38:00,
2013-01-10 21:39:00,51.0,48.5,29.91,SW,215,6.0,6.0,91,0.00,,---,0.19,VWS V14.00,2013-01-11 03:39:00,
2013-01-10 21:40:00,51.0,48.2,29.91,SW,215,0.0,6.0,90,0.00,,---,0.19,VWS V14.00,2013-01-11 03:40:00,
2013-01-10 21:41:00,51.0,48.2,29.91,SW,215,1.0,3.0,90,0.00,,---,0.19,VWS V14.00,2013-01-11 03:41:00,
2013-01-10 21:42:00,51.0,48.2,29.91,SW,215,4.0,7.0,90,0.00,,---,0.19,VWS V14.00,2013-01-11 03:42:00,
2013-01-10 21:43:00,51.1,48.3,29.91,SW,215,0.0,6.0,90,0.00,,---,0.19,VWS V14.00,2013-01-11 03:43:00,
2013-01-10 21:44:00,51.1,48.3,29.91,SW,215,1.0,7.0,90,0.00,,---,0.19,VWS V14.00,2013-01-11 03:44:00,
2013-01-10 21:45:00,51.1,48.3,29.91,SW,215,0.0,6.0,90,0.00,,---,0.19,VWS V14.00,2013-01-11 03:45:00,
2013-01-10 21:46:00,51.1,48.0,29.90,SW,215,2.0,4.0,89,0.00,,---,0.19,VWS V14.00,2013-01-11 03:46:00,
2013-01-10 21:47:00,51.1,48.0,29.90,SW,215,2.0,2.0,89,0.00,,---,0.19,VWS V14.00,2013-01-11 03:47:00,
2013-01-10 21:48:00,51.1,48.0,29.91,SW,215,5.0,6.0,89,0.00,,---,0.19,VWS V14.00,2013-01-11 03:48:00,
2013-01-10 21:49:00,51.1,48.0,29.90,SW,215,0.0,0.0,89,0.00,,---,0.19,VWS V14.00,2013-01-11 03:49:00,
2013-01-10 21:50:00,51.1,48.0,29.91,SW,215,5.0,6.0,89,0.00,,---,0.19,VWS V14.00,2013-01-11 03:50:00,
2013-01-10 21:51:00,51.1,48.0,29.90,SW,215,6.0,6.0,89,0.00,,---,0.19,VWS V14.00,2013-01-11 03:51:00,
2013-01-10 21:52:00,51.3,48.2,29.91,SW,215,2.0,6.0,89,0.00,,---,0.19,VWS V14.00,2013-01-11 03:52:00,
2013-01-10 21:53:00,51.3,47.9,29.90,SW,215,5.0,5.0,88,0.00,,---,0.19,VWS V14.00,2013-01-11 03:53:00,
2013-01-10 21:54:00,51.3,48.2,29.90,SW,215,1.0,2.0,89,0.00,,---,0.19,VWS V14.00,2013-01-11 03:54:00,
2013-01-10 21:55:00,51.3,47.9,29.90,SW,215,5.0,5.0,88,0.00,,---,0.19,VWS V14.00,2013-01-11 03:55:00,
2013-01-10 21:56:00,51.3,48.2,29.90,SW,215,1.0,5.0,89,0.00,,---,0.19,VWS V14.00,2013-01-11 03:56:00,
2013-01-10 21:57:00,51.3,47.9,29.90,SW,215,1.0,1.0,88,0.00,,---,0.19,VWS V14.00,2013-01-11 03:57:00,
2013-01-10 21:58:00,51.1,47.7,29.90,SW,214,2.0,5.0,88,0.00,,---,0.19,VWS V14.00,2013-01-11 03:58:00,
2013-01-10 21:59:00,51.1,47.7,29.90,SW,214,5.0,6.0,88,0.00,,---,0.19,VWS V14.00,2013-01-11 03:59:00,
2013-01-10 22:00:00,51.1,47.7,29.90,SW,214,2.0,5.0,88,0.00,,---,0.19,VWS V14.00,2013-01-11 04:00:00,
2013-01-10 22:01:00,51.1,47.7,29.90,SW,214,5.0,5.0,88,0.00,,---,0.19,VWS V14.00,2013-01-11 04:01:00,
2013-01-10 22:02:00,51.1,47.7,29.90,South,178,5.0,10.0,88,0.00,,---,0.19,VWS V14.00,2013-01-11 04:02:00,
2013-01-10 22:03:00,51.3,47.6,29.90,South,176,0.0,0.0,87,0.00,,---,0.19,VWS V14.00,2013-01-11 04:03:00,
2013-01-10 22:04:00,51.3,47.6,29.90,South,176,4.0,7.0,87,0.00,,---,0.19,VWS V14.00,2013-01-11 04:04:00,
2013-01-10 22:05:00,51.3,47.6,29.90,South,176,0.0,5.0,87,0.00,,---,0.19,VWS V14.00,2013-01-11 04:05:00,
2013-01-10 22:06:00,51.1,47.4,29.90,South,176,6.0,6.0,87,0.00,,---,0.19,VWS V14.00,2013-01-11 04:06:00,
2013-01-10 22:07:00,51.1,47.4,29.90,SSE,164,6.0,10.0,87,0.00,,---,0.19,VWS V14.00,2013-01-11 04:07:00,
2013-01-10 22:08:00,51.1,47.4,29.89,SSE,164,4.0,4.0,87,0.00,,---,0.19,VWS V14.00,2013-01-11 04:08:00,
2013-01-10 22:09:00,51.1,47.4,29.89,SSE,164,3.0,4.0,87,0.00,,---,0.19,VWS V14.00,2013-01-11 04:09:00,
2013-01-10 22:10:00,51.1,47.4,29.89,SSE,164,4.0,5.0,87,0.00,,---,0.19,VWS V14.00,2013-01-11 04:10:00,
2013-01-10 22:11:00,51.1,47.4,29.89,SSE,164,2.0,6.0,87,0.00,,---,0.19,VWS V14.00,2013-01-11 04:11:00,
2013-01-10 22:12:00,51.1,47.4,29.89,SSE,164,0.0,2.0,87,0.00,,---,0.19,VWS V14.00,2013-01-11 04:12:00,
2013-01-10 22:13:00,51.0,47.3,29.89,SSE,164,3.0,4.0,87,0.00,,---,0.19,VWS V14.00,2013-01-11 04:13:00,
2013-01-10 22:14:00,51.0,47.3,29.89,SSE,164,2.0,5.0,87,0.00,,---,0.19,VWS V14.00,2013-01-11 04:14:00,
2013-01-10 22:15:00,51.0,47.3,29.89,SSE,164,3.0,4.0,87,0.00,,---,0.19,VWS V14.00,2013-01-11 04:15:00,
2013-01-10 22:16:00,51.0,47.3,29.89,SSE,164,3.0,6.0,87,0.00,,---,0.19,VWS V14.00,2013-01-11 04:16:00,
2013-01-10 22:17:00,51.0,47.3,29.89,SSE,163,7.0,7.0,87,0.00,,---,0.19,VWS V14.00,2013-01-11 04:17:00,
2013-01-10 22:18:00,51.0,47.3,29.89,South,171,0.0,6.0,87,0.00,,---,0.19,VWS V14.00,2013-01-11 04:18:00,
2013-01-10 22:19:00,51.0,47.3,29.89,South,171,4.0,6.0,87,0.00,,---,0.19,VWS V14.00,2013-01-11 04:19:00,
2013-01-10 22:20:00,51.0,47.3,29.89,South,171,0.0,6.0,87,0.00,,---,0.19,VWS V14.00,2013-01-11 04:20:00,
2013-01-10 22:21:00,51.0,47.3,29.89,South,171,2.0,2.0,87,0.00,,---,0.19,VWS V14.00,2013-01-11 04:21:00,
2013-01-10 22:22:00,51.0,47.3,29.89,South,171,0.0,4.0,87,0.00,,---,0.19,VWS V14.00,2013-01-11 04:22:00,
2013-01-10 22:23:00,51.0,47.0,29.90,South,171,2.0,3.0,86,0.00,,---,0.19,VWS V14.00,2013-01-11 04:23:00,
2013-01-10 22:24:00,51.0,47.3,29.89,South,171,0.0,4.0,87,0.00,,---,0.19,VWS V14.00,2013-01-11 04:24:00,
2013-01-10 22:25:00,51.0,47.0,29.90,South,171,2.0,3.0,86,0.00,,---,0.19,VWS V14.00,2013-01-11 04:25:00,
2013-01-10 22:26:00,51.0,47.0,29.90,South,171,2.0,3.0,86,0.00,,---,0.19,VWS V14.00,2013-01-11 04:26:00,
2013-01-10 22:27:00,50.8,47.1,29.90,South,171,1.0,5.0,87,0.00,,---,0.19,VWS V14.00,2013-01-11 04:27:00,
2013-01-10 22:28:00,50.8,46.8,29.90,South,171,0.0,3.0,86,0.00,,---,0.19,VWS V14.00,2013-01-11 04:28:00,
2013-01-10 22:29:00,50.8,46.8,29.90,South,171,2.0,2.0,86,0.00,,---,0.19,VWS V14.00,2013-01-11 04:29:00,
2013-01-10 22:30:00,50.8,46.8,29.90,South,171,0.0,3.0,86,0.00,,---,0.19,VWS V14.00,2013-01-11 04:30:00,
2013-01-10 22:31:00,50.8,46.8,29.90,South,171,2.0,2.0,86,0.00,,---,0.19,VWS V14.00,2013-01-11 04:31:00,
2013-01-10 22:32:00,50.8,46.8,29.90,South,171,5.0,5.0,86,0.00,,---,0.19,VWS V14.00,2013-01-11 04:32:00,
2013-01-10 22:33:00,50.8,46.8,29.90,South,171,5.0,8.0,86,0.00,,---,0.19,VWS V14.00,2013-01-11 04:33:00,
2013-01-10 22:34:00,50.8,46.8,29.90,South,171,4.0,5.0,86,0.00,,---,0.19,VWS V14.00,2013-01-11 04:34:00,
2013-01-10 22:35:00,50.8,46.8,29.90,South,171,5.0,8.0,86,0.00,,---,0.19,VWS V14.00,2013-01-11 04:35:00,
2013-01-10 22:36:00,50.8,46.8,29.90,South,171,2.0,6.0,86,0.00,,---,0.19,VWS V14.00,2013-01-11 04:36:00,
2013-01-10 22:37:00,50.8,46.8,29.90,South,172,0.0,4.0,86,0.00,,---,0.19,VWS V14.00,2013-01-11 04:37:00,
2013-01-10 22:38:00,50.8,46.8,29.90,South,172,4.0,5.0,86,0.00,,---,0.19,VWS V14.00,2013-01-11 04:38:00,
2013-01-10 22:39:00,50.8,46.8,29.90,South,172,1.0,2.0,86,0.00,,---,0.19,VWS V14.00,2013-01-11 04:39:00,
2013-01-10 22:40:00,50.8,46.8,29.90,South,172,4.0,5.0,86,0.00,,---,0.19,VWS V14.00,2013-01-11 04:40:00,
2013-01-10 22:41:00,50.8,46.8,29.90,South,172,1.0,6.0,86,0.00,,---,0.19,VWS V14.00,2013-01-11 04:41:00,
2013-01-10 22:42:00,50.8,46.8,29.90,South,172,3.0,3.0,86,0.00,,---,0.19,VWS V14.00,2013-01-11 04:42:00,
2013-01-10 22:43:00,50.7,46.7,29.90,South,172,4.0,7.0,86,0.00,,---,0.19,VWS V14.00,2013-01-11 04:43:00,
2013-01-10 22:44:00,50.7,46.7,29.90,South,172,2.0,3.0,86,0.00,,---,0.19,VWS V14.00,2013-01-11 04:44:00,
2013-01-10 22:45:00,50.7,46.7,29.90,South,172,4.0,7.0,86,0.00,,---,0.19,VWS V14.00,2013-01-11 04:45:00,
2013-01-10 22:46:00,50.7,46.7,29.90,South,172,3.0,4.0,86,0.00,,---,0.19,VWS V14.00,2013-01-11 04:46:00,
2013-01-10 22:47:00,50.7,47.9,29.90,South,172,1.0,5.0,90,0.00,,---,0.19,VWS V14.00,2013-01-11 04:47:00,
2013-01-10 22:48:00,50.7,46.7,29.90,South,172,2.0,4.0,86,0.00,,---,0.19,VWS V14.00,2013-01-11 04:48:00,
2013-01-10 22:49:00,50.7,46.7,29.90,South,172,3.0,4.0,86,0.00,,---,0.19,VWS V14.00,2013-01-11 04:49:00,
2013-01-10 22:50:00,50.7,46.7,29.90,South,172,2.0,4.0,86,0.00,,---,0.19,VWS V14.00,2013-01-11 04:50:00,
2013-01-10 22:51:00,50.7,46.7,29.90,South,172,3.0,5.0,86,0.00,,---,0.19,VWS V14.00,2013-01-11 04:51:00,
2013-01-10 22:52:00,50.7,46.7,29.90,South,173,5.0,9.0,86,0.00,,---,0.19,VWS V14.00,2013-01-11 04:52:00,
2013-01-10 22:53:00,50.7,46.7,29.90,South,180,6.0,7.0,86,0.00,,---,0.19,VWS V14.00,2013-01-11 04:53:00,
2013-01-10 22:54:00,50.7,46.7,29.90,South,180,2.0,6.0,86,0.00,,---,0.19,VWS V14.00,2013-01-11 04:54:00,
2013-01-10 22:55:00,50.7,46.7,29.90,South,180,7.0,7.0,86,0.00,,---,0.19,VWS V14.00,2013-01-11 04:55:00,
2013-01-10 22:56:00,50.7,46.7,29.90,South,180,6.0,7.0,86,0.00,,---,0.19,VWS V14.00,2013-01-11 04:56:00,
2013-01-10 22:57:00,50.7,46.7,29.90,South,180,2.0,6.0,86,0.00,,---,0.19,VWS V14.00,2013-01-11 04:57:00,
2013-01-10 22:58:00,50.7,46.7,29.90,SSW,212,6.0,8.0,86,0.00,,---,0.19,VWS V14.00,2013-01-11 04:58:00,
2013-01-10 22:59:00,50.7,46.7,29.90,SW,214,0.0,6.0,86,0.00,,---,0.19,VWS V14.00,2013-01-11 04:59:00,
2013-01-10 23:00:00,50.7,46.7,29.90,SSW,212,6.0,8.0,86,0.00,,---,0.19,VWS V14.00,2013-01-11 05:00:00,
2013-01-10 23:01:00,50.7,46.4,29.90,SSW,202,4.0,5.0,85,0.00,,---,0.19,VWS V14.00,2013-01-11 05:01:00,
2013-01-10 23:02:00,50.7,46.7,29.90,SSE,167,12.0,12.0,86,0.00,,---,0.19,VWS V14.00,2013-01-11 05:02:00,
2013-01-10 23:03:00,50.7,46.7,29.90,South,179,10.0,10.0,86,0.00,,---,0.19,VWS V14.00,2013-01-11 05:03:00,
2013-01-10 23:04:00,50.7,46.7,29.90,SSW,202,0.0,5.0,86,0.00,,---,0.19,VWS V14.00,2013-01-11 05:04:00,
2013-01-10 23:05:00,50.7,46.7,29.90,South,173,4.0,12.0,86,0.00,,---,0.19,VWS V14.00,2013-01-11 05:05:00,
2013-01-10 23:06:00,50.7,46.7,29.90,South,182,4.0,10.0,86,0.00,,---,0.19,VWS V14.00,2013-01-11 05:06:00,
2013-01-10 23:07:00,50.7,46.7,29.90,South,182,0.0,4.0,86,0.00,,---,0.19,VWS V14.00,2013-01-11 05:07:00,
2013-01-10 23:08:00,50.8,46.5,29.90,SSE,167,0.0,4.0,85,0.00,,---,0.19,VWS V14.00,2013-01-11 05:08:00,
2013-01-10 23:09:00,50.7,46.4,29.90,South,180,10.0,10.0,85,0.00,,---,0.19,VWS V14.00,2013-01-11 05:09:00,
2013-01-10 23:10:00,50.7,46.4,29.90,SSE,167,3.0,12.0,85,0.00,,---,0.19,VWS V14.00,2013-01-11 05:10:00,
2013-01-10 23:11:00,50.8,46.5,29.90,SSE,167,6.0,6.0,85,0.00,,---,0.19,VWS V14.00,2013-01-11 05:11:00,
2013-01-10 23:12:00,50.8,46.5,29.90,South,172,3.0,7.0,85,0.00,,---,0.19,VWS V14.00,2013-01-11 05:12:00,
2013-01-10 23:13:00,50.8,46.5,29.90,SSW,196,3.0,5.0,85,0.00,,---,0.19,VWS V14.00,2013-01-11 05:13:00,
2013-01-10 23:14:00,50.8,46.5,29.90,South,179,6.0,9.0,85,0.00,,---,0.19,VWS V14.00,2013-01-11 05:14:00,
2013-01-10 23:15:00,50.8,46.5,29.90,SSW,196,5.0,9.0,85,0.00,,---,0.19,VWS V14.00,2013-01-11 05:15:00,
2013-01-10 23:16:00,50.8,46.5,29.90,SSW,196,4.0,5.0,85,0.00,,---,0.19,VWS V14.00,2013-01-11 05:16:00,
2013-01-10 23:17:00,50.8,46.5,29.90,SSW,196,1.0,6.0,85,0.00,,---,0.19,VWS V14.00,2013-01-11 05:17:00,
2013-01-10 23:18:00,50.7,46.4,29.90,SSW,209,6.0,16.0,85,0.00,,---,0.19,VWS V14.00,2013-01-11 05:18:00,
2013-01-10 23:19:00,50.7,46.4,29.90,SSW,196,3.0,5.0,85,0.00,,---,0.19,VWS V14.00,2013-01-11 05:19:00,
2013-01-10 23:20:00,50.7,46.4,29.90,South,170,10.0,11.0,85,0.00,,---,0.19,VWS V14.00,2013-01-11 05:20:00,
2013-01-10 23:21:00,50.7,46.4,29.90,SSW,209,6.0,16.0,85,0.00,,---,0.19,VWS V14.00,2013-01-11 05:21:00,
2013-01-10 23:22:00,50.8,46.5,29.90,South,189,12.0,16.0,85,0.00,,---,0.19,VWS V14.00,2013-01-11 05:22:00,
2013-01-10 23:23:00,50.8,46.5,29.90,South,189,3.0,4.0,85,0.00,,---,0.19,VWS V14.00,2013-01-11 05:23:00,
2013-01-10 23:24:00,50.8,46.5,29.90,South,186,3.0,9.0,85,0.00,,---,0.19,VWS V14.00,2013-01-11 05:24:00,
2013-01-10 23:25:00,50.8,46.5,29.90,South,186,0.0,6.0,85,0.00,,---,0.19,VWS V14.00,2013-01-11 05:25:00,
2013-01-10 23:26:00,50.8,46.5,29.90,South,189,3.0,6.0,85,0.00,,---,0.19,VWS V14.00,2013-01-11 05:26:00,
2013-01-10 23:27:00,50.8,46.5,29.90,South,173,6.0,10.0,85,0.00,,---,0.19,VWS V14.00,2013-01-11 05:27:00,
2013-01-10 23:28:00,50.8,46.2,29.90,SSW,197,12.0,13.0,84,0.00,,---,0.19,VWS V14.00,2013-01-11 05:28:00,
2013-01-10 23:29:00,50.8,46.5,29.90,SW,215,11.0,13.0,85,0.00,,---,0.19,VWS V14.00,2013-01-11 05:29:00,
2013-01-10 23:30:00,50.8,46.2,29.90,SW,215,4.0,11.0,84,0.00,,---,0.19,VWS V14.00,2013-01-11 05:30:00,
2013-01-10 23:31:00,50.8,46.2,29.90,SSW,209,5.0,13.0,84,0.00,,---,0.19,VWS V14.00,2013-01-11 05:31:00,
2013-01-10 23:32:00,50.8,46.2,29.90,SSW,209,0.0,6.0,84,0.00,,---,0.19,VWS V14.00,2013-01-11 05:32:00,
2013-01-10 23:33:00,50.8,46.2,29.90,SSE,163,9.0,10.0,84,0.00,,---,0.19,VWS V14.00,2013-01-11 05:33:00,
2013-01-10 23:34:00,50.8,46.2,29.90,South,189,6.0,6.0,84,0.00,,---,0.19,VWS V14.00,2013-01-11 05:34:00,
2013-01-10 23:35:00,50.8,46.2,29.90,South,181,7.0,10.0,84,0.00,,---,0.19,VWS V14.00,2013-01-11 05:35:00,
2013-01-10 23:36:00,50.8,46.2,29.90,SSE,163,4.0,10.0,84,0.00,,---,0.19,VWS V14.00,2013-01-11 05:36:00,
2013-01-10 23:37:00,50.8,46.2,29.90,SSW,192,6.0,7.0,84,0.00,,---,0.19,VWS V14.00,2013-01-11 05:37:00,
2013-01-10 23:38:00,50.8,46.2,29.90,South,188,2.0,14.0,84,0.00,,---,0.19,VWS V14.00,2013-01-11 05:38:00,
2013-01-10 23:39:00,50.8,46.2,29.90,South,184,7.0,15.0,84,0.00,,---,0.19,VWS V14.00,2013-01-11 05:39:00,
2013-01-10 23:40:00,50.8,46.2,29.90,South,184,4.0,7.0,84,0.00,,---,0.19,VWS V14.00,2013-01-11 05:40:00,
2013-01-10 23:41:00,50.8,46.2,29.90,South,188,2.0,14.0,84,0.00,,---,0.19,VWS V14.00,2013-01-11 05:41:00,
2013-01-10 23:42:00,50.8,46.2,29.90,South,188,4.0,5.0,84,0.00,,---,0.19,VWS V14.00,2013-01-11 05:42:00,
2013-01-10 23:43:00,50.7,46.0,29.90,South,190,0.0,3.0,84,0.00,,---,0.19,VWS V14.00,2013-01-11 05:43:00,
2013-01-10 23:44:00,50.8,46.2,29.90,South,188,6.0,9.0,84,0.00,,---,0.19,VWS V14.00,2013-01-11 05:44:00,
2013-01-10 23:45:00,50.7,46.0,29.90,South,190,2.0,6.0,84,0.00,,---,0.19,VWS V14.00,2013-01-11 05:45:00,
2013-01-10 23:46:00,50.7,46.0,29.90,South,190,3.0,3.0,84,0.00,,---,0.19,VWS V14.00,2013-01-11 05:46:00,
2013-01-10 23:47:00,50.7,46.0,29.90,SSW,197,3.0,9.0,84,0.00,,---,0.19,VWS V14.00,2013-01-11 05:47:00,
2013-01-10 23:48:00,50.5,45.8,29.90,SSW,197,0.0,3.0,84,0.00,,---,0.19,VWS V14.00,2013-01-11 05:48:00,
2013-01-10 23:49:00,50.5,45.8,29.90,SSW,197,2.0,3.0,84,0.00,,---,0.19,VWS V14.00,2013-01-11 05:49:00,
2013-01-10 23:50:00,50.5,45.8,29.90,SSW,197,3.0,4.0,84,0.00,,---,0.19,VWS V14.00,2013-01-11 05:50:00,
2013-01-10 23:51:00,50.5,45.8,29.90,SSW,197,2.0,3.0,84,0.00,,---,0.19,VWS V14.00,2013-01-11 05:51:00,
2013-01-10 23:52:00,50.5,45.8,29.90,SSW,197,2.0,2.0,84,0.00,,---,0.19,VWS V14.00,2013-01-11 05:52:00,
2013-01-10 23:53:00,50.4,45.8,29.90,South,180,3.0,4.0,84,0.00,,---,0.19,VWS V14.00,2013-01-11 05:53:00,
2013-01-10 23:54:00,50.4,45.8,29.90,South,180,3.0,9.0,84,0.00,,---,0.19,VWS V14.00,2013-01-11 05:54:00,
2013-01-10 23:55:00,50.4,45.8,29.90,South,180,0.0,3.0,84,0.00,,---,0.19,VWS V14.00,2013-01-11 05:55:00,
2013-01-10 23:56:00,50.4,45.8,29.90,South,175,4.0,9.0,84,0.00,,---,0.19,VWS V14.00,2013-01-11 05:56:00,
2013-01-10 23:57:00,50.4,45.8,29.90,South,175,1.0,5.0,84,0.00,,---,0.19,VWS V14.00,2013-01-11 05:57:00,
2013-01-10 23:58:00,50.2,45.6,29.90,South,176,4.0,4.0,84,0.00,,---,0.00,VWS V14.00,2013-01-11 05:58:00,
2013-01-10 23:59:00,50.2,45.6,29.90,South,175,5.0,6.0,84,0.00,,---,0.19,VWS V14.00,2013-01-11 05:59:00,